[[{"header":{"parameterUnit":"m.s-1","parameterCategory":1,"la1":31.0,"la2":29.5877,"lo1":-88.7671,"lo2":-86.6584,"dy":0.0162,"dx":0.0185,"nx":115,"ny":88,"refTime":"2023-07-23T18:00:00:Z","depth":0,"parameterNumber":2,"parameterNumberName":"U-component_of_WINDS"},"data":[0.0,0.0,0.0,0.0,0.0,0.0,0.0,0.0,0.0,0.0,0.0,0.0,0.0,0.0,0.0,0.0,0.0,0.0,0.0,0.0,0.0,0.0,0.0,0.0,0.0,0.0,0.0,0.0,0.0,0.0,0.0,0.0,0.0,0.0,0.0,0.0,0.0,0.0,0.0,0.0,0.0,0.0,0.0,0.0,0.0,0.0,0.0,0.0,0.0,0.0,0.0,0.0,0.0,0.0,0.0,0.0,0.0,0.0,0.0,0.0,0.0,0.0,0.0,0.0,0.0,0.0,0.0,0.0,0.0,0.0,0.0,0.0,0.0,0.0,0.0,0.0,0.0,0.0,0.0,0.0,0.0,0.0,0.0,0.0,0.0,0.0,0.0,0.0,0.0,0.0,0.0,0.0,0.0,0.0,0.0,0.0,0.0,0.0,0.0,0.0,0.0,0.0,0.0,0.0,0.0,0.0,0.0,0.0,0.0,0.0,0.0,0.0,0.0,0.0,0.0,0.0,0.0,0.0,0.0,0.0,0.0,0.0,0.0,0.0,0.0,0.0,0.0,0.0,0.0,0.0,0.0,0.0,0.0,0.0,0.0,0.0,0.0,0.0,0.0,0.0,0.0,0.0,0.0,0.0,0.0,0.0,0.0,0.0,0.0,0.0,0.0,0.0,0.0,0.0,0.0,0.0,0.0,0.0,0.0,0.0,0.0,0.0,0.0,0.0,0.0,0.0,0.0,0.0,0.0,0.0,0.0,0.0,0.0,0.0,0.0,0.0,0.0,0.0,0.0,0.0,0.0,0.0,0.0,0.0,0.0,0.0,0.0,0.0,0.0,0.0,0.0,0.0,0.0,0.0,0.0,0.0,0.0,0.0,0.0,0.0,0.0,0.0,0.0,0.0,0.0,0.0,0.0,0.0,0.0,0.0,0.0,0.0,0.0,0.0,0.0,0.0,0.0,0.0,0.0,0.0,0.0,0.0,0.0,0.0,0.0,0.0,0.0,0.0,0.0,0.0,0.0,0.0,0.0,0.0,0.0,0.0,0.0,0.0,0.0,0.0,0.0,0.0,0.0,0.0,0.0,0.0,0.0,0.0,0.0,0.0,0.0,0.0,0.0,0.0,0.0,0.0,0.0,0.0,0.0,0.0,0.0,0.0,0.0,0.0,0.0,0.0,0.0,0.0,0.0,0.0,0.0,0.0,0.0,0.0,0.0,0.0,0.0,0.0,0.0,0.0,0.0,0.0,0.0,0.0,0.0,0.0,0.0,0.0,0.0,0.0,0.0,0.0,0.0,0.0,0.0,0.0,0.0,0.0,0.0,0.0,0.0,0.0,0.0,0.0,0.0,0.0,0.0,0.0,0.0,0.0,0.0,0.0,0.0,0.0,0.0,0.0,0.0,0.0,0.0,0.0,0.0,0.0,0.0,0.0,0.0,0.0,0.0,0.0,0.0,0.0,0.0,0.0,0.0,0.0,0.0,0.0,0.0,0.0,0.0,0.0,0.0,0.0,0.0,0.0,0.0,0.0,0.0,0.0,0.0,0.0,0.0,0.0,0.0,0.0,0.0,0.0,0.0,0.0,0.0,0.0,0.0,0.0,0.0,0.0,0.0,0.0,0.0,0.0,0.0,0.0,0.0,0.0,0.0,0.0,0.0,0.0,0.0,0.0,0.0,0.0,0.0,0.0,0.0,0.0,0.0,0.0,0.0,0.0,0.0,0.0,0.0,0.0,0.0,0.0,0.0,0.0,0.0,0.0,0.0,0.0,0.0,0.0,0.0,0.0,0.0,0.0,0.0,0.0,0.0,0.0,0.0,0.0,0.0,0.0,0.0,0.0,0.0,0.0,0.0,0.0,0.0,0.0,0.0,0.0,0.0,0.0,0.0,0.0,0.0,0.0,0.0,0.0,0.0,0.0,0.0,0.0,0.0,0.0,0.0,0.0,0.0,0.0,0.0,0.0,0.0,0.0,0.0,0.0,0.0,0.0,0.0,0.0,0.0,0.0,0.0,0.0,0.0,0.0,0.0,0.0,0.0,0.0,0.0,0.0,0.0,0.0,0.0,0.0,0.0,0.0,0.0,0.0,0.0,0.0,0.0,0.0,0.0,0.0,0.0,0.0,0.0,0.0,0.0,0.0,0.0,0.0,0.0,0.0,0.0,0.0,0.0,0.0,0.0,0.0,0.0,0.0,0.0,0.0,0.0,0.0,0.0,0.0,0.0,0.0,0.0,0.0,0.0,0.0,0.0,0.0,0.0,0.0,0.0,0.0,0.0,0.0,0.0,0.0,0.0,0.0,0.0,0.0,0.0,0.0,0.0,0.0,0.0,0.0,0.0,0.0,0.0,0.0,0.0,0.0,0.0,0.0,0.0,0.0,0.0,0.0,0.0,0.0,0.0,0.0,0.0,0.0,0.0,0.0,0.0,0.0,0.0,0.0,0.0,0.0,0.0,0.0,0.0,0.0,0.0,0.0,0.0,0.0,0.0,0.0,0.0,0.0,0.0,0.0,0.0,0.0,0.0,0.0,0.0,0.0,0.0,0.0,0.0,0.0,0.0,0.0,0.0,0.0,0.0,0.0,0.0,0.0,0.0,0.0,0.0,0.0,0.0,0.0,0.0,0.0,0.0,0.0,0.0,0.0,0.0,0.0,0.0,0.0,0.0,0.0,0.0,0.0,0.0,0.0,0.0,0.0,0.0,0.0,0.0,0.0,0.0,0.0,0.0,0.0,0.0,0.0,0.0,0.0,0.0,0.0,0.0,0.0,0.0,0.0,0.0,0.0,0.0,0.0,0.0,0.0,0.0,0.0,0.0,0.0,0.0,0.0,0.0,0.0,0.0,0.0,0.0,0.0,0.0,0.0,0.0,0.0,0.0,0.0,0.0,0.0,0.0,0.0,0.0,0.0,0.0,0.0,0.0,0.0,0.0,0.0,0.0,0.0,0.0,0.0,0.0,0.0,0.0,0.0,0.0,0.0,0.0,0.0,0.0,0.0,0.0,0.0,0.0,0.0,0.0,0.0,0.0,0.0,0.0,0.0,0.0,0.0,0.0,0.0,0.0,0.0,0.0,0.0,0.0,0.0,0.0,0.0,0.0,0.0,0.0,0.0,0.0,0.0,0.0,0.0,0.0,0.0,0.0,0.0,0.0,0.0,0.0,0.0,0.0,0.0,0.0,0.0,0.0,0.0,0.0,0.0,0.0,0.0,0.0,0.0,0.0,0.0,0.0,0.0,0.0,0.0,0.0,0.0,0.0,0.0,0.0,0.0,0.0,0.0,0.0,0.0,0.0,0.0,0.0,0.0,0.0,0.0,0.0,0.0,0.0,0.0,0.0,0.0,0.0,0.0,0.0,0.0,0.0,0.0,0.0,0.0,0.0,0.0,0.0,0.0,0.0,0.0,0.0,0.0,0.0,0.0,0.0,0.0,0.0,0.0,0.0,0.0,0.0,0.0,0.0,0.0,0.0,0.0,0.0,0.0,0.0,0.0,0.0,0.0,0.0,0.0,0.0,0.0,0.0,0.0,0.0,0.0,0.0,0.0,0.0,0.0,0.0,0.0,0.0,0.0,0.0,0.0,0.0,0.0,0.0,0.0,0.0,0.0,0.0,0.0,0.0,0.0,0.0,0.0,0.0,0.0,0.0,0.0,0.0,0.0,0.0,0.0,0.0,0.0,0.0,0.0,0.0,0.0,0.0,0.0,0.0,0.0,0.0,0.0,0.0,0.0,0.0,0.0,0.0,0.0,0.0,0.0,0.0,0.0,0.0,0.0,0.0,0.0,0.0,0.0,0.0,0.0,0.0,0.0,0.0,0.0,0.0,0.0,0.0,0.0,0.0,0.0,0.0,0.0,0.0,0.0,0.0,0.0,0.0,0.0,0.0,0.0,0.0,0.0,0.0,0.0,0.0,0.0,0.0,0.0,0.0,0.0,0.0,0.0,0.0,0.0,0.0,0.0,0.0,0.0,0.0,0.0,0.0,0.0,0.0,0.0,0.0,0.0,0.0,0.0,0.0,0.0,0.0,0.0,0.0,0.0,0.0,0.0,0.0,0.0,0.0,0.0,0.0,0.0,0.0,0.0,0.0,0.0,0.0,0.0,0.0,0.0,0.0,0.0,0.0,0.0,0.0,0.0,0.0,0.0,0.0,0.0,0.0,0.0,0.0,0.0,0.0,0.0,0.0,0.0,0.0,0.0,0.0,0.0,0.0,0.0,0.0,0.0,0.0,0.0,0.0,0.0,0.0,0.0,0.0,0.0,0.0,0.0,0.8454,0.0,0.0,0.0,0.0,0.0,0.0,0.0,0.0,0.0,0.0,0.0,0.0,0.0,0.0,0.0,0.0,0.0,0.0,0.0,0.0,0.0,0.0,0.0,0.0,0.0,0.0,0.0,0.0,0.0,0.0,0.0,0.0,0.0,0.0,0.0,0.0,0.0,0.0,0.0,0.0,0.0,0.0,0.0,0.0,0.0,0.0,0.0,0.0,0.0,0.0,0.0,0.0,0.0,0.0,0.0,0.0,0.0,0.0,0.0,0.0,0.0,0.0,0.0,0.0,0.0,0.0,0.0,0.0,0.0,0.0,0.0,0.0,0.0,0.0,0.0,0.0,0.0,0.0,0.0,0.0,0.0,0.0,0.0,0.0,0.0,0.0,0.0,0.0,0.0,0.0,0.0,0.0,0.0,0.0,0.0,0.0,0.0,0.0,0.0,0.0,0.0,0.0,0.0,0.0,0.0,0.0,0.0,0.0,0.0,0.0,0.8242,0.8173,0.8265,0.846,0.8716,0.0,0.0,0.0,0.0,0.0,0.0,0.0,0.0,0.0,0.0,0.0,0.0,0.0,0.0,0.0,0.0,0.0,0.0,0.0,0.0,0.0,0.0,0.0,0.0,0.0,0.0,0.0,0.0,0.0,0.0,0.0,0.0,0.0,0.0,0.0,0.0,0.0,0.0,0.0,0.0,0.0,0.0,0.0,0.0,0.0,0.0,0.0,0.0,0.0,0.0,0.0,0.0,0.0,0.0,0.0,0.0,0.0,0.0,0.0,0.0,0.0,0.0,0.0,0.0,0.0,0.0,0.0,0.0,0.0,0.0,0.0,0.0,0.0,0.0,0.0,0.0,0.0,0.0,0.0,0.0,0.0,0.0,0.0,0.0,0.0,0.0,0.0,0.0,0.0,0.0,0.0,0.0,0.0,0.0,0.0,0.0,0.0,0.0,0.0,0.0,0.0,0.0,0.0,0.0,0.0,0.0,0.0,0.0,0.0,0.0,0.0,0.0,0.8653,0.8857,0.9084,0.0,0.0,0.0,0.0,0.0,0.0,0.0,0.0,0.0,0.0,0.0,0.0,0.0,0.0,0.0,0.0,0.0,0.0,0.0,0.0,0.0,0.0,0.0,0.0,0.0,0.0,0.0,0.0,0.0,0.0,0.0,0.0,0.0,0.0,0.0,0.0,0.0,0.0,0.0,0.0,0.0,0.0,0.0,0.0,0.0,0.0,0.0,0.0,0.0,0.0,0.0,0.0,0.0,0.0,0.0,0.0,0.0,0.0,0.0,0.0,0.0,0.0,0.0,0.0,0.0,0.0,0.0,0.0,0.0,0.0,0.0,0.0,0.0,0.0,0.0,0.0,0.0,0.0,0.0,0.0,0.0,0.0,0.0,0.0,0.0,0.0,0.0,0.0,0.0,0.0,0.0,0.0,0.0,0.0,0.0,0.0,0.0,0.0,0.0,0.0,0.0,0.0,0.0,0.0,0.0,0.0,0.0,0.0,0.0,0.0,0.8956,0.894,0.9081,0.0,0.9605,0.0,0.0,0.0,0.0,0.0,0.0,0.0,0.0,0.0,0.0,0.0,0.0,0.0,0.0,0.0,0.0,0.0,0.0,0.0,0.0,0.0,0.0,0.0,0.0,0.0,0.0,0.0,0.0,0.0,0.0,0.0,0.0,0.0,0.0,0.0,0.0,0.0,0.0,0.0,0.0,0.0,0.0,0.0,0.0,0.0,0.0,0.0,0.0,0.0,0.0,0.0,0.0,0.0,0.0,0.0,0.0,0.0,0.0,0.0,0.0,0.0,0.0,0.0,0.0,0.0,0.0,0.0,0.0,0.0,0.0,0.0,0.0,0.0,0.0,0.0,0.0,0.0,0.0,0.0,0.0,0.0,0.0,0.0,0.0,0.0,0.0,0.0,0.0,0.0,0.0,0.0,0.0,0.0,0.0,0.0,0.0,0.0,0.0,0.0,0.0,0.0,0.0,0.0,0.0,0.0,0.0,0.0,0.0,0.0,0.0,0.9287,0.9296,0.9426,0.9585,0.0,0.0,0.0,0.0,0.0,0.0,0.0,0.0,0.0,0.0,0.0,0.0,0.0,0.0,0.0,0.0,0.0,0.0,0.0,0.0,0.0,0.0,0.0,0.0,0.0,0.0,0.0,0.0,0.0,0.0,0.0,0.0,0.0,0.0,0.0,0.0,0.0,0.0,0.0,0.0,0.0,0.0,0.0,0.0,0.0,0.0,0.0,0.0,0.0,0.0,0.0,0.0,0.0,0.0,0.0,0.0,0.0,0.0,0.0,0.0,0.0,0.0,0.0,0.0,0.0,0.0,0.0,0.0,0.0,0.0,0.0,0.0,0.0,0.0,0.0,0.0,0.0,0.0,0.0,0.0,0.0,0.0,0.0,0.0,0.0,0.0,0.0,0.0,0.0,0.0,0.0,0.0,0.0,0.0,0.0,0.0,0.0,0.0,0.0,0.0,0.0,0.0,0.0,0.0,0.0,0.0,0.0,0.0,0.0,0.0,0.954,0.9602,0.9633,0.9737,0.9824,0.9944,0.0,0.0,0.0,0.0,0.0,0.0,0.0,0.0,0.0,0.0,0.0,0.0,0.0,0.0,0.0,0.0,0.0,0.0,0.0,0.0,0.0,0.0,0.0,0.0,0.0,0.0,0.0,0.0,0.0,0.0,0.0,0.0,0.0,0.0,0.0,0.0,0.0,0.0,0.0,0.0,0.0,0.0,0.0,0.0,0.0,0.0,0.0,0.0,0.0,0.0,0.0,0.0,0.0,0.0,0.0,0.0,0.0,0.0,0.0,0.0,0.0,0.0,0.0,0.0,0.0,0.0,0.0,0.0,0.0,0.0,0.0,0.0,0.0,0.0,0.0,0.0,0.0,0.0,0.0,0.0,0.0,0.0,0.0,0.0,0.0,0.0,0.0,0.0,0.0,0.0,0.0,0.0,0.0,0.0,0.0,0.0,0.0,0.0,0.0,0.0,0.0,0.0,0.0,0.0,0.0,0.0,0.0,0.0,0.9601,0.9721,0.9832,0.9968,0.9991,1.0011,0.0,0.0,0.0,0.0,0.0,0.0,0.0,0.0,0.0,0.0,0.0,0.0,0.0,0.0,0.0,0.0,0.0,0.0,0.0,0.0,0.0,0.0,0.0,0.0,0.0,0.0,0.0,0.0,0.0,0.0,0.0,0.0,0.0,0.0,0.0,0.0,0.0,0.0,0.0,0.0,0.0,0.0,0.0,0.0,0.0,0.0,0.0,0.0,0.0,0.0,0.0,0.0,0.0,0.0,0.0,0.0,0.0,0.0,0.0,0.0,0.0,0.0,0.0,0.0,0.0,0.0,0.0,0.0,0.0,0.0,0.0,0.0,0.0,0.0,0.0,0.0,0.0,0.0,0.0,0.0,0.0,0.0,0.0,0.0,0.0,0.0,0.0,0.0,0.0,0.0,0.0,0.0,0.0,0.0,0.0,0.0,0.0,0.0,0.0,0.0,0.0,0.0,0.0,0.0,0.0,0.0,0.0,0.0,0.0,0.9725,0.985,0.9967,1.0067,1.0094,1.014,0.0,0.0,0.0,0.0,0.0,0.0,0.0,0.0,0.0,0.0,0.0,0.0,0.0,0.0,0.0,0.0,0.0,0.0,0.0,0.0,0.0,0.0,0.0,0.0,0.0,0.0,0.0,0.0,0.0,0.0,0.0,0.0,0.0,0.0,0.0,0.0,0.0,0.0,0.0,0.0,0.0,0.0,0.0,0.0,0.0,0.0,0.0,0.0,0.0,0.0,0.0,0.0,0.0,0.0,0.0,0.0,0.0,0.0,0.0,0.0,0.0,0.0,0.0,0.0,0.0,0.0,0.0,0.0,0.0,0.0,0.0,0.0,0.0,0.0,0.0,0.0,0.0,0.0,0.0,0.0,0.0,0.0,0.0,0.0,0.0,0.0,0.0,0.0,0.0,0.0,0.0,0.0,0.0,0.0,0.0,0.0,0.0,0.0,0.0,0.0,0.0,0.0,0.0,0.0,0.0,0.0,0.0,0.0,0.0,0.9856,0.0,1.0078,1.0129,1.019,1.0188,0.0,0.0,0.0,0.0,0.0,0.0,0.0,0.0,0.0,0.0,0.0,0.0,0.0,0.0,0.0,0.0,0.0,0.0,0.0,0.0,0.0,0.0,0.0,0.0,0.0,0.0,0.0,0.0,0.0,0.0,0.0,0.0,0.0,0.0,0.0,0.0,0.0,0.0,0.0,0.0,0.0,0.0,0.0,0.0,0.0,0.0,0.0,0.0,0.0,0.0,0.0,0.0,0.0,0.0,0.0,0.0,0.0,0.0,0.0,0.0,0.0,0.0,0.0,0.0,0.0,0.0,0.0,0.0,0.0,0.0,0.0,0.0,0.0,0.0,0.0,0.0,0.0,0.0,0.0,0.0,0.0,0.0,0.0,0.0,0.0,0.0,0.0,0.0,0.0,0.0,0.0,0.0,0.0,0.0,0.0,0.0,0.0,0.0,0.0,0.0,0.0,0.0,0.0,0.0,0.0,0.0,0.0,0.0,0.975,0.9995,1.0067,1.0133,1.0203,1.0191,1.0188,0.0,0.0,0.0,0.0,0.0,0.0,0.0,0.0,0.0,0.0,0.0,0.0,0.0,0.0,0.0,0.0,0.0,0.0,0.0,0.0,0.0,0.0,0.0,0.0,0.0,0.0,0.0,0.0,0.0,0.0,0.0,0.0,0.0,0.0,0.0,0.0,0.0,0.0,0.0,0.0,0.0,0.0,0.0,0.0,0.0,0.0,0.0,0.0,0.0,0.0,0.0,0.0,0.0,0.0,0.0,0.0,0.0,0.0,0.0,0.0,0.0,0.0,0.0,0.0,0.0,0.0,0.0,0.0,0.0,0.0,0.0,0.0,0.0,0.0,0.0,0.0,0.0,0.0,0.0,0.0,0.0,0.0,0.0,0.0,0.0,0.0,0.0,0.0,0.0,0.0,0.0,0.0,0.0,0.0,0.0,0.0,0.0,0.0,0.0,0.0,0.0,0.0,0.0,0.0,0.0,0.0,0.0,0.0,0.0,1.0017,1.0061,1.0124,1.0193,1.019,1.0202,0.0,0.0,0.0,0.0,0.0,0.0,0.0,0.0,0.0,0.0,0.0,0.0,0.0,0.0,0.0,0.0,0.0,0.0,0.0,0.0,0.0,0.0,0.0,0.0,0.0,0.0,0.0,0.0,0.0,0.0,0.0,0.0,0.0,0.0,0.0,0.0,0.0,0.0,0.0,0.0,0.0,0.0,0.0,0.0,0.0,0.0,0.0,0.0,0.0,0.0,0.0,0.0,0.0,0.0,0.0,0.0,0.0,0.0,0.0,0.0,0.0,0.0,0.0,0.0,0.0,0.0,0.0,0.0,0.0,0.0,0.0,0.0,0.0,0.0,0.0,0.0,0.0,0.0,0.0,0.0,0.0,0.0,0.0,0.0,0.0,0.0,0.0,0.0,0.0,0.0,0.0,0.0,0.0,0.0,0.0,0.0,0.0,0.0,0.0,0.0,0.0,0.0,0.0,0.0,0.0,0.0,0.0,0.0,0.0,1.0909,1.101,1.11,1.1121,1.1164,1.1179,1.1169,0.0,0.0,0.0,0.0,0.0,0.0,0.0,0.0,0.0,0.0,0.0,0.0,0.0,0.0,0.0,0.0,0.0,0.0,0.0,0.0,0.0,0.0,0.0,0.0,0.0,0.0,0.0,0.0,0.0,0.0,0.0,0.0,0.0,0.0,0.0,0.0,0.0,0.0,0.0,0.0,0.0,0.0,0.0,0.0,0.0,0.0,0.0,0.0,0.0,0.0,0.0,0.0,0.0,0.0,0.0,0.0,0.0,0.0,0.0,0.0,0.0,0.0,0.0,0.0,0.0,0.0,0.0,0.0,0.0,0.0,0.0,0.0,0.0,0.0,0.0,0.0,0.0,0.0,0.0,0.0,0.0,0.0,0.0,0.0,0.0,0.0,0.0,0.0,0.0,0.0,0.0,0.0,0.0,0.0,0.0,0.0,0.0,0.0,0.0,0.0,0.0,0.0,0.0,0.0,0.0,0.0,0.0,0.0,1.2602,1.2799,1.2818,1.2665,1.2727,1.2784,0.0,0.0,0.0,0.0,0.0,0.0,0.0,0.0,0.0,0.0,0.0,0.0,0.0,0.0,0.0,0.0,0.0,0.0,0.0,0.0,0.0,0.0,0.0,0.0,0.0,0.0,0.0,0.0,0.0,0.0,0.0,0.0,0.0,0.0,0.0,0.0,0.0,0.0,0.0,0.0,0.0,0.0,0.0,0.0,0.0,0.0,0.0,0.0,0.0,0.0,0.0,0.0,0.0,0.0,0.0,0.0,0.0,0.0,0.0,0.0,0.0,0.0,0.0,0.0,0.0,0.0,0.0,0.0,0.0,0.0,0.0,0.0,0.0,0.0,0.0,0.0,0.0,0.0,0.0,0.0,0.0,0.0,0.0,0.0,0.0,0.0,0.0,0.0,0.0,0.0,0.0,0.0,0.0,0.0,0.0,0.0,0.0,0.0,0.0,0.0,0.0,0.0,0.0,0.0,0.0,0.0,0.0,0.0,0.0,1.5134,1.535,1.4563,1.2781,1.2766,1.2784,0.0,0.0,0.0,0.0,0.0,0.0,0.0,0.0,0.0,0.0,0.0,0.0,0.0,0.0,0.0,0.0,0.0,0.0,0.0,0.0,0.0,0.0,0.0,0.0,0.0,0.0,0.0,0.0,0.0,0.0,0.0,0.0,0.0,0.0,0.0,0.0,0.0,0.0,0.0,0.0,0.0,0.0,0.0,0.0,0.0,0.0,0.0,0.0,0.0,0.0,0.0,0.0,0.0,0.0,0.0,0.0,0.0,0.0,0.0,0.0,0.0,0.0,0.0,0.0,0.0,0.0,0.0,0.0,0.0,0.0,0.0,0.0,0.0,0.0,0.0,0.0,0.0,0.0,0.0,0.0,0.0,0.0,0.0,0.0,0.0,0.0,0.0,0.0,0.0,0.0,0.0,0.0,0.0,0.0,0.0,0.0,0.0,0.0,0.0,0.0,0.0,0.0,0.0,0.0,0.0,0.0,0.0,0.0,1.423,1.5628,1.5788,1.5176,1.3773,1.4186,1.4212,0.0,0.0,0.0,0.0,0.0,0.0,0.0,0.0,0.0,0.0,0.0,0.0,0.0,0.0,0.0,0.0,0.0,0.0,0.0,0.0,0.0,0.0,0.0,0.0,0.0,0.0,0.0,0.0,0.0,0.0,0.0,0.0,0.0,0.0,0.0,0.0,0.0,0.0,0.0,0.0,0.0,0.0,0.0,0.0,0.0,0.0,0.0,0.0,0.0,0.0,0.0,0.0,0.0,0.0,0.0,0.0,0.0,0.0,0.0,0.0,0.0,0.0,0.0,0.0,0.0,0.0,0.0,0.0,0.0,0.0,0.0,0.0,0.0,0.0,0.0,0.0,0.0,0.0,0.0,0.0,0.0,0.0,0.0,0.0,0.0,0.0,0.0,0.0,0.0,0.0,0.0,0.0,0.0,0.0,0.0,0.0,0.0,0.0,0.0,0.0,0.0,0.0,0.0,0.0,0.0,0.0,0.0,0.0,1.4073,1.4997,1.5155,1.5273,1.5355,1.6077,1.6094,0.0,0.0,0.0,0.0,0.0,0.0,0.0,0.0,0.0,0.0,0.0,0.0,0.0,0.0,0.0,0.0,0.0,0.0,0.0,0.0,0.0,0.0,0.0,0.0,0.0,0.0,0.0,0.0,0.0,0.0,0.0,0.0,0.0,0.0,0.0,0.0,0.0,0.0,0.0,0.0,0.0,0.0,0.0,0.0,0.0,0.0,0.0,0.0,0.0,0.0,0.0,0.0,0.0,0.0,0.0,0.0,0.0,0.0,0.0,0.0,0.0,0.0,0.0,0.0,0.0,0.0,0.0,0.0,0.0,0.0,0.0,0.0,0.0,0.0,0.0,0.0,0.0,0.0,0.0,0.0,0.0,0.0,0.0,0.0,0.0,0.0,0.0,0.0,0.0,0.0,0.0,0.0,0.0,0.0,0.0,0.0,0.0,0.0,0.0,0.0,0.0,0.0,0.0,0.0,0.0,0.0,0.0,0.0,1.4888,1.5819,1.5959,1.6091,1.622,1.5802,1.5493,0.0,0.0,0.0,0.0,0.0,0.0,0.0,0.0,0.0,0.0,0.0,0.0,0.0,0.0,0.0,0.0,0.0,0.0,0.0,0.0,0.0,0.0,0.0,0.0,0.0,0.0,0.0,0.0,0.0,0.0,0.0,0.0,0.0,0.0,0.0,0.0,0.0,0.0,0.0,0.0,0.0,0.0,0.0,0.0,0.0,0.0,0.0,0.0,1.3928,0.0,0.0,0.0,0.0,0.0,0.0,0.0,0.0,0.0,0.0,0.0,0.0,0.0,0.0,0.0,0.0,0.0,0.0,0.0,0.0,0.0,0.0,0.0,0.0,0.0,0.0,0.0,0.0,0.0,0.0,0.0,0.0,0.0,0.0,0.0,0.0,0.0,0.0,0.0,0.0,0.0,0.0,0.0,0.0,0.0,0.0,0.0,0.0,0.0,0.0,0.0,0.0,0.0,0.0,0.0,0.0,0.0,0.0,0.0,1.4551,1.5508,1.5649,1.5749,1.5888,1.5468,1.5259,0.0,0.0,0.0,0.0,0.0,0.0,0.0,0.0,0.0,0.0,0.0,0.0,0.0,0.0,0.0,0.0,0.0,0.0,0.0,0.0,0.0,0.0,0.0,0.0,0.0,0.0,0.0,0.0,0.0,0.0,0.0,0.0,0.0,0.0,0.0,0.0,0.0,0.0,0.0,0.0,0.0,0.0,0.0,0.0,0.0,0.0,0.0,0.0,0.0,0.0,0.0,0.0,0.0,0.0,0.0,0.0,0.0,0.0,0.0,0.0,0.0,0.0,0.0,0.0,0.0,0.0,0.0,0.0,0.0,0.0,0.0,0.0,0.0,0.0,0.0,0.0,0.0,0.0,0.0,0.0,0.0,0.0,0.0,0.0,0.0,0.0,0.0,0.0,0.0,0.0,0.0,0.0,0.0,0.0,0.0,0.0,0.0,0.0,0.0,0.0,0.0,0.0,0.0,0.0,0.0,0.0,0.0,1.3684,1.384,1.4659,1.4912,1.5078,1.519,1.5193,1.5226,1.5288,0.0,0.0,0.0,0.0,0.0,0.0,0.0,0.0,0.0,0.0,0.0,0.0,0.0,0.0,0.0,0.0,0.0,0.0,0.0,0.0,0.0,0.0,0.0,0.0,0.0,0.0,0.0,0.0,0.0,0.0,0.0,0.0,0.0,0.0,0.0,0.0,0.0,0.0,1.3918,1.4078,0.0,0.0,0.0,0.0,0.0,0.0,0.0,0.0,1.5076,0.0,0.0,0.0,0.0,0.0,0.0,0.0,0.0,0.0,0.0,0.0,0.0,0.0,0.0,0.0,0.0,0.0,0.0,0.0,0.0,0.0,0.0,0.0,0.0,0.0,0.0,0.0,0.0,0.0,0.0,0.0,0.0,0.0,0.0,0.0,0.0,0.0,0.0,0.0,0.0,0.0,0.0,0.0,0.0,0.0,0.0,0.0,0.0,0.0,0.0,0.0,0.0,0.0,0.0,0.0,0.0,1.3468,1.3436,1.356,1.392,1.4619,1.5064,1.519,1.5197,1.5224,1.5293,0.0,0.0,0.0,0.0,0.0,0.0,0.0,0.0,0.0,0.0,0.0,0.0,0.0,0.0,0.0,0.0,0.0,0.0,0.0,0.0,0.0,0.0,0.0,0.0,0.0,0.0,0.0,0.0,0.0,0.0,0.0,0.0,0.0,0.0,0.0,0.0,0.0,0.0,0.0,1.4078,1.4162,0.0,0.0,0.0,0.0,0.0,0.0,0.0,0.0,1.4716,0.0,0.0,0.0,0.0,0.0,0.0,0.0,0.0,0.0,0.0,0.0,0.0,0.0,0.0,0.0,0.0,0.0,0.0,0.0,0.0,0.0,0.0,0.0,0.0,0.0,0.0,0.0,0.0,0.0,0.0,0.0,0.0,0.0,0.0,0.0,0.0,0.0,0.0,0.0,0.0,0.0,0.0,0.0,0.0,0.0,0.0,0.0,0.0,0.0,0.0,0.0,0.0,0.0,0.0,0.0,1.3179,1.252,1.2647,1.3621,1.4073,1.4585,1.514,1.5184,1.522,0.0,0.0,0.0,0.0,0.0,0.0,0.0,0.0,0.0,0.0,0.0,0.0,0.0,0.0,0.0,0.0,0.0,0.0,0.0,0.0,0.0,0.0,0.0,0.0,0.0,0.0,0.0,0.0,0.0,0.0,0.0,0.0,0.0,0.0,0.0,0.0,0.0,0.0,0.0,0.0,1.4091,1.4193,1.4282,0.0,0.0,0.0,0.0,0.0,0.0,1.5106,1.4926,0.0,0.0,0.0,0.0,0.0,0.0,0.0,0.0,0.0,0.0,0.0,0.0,0.0,0.0,0.0,0.0,0.0,0.0,0.0,0.0,0.0,0.0,0.0,0.0,0.0,0.0,0.0,0.0,0.0,0.0,0.0,0.0,0.0,0.0,0.0,0.0,0.0,0.0,0.0,0.0,0.0,0.0,0.0,0.0,0.0,0.0,0.0,0.0,0.0,0.0,0.0,0.0,0.0,0.0,0.0,1.2881,1.1663,1.1679,1.3059,1.3338,1.3809,1.4558,1.4807,1.4953,0.0,0.0,0.0,0.0,0.0,0.0,0.0,0.0,0.0,0.0,0.0,0.0,0.0,0.0,0.0,0.0,0.0,0.0,0.0,0.0,0.0,0.0,0.0,0.0,0.0,0.0,0.0,0.0,0.0,0.0,0.0,0.0,0.0,0.0,0.0,0.0,0.0,0.0,0.0,0.0,0.0,1.4224,1.4282,1.4469,0.0,0.0,0.0,0.0,1.4987,1.5146,0.0,0.0,0.0,0.0,0.0,0.0,0.0,0.0,0.0,0.0,0.0,0.0,0.0,0.0,0.0,0.0,0.0,0.0,0.0,0.0,0.0,0.0,0.0,0.0,0.0,0.0,0.0,0.0,0.0,0.0,0.0,0.0,0.0,0.0,0.0,0.0,0.0,0.0,0.0,0.0,0.0,0.0,0.0,0.0,0.0,0.0,0.0,0.0,0.0,0.0,0.0,0.0,0.0,0.0,0.0,0.0,1.2095,1.1342,1.1105,1.1482,1.2229,1.2725,1.2886,1.3626,1.4057,0.0,0.0,0.0,0.0,0.0,0.0,0.0,0.0,0.0,0.0,0.0,0.0,0.0,0.0,0.0,0.0,0.0,0.0,0.0,0.0,0.0,0.0,0.0,0.0,0.0,0.0,0.0,0.0,0.0,0.0,0.0,0.0,0.0,0.0,0.0,0.0,0.0,0.0,0.0,0.0,0.0,1.4219,1.4293,1.4469,1.4627,0.0,0.0,1.4995,1.5071,1.5201,0.0,0.0,0.0,0.0,0.0,0.0,0.0,0.0,0.0,0.0,0.0,0.0,0.0,0.0,0.0,0.0,0.0,0.0,0.0,0.0,0.0,0.0,0.0,0.0,0.0,0.0,0.0,0.0,0.0,0.0,0.0,0.0,0.0,0.0,0.0,0.0,0.0,0.0,0.0,0.0,0.0,0.0,0.0,0.0,0.0,0.0,0.0,0.0,0.0,0.0,0.0,0.0,0.0,0.0,0.0,1.2741,1.1895,1.1242,1.0983,1.1159,1.1547,1.2034,1.2571,1.2957,1.3394,0.0,0.0,0.0,0.0,0.0,0.0,0.0,0.0,0.0,0.0,0.0,0.0,0.0,0.0,0.0,0.0,0.0,0.0,0.0,0.0,0.0,0.0,0.0,0.0,0.0,0.0,0.0,0.0,0.0,0.0,0.0,0.0,0.0,0.0,0.0,0.0,0.0,0.0,0.0,0.0,0.0,0.0,1.4344,1.4485,0.0,0.0,0.0,1.499,1.5078,0.0,0.0,0.0,0.0,0.0,0.0,0.0,0.0,0.0,0.0,0.0,0.0,0.0,0.0,0.0,0.0,0.0,0.0,0.0,0.0,0.0,0.0,0.0,0.0,0.0,0.0,0.0,0.0,0.0,0.0,0.0,0.0,0.0,0.0,0.0,0.0,0.0,0.0,0.0,0.0,0.0,0.0,0.0,0.0,0.0,0.0,0.0,0.0,0.0,0.0,0.0,0.0,0.0,0.0,0.0,0.0,0.0,1.1841,1.1204,1.084,1.078,1.0854,1.1243,1.1937,1.2372,0.0,0.0,0.0,0.0,0.0,0.0,0.0,0.0,0.0,0.0,0.0,0.0,0.0,0.0,0.0,0.0,0.0,0.0,0.0,0.0,0.0,0.0,0.0,0.0,0.0,0.0,0.0,1.1944,0.0,0.0,0.0,0.0,0.0,0.0,0.0,0.0,0.0,0.0,0.0,0.0,0.0,0.0,1.4776,1.4854,1.5058,1.554,0.0,0.0,1.5553,1.5693,1.5434,1.5195,0.0,0.0,0.0,0.0,0.0,0.0,0.0,0.0,0.0,0.0,0.0,0.0,0.0,0.0,0.0,0.0,0.0,0.0,0.0,0.0,0.0,0.0,0.0,0.0,0.0,0.0,0.0,0.0,0.0,0.0,0.0,0.0,0.0,0.0,0.0,0.0,0.0,0.0,0.0,0.0,0.0,0.0,0.0,0.0,0.0,0.0,0.0,0.0,0.0,0.0,0.0,0.0,0.0,0.0,0.0,1.1938,1.1186,1.0537,0.9938,1.0005,1.0104,1.0182,1.1746,1.2678,0.0,0.0,0.0,0.0,0.0,0.0,0.0,0.0,0.0,0.0,0.0,0.0,0.0,0.0,0.0,0.0,0.0,0.0,0.0,0.0,0.0,0.0,0.0,0.0,0.0,0.0,0.0,0.0,0.0,0.0,0.0,0.0,0.0,0.0,0.0,0.0,0.0,0.0,0.0,0.0,0.0,1.5802,1.6054,1.6577,1.7169,0.0,1.7506,1.7204,1.7404,1.618,1.5201,1.5215,0.0,0.0,0.0,0.0,0.0,0.0,0.0,0.0,0.0,0.0,0.0,0.0,0.0,0.0,0.0,0.0,0.0,0.0,0.0,0.0,0.0,0.0,0.0,0.0,0.0,0.0,0.0,0.0,0.0,0.0,0.0,0.0,0.0,0.0,0.0,0.0,0.0,0.0,0.0,0.0,0.0,0.0,0.0,0.0,0.0,0.0,0.0,0.0,0.0,0.0,0.0,0.0,0.0,1.4859,1.3407,1.2162,1.1229,1.0572,1.0659,1.0763,1.0801,1.1976,1.2851,0.0,0.0,0.0,0.0,0.0,0.0,0.0,0.0,0.0,0.0,0.0,0.0,0.0,0.0,0.0,0.0,0.0,0.0,0.0,0.0,0.0,0.0,0.0,0.0,0.0,0.0,0.0,0.0,1.1057,1.0694,1.0173,0.0,0.0,0.0,0.0,0.0,0.0,0.0,0.0,0.0,0.0,1.6627,1.6738,1.6941,0.0,0.0,1.7697,1.7678,1.8904,1.6864,1.5498,1.6573,1.6721,0.0,0.0,0.0,0.0,0.0,0.0,0.0,0.0,0.0,0.0,0.0,0.0,0.0,0.0,0.0,0.0,0.0,0.0,0.0,0.0,0.0,0.0,0.0,0.0,0.0,0.0,0.0,0.0,0.0,0.0,0.0,0.0,0.0,0.0,0.0,0.0,0.0,0.0,0.0,0.0,0.0,0.0,0.0,0.0,0.0,0.0,0.0,0.0,0.0,0.0,0.0,0.0,1.58,1.4344,1.3044,1.2059,1.1393,1.1508,1.1617,1.1666,1.2513,1.3254,0.0,0.0,0.0,0.0,0.0,0.0,0.0,0.0,0.0,0.0,0.0,0.0,0.0,0.0,0.0,0.0,0.0,0.0,0.0,0.0,0.0,0.0,0.0,0.0,0.0,0.0,0.0,0.0,1.1896,1.1412,1.0536,0.0,0.0,0.0,0.0,0.0,0.0,0.0,0.0,0.0,0.0,1.7485,1.7504,1.7715,1.8118,1.8776,1.8383,1.8455,1.9779,1.8116,1.7083,1.8285,0.0,0.0,0.0,0.0,0.0,0.0,0.0,0.0,0.0,0.0,0.0,0.0,0.0,0.0,0.0,0.0,0.0,0.0,0.0,0.0,0.0,0.0,0.0,0.0,0.0,0.0,0.0,0.0,0.0,0.0,1.7151,0.0,0.0,0.0,0.0,0.0,0.0,0.0,0.0,0.0,0.0,0.0,0.0,0.0,0.0,0.0,0.0,0.0,0.0,0.0,0.0,0.0,0.0,1.59,1.4422,1.3666,1.2947,1.2293,1.2409,1.249,1.2497,1.3322,1.3811,1.3912,0.0,0.0,0.0,0.0,0.0,0.0,0.0,0.0,0.0,0.0,0.0,0.0,0.0,0.0,0.0,0.0,0.0,0.0,0.0,0.0,0.0,0.0,0.0,0.0,0.0,0.0,1.3881,1.3059,1.2183,0.0,0.0,0.0,0.0,0.0,0.0,0.0,0.0,0.0,0.0,1.8155,1.8366,1.8385,1.9082,1.9619,1.9738,1.972,1.9775,1.9884,2.0031,2.0208,0.0,0.0,0.0,0.0,0.0,0.0,0.0,0.0,0.0,0.0,0.0,0.0,0.0,0.0,0.0,0.0,0.0,0.0,0.0,0.0,0.0,0.0,0.0,0.0,0.0,0.0,0.0,1.7482,1.7454,0.0,0.0,0.0,0.0,0.0,0.0,0.0,0.0,0.0,0.0,0.0,1.8766,1.9045,0.0,0.0,0.0,0.0,0.0,0.0,0.0,0.0,0.0,0.0,0.0,0.0,1.645,1.601,1.4279,1.33,1.3171,1.3248,1.3306,1.3379,1.4208,1.4716,1.4835,0.0,0.0,0.0,0.0,0.0,0.0,0.0,0.0,0.0,0.0,0.0,0.0,0.0,0.0,0.0,0.0,0.0,0.0,0.0,0.0,0.0,0.0,0.0,0.0,0.0,1.4824,0.0,0.0,0.0,0.0,0.0,0.0,0.0,0.0,0.0,0.0,0.0,1.7999,1.897,1.9162,1.9218,1.9263,1.9518,1.9725,0.0,0.0,0.0,0.0,0.0,0.0,0.0,0.0,0.0,0.0,0.0,0.0,0.0,0.0,1.8256,1.6747,1.7334,1.8266,1.8814,0.0,0.0,0.0,0.0,0.0,0.0,0.0,0.0,0.0,0.0,0.0,0.0,0.0,0.0,1.8275,0.0,1.8575,0.0,0.0,0.0,0.0,0.0,0.0,0.0,0.0,1.9583,1.9731,2.001,2.001,2.0125,0.0,2.0074,1.9915,0.0,0.0,0.0,0.0,0.0,0.0,0.0,0.0,1.6698,1.6465,1.4751,1.3924,1.4025,1.4098,1.4187,1.4228,1.4795,1.5168,1.5284,1.5288,1.5475,0.0,0.0,0.0,0.0,0.0,0.0,0.0,0.0,0.0,0.0,0.0,0.0,0.0,0.0,0.0,0.0,0.0,0.0,0.0,0.0,0.0,0.0,0.0,1.4871,0.0,0.0,0.0,0.0,0.0,0.0,0.0,0.0,0.0,1.6312,1.7374,1.8551,1.96,1.9694,1.9707,1.9763,0.0,0.0,0.0,0.0,0.0,0.0,0.0,2.0233,2.0304,2.0241,2.0199,2.0164,2.0077,1.9971,1.9873,0.0,0.0,1.8362,1.9044,1.9795,1.9795,1.9795,1.9626,1.9033,1.9281,1.9447,0.0,0.0,0.0,0.0,0.0,0.0,0.0,0.0,2.0006,2.0017,0.0,2.0795,0.0,0.0,0.0,0.0,0.0,1.8469,0.0,0.0,1.9727,2.0098,2.0808,2.0827,2.1235,2.1922,2.1179,2.0775,2.0633,1.9856,0.0,0.0,0.0,0.0,0.0,0.0,1.6562,1.587,1.5104,1.4719,1.4785,1.4928,1.4992,1.4996,1.5121,1.5224,1.5284,1.5327,1.5773,1.6642,1.6756,0.0,0.0,0.0,0.0,0.0,0.0,0.0,0.0,0.0,0.0,0.0,0.0,0.0,0.0,0.0,0.0,0.0,0.0,0.0,0.0,1.5299,0.0,0.0,0.0,0.0,0.0,0.0,0.0,0.0,0.0,0.0,1.9512,1.8619,1.8416,1.9645,0.0,0.0,0.0,0.0,2.0061,2.0112,1.999,1.993,1.9991,2.0184,2.0383,2.0507,0.0,0.0,2.0165,2.0066,1.9949,1.9832,1.9807,1.9795,1.9757,1.9738,1.9795,1.9795,1.9795,1.9776,1.9713,1.9593,1.9596,2.1107,0.0,0.0,0.0,0.0,2.0776,2.1121,2.1713,2.1682,2.1701,2.1732,2.1947,0.0,0.0,0.0,0.0,0.0,0.0,2.1131,2.1309,2.1354,2.1485,2.1662,2.1662,2.1773,2.1996,2.1773,2.1346,2.0775,2.0467,2.0033,1.9453,0.0,0.0,0.0,0.0,1.6885,1.6663,1.5428,1.4804,1.4857,1.4984,1.5078,1.5133,1.5171,1.5237,1.5304,1.5888,1.6351,1.6636,1.7822,0.0,0.0,0.0,0.0,0.0,0.0,0.0,0.0,0.0,0.0,0.0,0.0,0.0,0.0,0.0,0.0,0.0,0.0,0.0,1.5298,1.5289,1.541,0.0,0.0,0.0,0.0,0.0,0.0,0.0,0.0,0.0,2.2985,2.088,1.9307,0.0,0.0,2.01,2.0793,2.0902,2.1143,2.1765,2.0796,0.0,1.9991,2.2144,2.3832,2.3861,2.1799,2.0308,2.0871,2.0427,1.9971,1.9884,1.9844,1.9795,1.9795,1.9795,1.9795,1.9795,1.9795,1.9795,1.9776,1.9725,1.9655,2.2204,2.1032,2.0913,2.1185,2.167,2.162,2.194,2.2474,2.245,2.2462,2.2505,2.2842,2.2723,2.2329,2.2234,0.0,0.0,0.0,2.2058,2.1996,2.2027,2.221,2.2442,2.2495,2.2678,2.2973,2.2691,2.2133,2.1317,2.0949,2.0359,1.9587,0.0,0.0,1.8994,1.8059,1.7417,1.7107,1.6278,1.5875,1.592,1.6067,1.6161,1.6189,1.6189,1.6233,1.6298,1.6827,1.7271,1.7633,1.8637,1.9372,0.0,0.0,0.0,0.0,0.0,0.0,0.0,0.0,0.0,0.0,0.0,1.8634,1.832,0.0,0.0,0.0,1.702,1.6551,1.6342,1.63,0.0,0.0,0.0,0.0,0.0,0.0,0.0,1.8305,1.9101,2.0776,2.3581,2.2723,2.1658,2.1327,2.1096,2.1179,2.1736,0.0,2.2038,2.2564,2.1759,2.106,2.1101,2.3458,2.5303,2.5283,2.3581,2.1864,2.1309,2.0836,2.0391,2.0013,1.9837,1.9782,1.9731,1.9744,1.977,1.9757,1.977,1.977,1.977,1.9712,1.9673,2.3423,2.2799,2.2665,2.2571,2.252,2.2508,2.2626,2.2783,2.2761,2.2753,2.2855,2.3579,2.3411,2.259,2.2477,0.0,2.2275,2.2293,2.2281,2.2182,2.2182,2.259,2.3295,2.3361,2.3785,2.4458,2.3814,2.3064,2.2189,2.1405,2.0583,1.983,1.962,1.9156,1.8456,1.8415,1.8037,1.733,1.7375,1.7444,1.751,1.7633,1.7704,1.7687,1.7708,1.7722,1.7798,1.7926,1.8353,1.9146,1.9273,1.9662,2.0447,0.0,0.0,0.0,0.0,0.0,0.0,0.0,0.0,0.0,0.0,0.0,0.0,0.0,0.0,0.0,1.8933,0.0,1.8329,1.8114,0.0,0.0,0.0,1.9724,2.1221,2.072,2.0195,2.002,0.0,0.0,2.2512,2.4121,2.4729,2.3674,2.2996,2.2639,2.2687,2.2757,2.2825,2.2978,2.294,2.2921,2.294,2.4284,2.5264,2.5212,2.5206,2.4186,2.213,2.1448,2.1058,2.0221,1.9969,1.9826,1.9643,1.9665,1.9686,1.9686,1.9686,1.9686,1.9686,1.966,1.9614,2.4626,2.451,2.448,2.4075,2.3467,2.3455,2.3852,2.4491,2.4498,2.4491,2.4522,2.4726,2.4581,2.4224,2.4185,2.408,2.3934,2.3985,2.3952,2.3923,2.3903,2.3996,2.4202,2.4199,2.4309,2.4493,2.4428,2.3952,2.3075,2.2299,2.1489,2.0695,2.0057,1.9625,1.9361,1.8771,1.8409,1.8283,1.7728,1.7534,1.7654,1.768,1.7708,1.7708,1.7696,1.7728,1.7806,1.841,1.8858,1.9134,1.9798,2.0301,2.048,2.0533,0.0,0.0,0.0,0.0,0.0,0.0,0.0,0.0,0.0,2.1411,2.1863,0.0,2.1575,0.0,2.1107,2.1849,2.1717,2.0501,0.0,0.0,2.0883,2.1253,2.2189,2.2467,2.2398,2.1909,2.2969,2.3955,2.4503,2.4911,2.5083,2.4782,2.356,2.292,2.3544,2.3727,2.3995,2.4524,2.462,2.4697,2.4659,2.4995,2.5253,2.5206,2.5203,2.474,2.3503,2.2715,2.1985,2.1095,2.0791,2.0457,1.9785,1.9652,1.9643,1.9629,1.9643,1.9638,1.9673,1.9641,1.9596,2.5031,2.5088,2.5082,2.4835,2.4378,2.4366,2.4669,2.5149,2.5113,2.5125,2.5149,2.5125,2.5019,2.4898,2.4894,2.4772,2.4615,2.4615,2.4584,2.4465,2.4464,2.4445,2.4465,2.4461,2.453,2.458,2.4695,2.4324,2.3564,2.3083,2.2456,2.1658,2.118,2.0759,2.0345,1.9531,1.916,1.9209,1.884,1.8703,1.8827,1.8812,1.8801,1.8828,1.8808,1.8835,1.8888,1.9314,1.9554,1.9625,2.0166,2.0443,2.0453,2.0503,2.0316,0.0,0.0,0.0,0.0,0.0,0.0,0.0,0.0,0.0,0.0,0.0,2.2889,2.0559,2.1898,2.3195,2.3906,2.2431,2.1756,2.2579,2.2641,2.2921,2.3656,2.4033,2.4071,2.3701,2.448,2.5088,2.5222,2.5243,2.5233,2.525,2.4446,2.4044,2.4476,2.463,2.4812,2.5226,2.5313,2.5313,2.5313,2.5292,2.5228,2.5168,2.5144,2.4834,2.3991,2.3391,2.2754,2.1884,2.1593,2.1119,1.998,1.9652,1.9583,1.9583,1.9583,1.9611,1.9652,1.962,1.9606,2.5018,2.5089,2.5082,2.5082,2.5082,2.5089,2.5132,2.5164,2.5125,2.5137,2.5176,2.5137,2.5076,2.4993,2.5004,2.4913,2.4698,2.4682,2.4601,2.443,2.4412,2.4412,2.4411,2.4479,2.458,2.4698,2.4768,2.4483,2.3858,2.3765,2.3373,2.2671,2.2489,2.2016,2.121,2.0452,2.0055,2.0015,2.0088,2.0155,2.0201,2.0199,2.0208,2.0208,2.0208,2.0197,2.0203,2.0211,2.0235,2.0299,2.0347,2.0438,2.0546,2.0616,2.1039,0.0,2.2124,0.0,0.0,0.0,0.0,0.0,0.0,0.0,0.0,2.48,2.4063,2.1241,2.2358,2.3771,2.5178,2.3984,2.3416,2.4158,2.4178,2.4456,2.5107,2.522,2.5184,2.512,2.5139,2.5172,2.5293,2.5313,2.5303,2.5312,2.5235,2.5168,2.5274,2.5254,2.5255,2.5313,2.5313,2.5313,2.5303,2.5239,2.5168,2.5095,2.5032,2.4721,2.4018,2.3814,2.3458,2.2669,2.2398,2.184,2.0279,1.9824,1.9602,1.9583,1.9583,1.9583,1.9615,1.9597,1.9583,2.4959,2.5025,2.5089,2.5082,2.5082,2.5038,2.5051,2.5107,2.5114,2.5107,2.5125,2.5168,2.5113,2.4993,2.4999,2.4903,2.4692,2.4679,2.4615,2.4478,2.4481,2.4481,2.4478,2.4547,2.4631,2.4692,2.4813,2.4842,2.4731,2.41,2.3688,2.3529,2.289,2.2129,2.1323,0.0,0.0,0.0,2.0145,2.0182,2.0199,2.0208,2.0208,2.0208,2.0209,0.0,2.0209,2.0209,2.0208,2.0222,2.028,0.0,0.0,0.0,0.0,0.0,0.0,0.0,0.0,0.0,0.0,0.0,2.4733,2.511,2.5061,2.5206,2.5034,2.4446,2.4668,2.4966,2.5264,2.5043,2.4889,2.5043,2.5053,2.512,2.5262,2.5282,2.5261,2.5179,2.5241,2.5293,2.536,2.5378,2.5378,2.5369,2.5332,2.5322,2.5361,2.5322,2.5313,2.5313,2.5313,2.5313,2.5313,2.5239,2.5156,2.4987,2.4974,2.4885,2.4606,2.4559,2.4252,2.3374,2.3184,2.2858,2.1834,2.0569,1.975,1.9602,1.9583,1.9583,1.9583,1.9583,1.9583,2.4794,0.0,2.4966,2.5012,0.0,2.5018,2.5018,2.5063,2.5044,2.5051,2.5126,2.5539,2.5457,2.4993,2.5025,2.4926,2.4753,2.4757,2.4695,2.4547,2.4513,2.4513,2.4545,2.4596,2.4642,2.4768,2.4903,2.5004,2.5031,2.4688,2.4495,2.4484,2.4052,2.3423,2.2596,2.1757,2.0947,2.0108,2.0547,2.0804,2.0813,2.1187,2.1196,2.0813,2.0766,0.0,0.0,0.0,0.0,0.0,0.0,0.0,0.0,2.2029,0.0,2.3592,2.366,2.383,2.4249,2.4658,2.4858,2.4811,2.5161,2.535,2.5312,2.5293,2.5313,2.5313,2.5332,2.5351,2.5351,2.5331,2.537,2.5351,2.5351,2.5341,2.5361,2.5332,2.5322,2.5264,2.5303,2.5367,2.5445,2.5456,2.544,2.544,2.5406,2.535,2.5378,2.5341,2.5313,2.5313,2.5313,2.5313,2.5303,2.5239,2.5144,2.4974,2.4915,2.4879,2.4783,2.4723,2.4542,2.4086,2.3964,2.378,2.3425,2.2595,2.1529,2.0047,1.9583,1.9583,1.9583,1.9583,1.9583,2.4657,2.4779,2.4842,2.494,2.4977,2.501,2.4991,2.4991,0.0,0.0,0.0,2.5773,2.5684,2.4993,2.5057,2.4985,2.4808,2.4813,2.4813,2.4837,2.4804,2.4785,2.4872,2.4867,2.4851,2.4823,2.4972,2.5057,2.5114,2.5156,2.521,2.5191,2.5137,2.4686,2.385,2.2371,2.1272,2.0623,2.1101,2.1483,2.1617,2.2257,2.2229,2.1407,2.1339,2.0918,2.0126,2.004,2.0107,2.0337,2.1072,2.168,2.2034,2.2738,2.3547,2.4424,2.4544,2.4865,2.5529,2.5607,2.5583,2.5515,2.5453,2.5385,2.5332,2.5322,2.5303,2.5332,2.5387,2.5412,2.5432,2.5404,2.5387,2.5388,2.5388,2.5388,2.5388,2.5388,2.5379,2.5341,2.5378,2.5453,2.5499,2.5498,2.5507,2.5488,2.5445,2.5421,2.5393,2.536,2.5313,2.5313,2.5313,2.5313,2.5293,2.5239,2.5144,2.4993,2.4907,2.4856,2.4723,2.4647,2.4599,2.4526,2.4512,2.4474,2.4528,2.4346,2.3328,2.0266,1.9583,1.9583,1.9583,1.9583,1.9583,2.461,2.4639,2.4776,2.485,2.4931,2.4977,2.4991,2.4991,2.4999,2.4993,2.5025,2.5203,2.5171,2.4993,2.5012,2.4972,2.4884,2.4827,2.516,2.5807,2.5796,2.5828,2.591,2.5872,2.5574,2.5004,2.5057,2.5095,2.5101,2.5168,2.521,2.521,2.5191,2.4759,2.39,2.2925,2.2371,2.2257,2.1693,2.1732,2.2409,2.2543,2.2199,2.1445,2.1358,2.0937,2.0145,2.0107,2.0412,2.11,2.1369,2.2162,2.3638,2.3909,2.4404,2.5247,2.5374,2.5473,2.5581,2.56,2.5604,2.5577,2.5531,2.5476,2.5387,2.5378,2.5395,2.5468,2.5476,2.5478,2.5478,2.5434,2.5401,2.5393,2.5395,2.5395,2.5412,2.5393,2.5404,2.5387,2.5429,2.5505,2.5574,2.5587,2.5564,2.5512,2.5492,2.5464,2.5412,2.5388,2.538,2.5313,2.5313,2.5313,2.5293,2.5258,2.5168,2.5101,2.4966,2.4851,2.4729,2.465,2.4564,2.4534,2.4498,2.4498,2.4517,2.4517,2.3031,2.0288,1.9583,1.9583,1.9583,1.9583,1.9583,2.4444,2.4559,2.4644,2.4737,2.4865,2.4917,2.4964,2.4991,2.5004,2.4985,2.5042,2.5473,2.5435,2.5004,2.4993,2.5245,2.5655,2.5627,2.6048,2.6786,2.6817,2.6832,2.6801,2.6422,2.6034,2.5703,2.5285,2.5088,2.5082,2.5168,2.521,2.521,2.521,2.474,2.3938,2.3498,2.3326,2.3307,2.2944,2.2944,2.3307,2.3766,2.3395,2.2104,2.2026,2.1395,2.0145,2.0516,2.0946,2.1349,2.2297,2.3199,2.4052,2.4576,2.5047,2.5479,2.5556,2.5604,2.5605,2.5615,2.5613,2.5615,2.5583,2.5518,2.5449,2.5441,2.5476,2.555,2.5551,2.5538,2.5557,2.5505,2.5449,2.5453,2.5445,2.5464,2.5453,2.5449,2.5449,2.5468,2.5517,2.5557,2.5599,2.56,2.5581,2.5546,2.5562,2.5538,2.5456,2.5423,2.5378,2.5322,2.5313,2.5313,2.5303,2.5258,2.5187,2.5095,2.498,2.4851,2.4711,2.4615,2.4549,2.4517,2.45,2.45,2.45,2.3702,2.216,2.0433,1.9583,1.9583,1.9583,1.9583,1.9583,2.4284,2.4425,2.4508,2.4642,2.4772,2.4846,2.4903,2.4977,2.4977,2.4977,2.5086,2.5655,2.5693,2.5294,2.5283,2.5758,2.6479,2.6569,2.6987,2.7742,2.7789,2.7804,2.7714,2.6958,2.6496,2.6237,2.5494,2.5125,2.5125,2.518,2.521,2.521,2.521,2.4866,2.4205,2.4205,2.4186,2.4186,2.4186,2.4186,2.4205,2.4866,2.4454,2.304,2.2904,2.2187,2.0803,2.127,2.171,2.2009,2.3236,2.4091,2.4399,2.5029,2.5434,2.5492,2.557,2.5599,2.561,2.5609,2.5593,2.5613,2.5613,2.5587,2.5544,2.5525,2.5556,2.5599,2.5593,2.5613,2.5587,2.5564,2.5518,2.5517,2.551,2.551,2.5517,2.5518,2.5512,2.5518,2.5582,2.5599,2.562,2.5628,2.5617,2.5619,2.5609,2.5564,2.5503,2.5453,2.5395,2.5313,2.5313,2.5313,2.5303,2.5252,2.5203,2.5139,2.5025,2.4879,2.4738,2.4613,2.453,2.4515,2.4517,2.45,2.4369,2.3182,2.1588,2.001,1.9583,1.9583,1.9583,1.9583,1.9583,2.4209,2.4229,2.4358,2.4534,2.4707,2.4772,2.4846,2.4884,2.4898,2.4931,2.5015,2.5072,2.5508,2.6034,2.6072,2.6565,2.7376,2.739,2.7861,2.8616,2.8684,2.8713,2.8684,2.7864,2.709,2.639,2.56,2.5199,2.5199,2.521,2.521,2.521,2.521,2.5153,2.5057,2.5077,2.5077,2.5077,2.508,2.508,2.5096,2.5172,2.474,2.3812,2.3755,2.3335,2.2314,2.2487,2.2918,2.3599,2.3919,2.4456,2.5167,2.5412,2.5488,2.5511,2.5556,2.5615,2.56,2.56,2.5595,2.561,2.5615,2.5615,2.5586,2.56,2.5632,2.5671,2.5639,2.561,2.56,2.5599,2.5576,2.5576,2.5531,2.5525,2.5589,2.5607,2.5585,2.56,2.561,2.5613,2.5668,2.5687,2.5694,2.5679,2.5649,2.5568,2.5506,2.5483,2.544,2.5341,2.5313,2.5313,2.5303,2.5303,2.5261,2.5191,2.5088,2.4953,2.4827,2.4726,2.465,2.4566,2.4515,2.4517,2.4184,2.3145,2.1513,2.0084,1.9583,1.9583,1.9583,1.9583,1.9583,2.4072,2.4135,2.4229,2.441,2.4596,2.4663,2.4707,2.4783,2.4832,2.4861,2.4946,2.5418,2.5844,2.6242,2.6735,2.7437,2.8245,2.8259,2.8745,2.9531,2.9565,2.9594,2.9527,2.8248,2.7459,2.7071,2.5841,2.521,2.521,2.521,2.521,2.521,2.521,2.521,2.521,2.521,2.5203,2.5214,2.5206,2.5198,2.5239,2.5228,2.4796,2.4049,2.3954,2.3551,2.2824,2.316,2.362,2.4034,2.4572,2.5032,2.5376,2.5461,2.5524,2.5512,2.5609,2.5663,2.5671,2.564,2.566,2.5656,2.566,2.564,2.5609,2.5629,2.5662,2.5687,2.5668,2.5658,2.5648,2.56,2.56,2.56,2.5565,2.556,2.5609,2.5649,2.5643,2.5609,2.5621,2.5662,2.5701,2.5701,2.569,2.5691,2.5687,2.562,2.5531,2.5511,2.5461,2.5387,2.5332,2.5293,2.5313,2.5313,2.5282,2.5225,2.5168,2.5076,2.4898,2.4821,2.4729,2.4631,2.4601,2.4551,2.45,2.3108,2.1513,2.0196,1.9583,1.9583,1.9583,1.9583,1.9583,2.4156,2.4074,2.4116,2.4284,2.4426,2.4497,2.4564,2.4645,2.4711,2.4888,2.5179,2.6038,2.6613,2.6938,2.7521,2.829,2.9042,2.9114,2.9448,3.0056,3.0094,3.0123,3.0032,2.8504,2.7701,2.7453,2.6013,2.521,2.521,2.521,2.521,2.521,2.521,2.521,2.521,2.521,2.5203,2.5206,2.5198,2.5231,2.5292,2.5264,2.4965,2.4418,2.4341,2.4053,2.3458,2.4053,2.4399,2.4484,2.5097,2.544,2.5434,2.5485,2.5544,2.5554,2.5639,2.5703,2.5687,2.5694,2.5697,2.5697,2.5701,2.5678,2.5636,2.5665,2.5698,2.5705,2.5687,2.5703,2.5696,2.5652,2.5617,2.5613,2.5624,2.56,2.5643,2.566,2.5687,2.5632,2.5665,2.5696,2.5703,2.5703,2.5701,2.5701,2.5687,2.5667,2.556,2.5525,2.5478,2.5429,2.5369,2.5332,2.5313,2.5313,2.5292,2.5258,2.5214,2.5144,2.4966,2.4903,2.4821,2.4723,2.4679,2.454,2.44,2.3156,2.1485,2.0224,1.9629,1.9602,1.9583,1.9583,1.9583,2.4613,2.3971,2.4054,2.419,2.4229,2.4284,2.4393,2.4512,2.458,2.5075,2.5853,2.6766,2.7681,2.8374,2.848,2.9023,2.9772,2.9842,2.9927,3.0083,3.0094,3.0142,3.007,2.8523,2.772,2.7587,2.6097,2.5268,2.521,2.521,2.521,2.521,2.521,2.521,2.521,2.521,2.5203,2.5206,2.522,2.5233,2.5303,2.534,2.534,2.5197,2.5226,2.5139,2.512,2.5244,2.5318,2.5343,2.5418,2.5499,2.5512,2.5562,2.5634,2.5691,2.5687,2.5697,2.5707,2.5687,2.569,2.569,2.5696,2.5696,2.569,2.5698,2.5705,2.5687,2.5687,2.5707,2.5703,2.5687,2.5691,2.5691,2.5644,2.5644,2.5691,2.5678,2.5707,2.569,2.5679,2.5703,2.5693,2.5701,2.5701,2.569,2.5697,2.5664,2.5595,2.5535,2.5499,2.548,2.5423,2.5388,2.5322,2.5313,2.5303,2.5273,2.5228,2.518,2.5088,2.5012,2.4898,2.4794,2.4734,2.4579,2.4295,2.3216,2.1484,2.0313,1.9755,1.9615,1.9597,1.9583,1.9583,2.4442,2.4678,2.472,2.4782,2.4847,2.4429,2.4303,2.4375,2.4462,2.5013,2.5849,2.6779,2.762,2.8444,2.9042,2.9525,2.9893,2.9926,2.9959,3.0038,3.0068,3.0113,3.0009,2.8987,2.8166,2.7568,2.6517,2.5707,2.5229,2.521,2.521,2.521,2.521,2.521,2.521,2.521,2.5203,2.5206,2.5201,2.5273,2.5361,2.5387,2.5412,2.544,2.5432,2.5423,2.5423,2.5448,2.548,2.5464,2.5531,2.5568,2.5585,2.5634,2.5679,2.5697,2.5707,2.5693,2.5696,2.5701,2.5703,2.5701,2.5703,2.5703,2.5703,2.5705,2.5687,2.5687,2.5687,2.5687,2.5705,2.5698,2.569,2.569,2.5684,2.5681,2.5704,2.569,2.5696,2.5693,2.5701,2.5705,2.5701,2.5698,2.5698,2.5696,2.569,2.5671,2.5619,2.5579,2.5525,2.5472,2.5404,2.5369,2.5313,2.5313,2.5303,2.5303,2.5262,2.5228,2.516,2.5101,2.4993,2.494,2.4865,2.479,2.449,2.2984,2.1352,2.0699,2.014,1.9643,1.9606,1.9653,1.9653,2.4668,2.5401,2.5496,2.5394,2.5223,2.4756,2.4429,2.434,2.4653,2.5282,2.6116,2.7065,2.7942,2.869,2.9401,2.9757,2.9844,2.9878,2.9926,3.0007,3.0053,3.0117,2.999,2.9298,2.8504,2.7625,2.6517,2.5707,2.5268,2.521,2.521,2.521,2.521,2.521,2.521,2.521,2.5203,2.5206,2.5201,2.5253,2.537,2.5423,2.5472,2.5503,2.551,2.5522,2.5522,2.5517,2.5525,2.5556,2.5599,2.5625,2.5632,2.5671,2.5707,2.5693,2.5698,2.5701,2.5703,2.5705,2.5687,2.5687,2.5687,2.5687,2.5687,2.5687,2.5687,2.5687,2.5687,2.5687,2.5707,2.5703,2.5703,2.5701,2.5698,2.5696,2.5696,2.5701,2.5701,2.5698,2.5703,2.5705,2.5701,2.5696,2.569,2.5693,2.5704,2.5668,2.5619,2.5579,2.5551,2.5453,2.5432,2.5388,2.5322,2.5313,2.5313,2.5303,2.5303,2.5271,2.5228,2.5172,2.5113,2.5057,2.5006,2.4953,2.4179,2.2728,2.1902,2.129,2.033,1.974,1.9731,1.9778,1.969,2.5497,2.6191,2.6254,2.5921,2.5385,2.5228,2.4867,2.4504,2.5133,2.5949,2.6897,2.783,2.8615,2.9344,2.9608,2.9701,2.9757,2.9844,2.9926,2.9988,3.0053,3.0132,3.0114,2.9407,2.8529,2.7625,2.6013,2.5268,2.521,2.521,2.521,2.521,2.521,2.521,2.521,2.521,2.5203,2.5206,2.522,2.5273,2.5398,2.5459,2.5488,2.5511,2.5557,2.557,2.5518,2.557,2.5579,2.5595,2.5658,2.5699,2.5687,2.5696,2.5698,2.5701,2.5705,2.5707,2.5687,2.5707,2.5687,2.5687,2.5687,2.5707,2.5707,2.5687,2.5687,2.5687,2.5707,2.5705,2.5705,2.5705,2.5705,2.5707,2.5705,2.5705,2.5707,2.5687,2.5687,2.5705,2.5703,2.5701,2.5693,2.5684,2.5681,2.5694,2.5687,2.5675,2.56,2.5554,2.5518,2.548,2.5432,2.5388,2.5341,2.5313,2.5313,2.5303,2.5303,2.5283,2.5241,2.5187,2.5172,2.5125,2.5082,2.5044,2.5012,2.3803,2.387,2.3197,2.17,2.0182,2.0117,2.0145,1.9727,2.6812,2.709,2.7097,2.6754,2.6127,2.5619,2.5259,2.519,2.5505,2.6433,2.7642,2.8147,2.8764,2.9381,2.9589,2.9645,2.972,2.9825,2.991,2.994,3.0057,3.0117,3.0066,2.9865,2.9077,2.7625,2.6013,2.521,2.5229,2.5229,2.521,2.521,2.5249,2.521,2.5249,2.521,2.521,2.5203,2.5209,2.5243,2.5341,2.5432,2.5515,2.5511,2.5564,2.5582,2.5568,2.5585,2.5605,2.5604,2.566,2.5701,2.5698,2.5705,2.5705,2.5705,2.5705,2.5687,2.5687,2.5687,2.5687,2.5687,2.5687,2.5705,2.5701,2.5705,2.5707,2.5707,2.5701,2.5696,2.5696,2.5696,2.5698,2.5687,2.5687,2.5707,2.5705,2.5707,2.5703,2.5696,2.5704,2.5691,2.5656,2.5632,2.5636,2.564,2.5656,2.5624,2.5595,2.5543,2.5492,2.5445,2.5412,2.5369,2.5332,2.5303,2.5303,2.5274,2.5274,2.5293,2.5262,2.5239,2.5225,2.518,2.5139,2.5114,2.5095,2.5044,2.4917,2.4324,2.2611,2.1581,2.0937,2.0369,1.9838,2.7682,2.7978,2.8027,2.7689,2.7074,2.6567,2.628,2.621,2.6507,2.727,2.8204,2.8671,2.9064,2.9514,2.9645,2.9701,2.9738,2.9842,2.9907,2.9956,3.0034,3.0113,3.0066,2.9808,2.9058,2.7701,2.6288,2.565,2.565,2.5669,2.5822,2.6078,2.6128,2.5944,2.5707,2.5669,2.5585,2.5271,2.5231,2.5244,2.5322,2.544,2.5522,2.5538,2.557,2.5601,2.5613,2.5609,2.561,2.5632,2.5694,2.5696,2.5707,2.5687,2.5687,2.5687,2.5687,2.5687,2.5687,2.5705,2.5705,2.5703,2.5703,2.5698,2.569,2.5696,2.5701,2.5701,2.5665,2.5652,2.5652,2.5658,2.5665,2.5671,2.5698,2.5698,2.5698,2.5698,2.5676,2.5678,2.5675,2.563,2.5615,2.5615,2.5595,2.561,2.561,2.5576,2.5562,2.5512,2.5456,2.5429,2.5404,2.536,2.5322,2.5303,2.5303,2.5264,2.5253,2.5273,2.5252,2.5228,2.5203,2.5125,2.5082,2.5114,2.5095,2.5107,2.4968,2.4054,2.3294,2.2275,2.1276,2.0261,1.9694,2.8135,2.8815,2.8952,2.8529,2.7917,2.7929,2.7604,2.7289,2.7848,2.8296,2.867,2.9268,2.9662,2.9701,2.9774,2.9773,2.9753,2.9857,2.994,3.0022,3.0083,3.0142,3.0095,2.9407,2.8657,2.7854,2.6918,2.6498,2.6479,2.6479,2.688,2.7415,2.7415,2.7262,2.6567,2.6496,2.6041,2.5497,2.533,2.5332,2.5395,2.5453,2.5524,2.5596,2.5595,2.5601,2.5607,2.5593,2.5639,2.5699,2.5704,2.5701,2.5707,2.5687,2.5687,2.5687,2.5687,2.5687,2.5707,2.5703,2.5701,2.5698,2.5693,2.5704,2.5694,2.5681,2.5684,2.5681,2.5652,2.561,2.5615,2.5604,2.5598,2.5601,2.5658,2.5681,2.5694,2.5681,2.5658,2.5617,2.56,2.5601,2.5601,2.5601,2.5595,2.5595,2.5595,2.5538,2.5499,2.5476,2.5456,2.5432,2.5387,2.536,2.5322,2.5303,2.5293,2.5233,2.5212,2.5209,2.5239,2.5195,2.5125,2.5063,2.5019,2.507,2.5082,2.5051,2.4945,2.4429,2.3505,2.2486,2.147,2.0489,1.9713,2.8819,2.9112,2.9148,2.8769,2.8238,2.824,2.8222,2.8123,2.8347,2.8854,2.9341,2.966,2.9771,2.9792,2.979,2.9825,2.9859,2.9891,2.9956,3.0072,3.0079,3.0142,3.0013,2.9344,2.8796,2.8433,2.774,2.7377,2.7358,2.7358,2.751,2.7682,2.7842,2.7644,2.7331,2.6837,2.642,2.6096,2.5552,2.5351,2.539,2.5464,2.5525,2.5587,2.5613,2.5613,2.5601,2.5607,2.562,2.5691,2.569,2.5701,2.5707,2.5687,2.5687,2.5687,2.5687,2.5687,2.5707,2.5701,2.5698,2.5693,2.5681,2.5671,2.5636,2.5625,2.5636,2.5619,2.5609,2.5599,2.5615,2.56,2.56,2.5605,2.5609,2.5617,2.5628,2.5636,2.5621,2.5595,2.5544,2.5538,2.5577,2.5557,2.5529,2.5517,2.551,2.5495,2.5445,2.5418,2.5395,2.5406,2.5388,2.5351,2.5332,2.5313,2.5264,2.5212,2.5168,2.5149,2.5149,2.5156,2.5019,2.4912,2.4893,2.494,2.4926,2.4912,2.4723,2.4566,2.3566,2.2473,2.1696,2.079,1.9954,2.9215,2.9289,2.9339,2.9176,2.8858,2.8877,2.8968,2.9074,2.9108,2.9351,2.9784,2.9841,2.9841,2.9841,2.9859,2.9876,2.991,2.9924,2.9991,3.0038,3.0079,3.0142,3.007,2.9631,2.9268,2.8853,2.8466,2.8255,2.823,2.8262,2.8434,2.8804,2.8779,2.86,2.8248,2.7842,2.7185,2.661,2.6083,2.5779,2.5464,2.5499,2.5544,2.5593,2.5599,2.5593,2.557,2.555,2.5585,2.5632,2.5675,2.569,2.5703,2.5707,2.5687,2.5687,2.5687,2.5707,2.5703,2.5696,2.5707,2.5678,2.566,2.5639,2.561,2.5595,2.5595,2.5574,2.5601,2.5595,2.555,2.557,2.5544,2.5544,2.5543,2.5554,2.5574,2.5576,2.5576,2.5562,2.5483,2.5448,2.5543,2.5499,2.5432,2.5395,2.5385,2.5387,2.5369,2.536,2.5351,2.5332,2.5361,2.5332,2.5313,2.5303,2.5231,2.5157,2.5063,2.5051,2.5057,2.5038,2.4926,2.4808,2.4775,2.4775,2.4779,2.4753,2.4647,2.4217,2.3347,2.268,2.194,2.1049,2.0233,2.9434,2.9434,2.9551,2.9606,2.9607,2.9681,2.9695,2.9857,2.982,2.9836,2.9907,2.9907,2.9907,2.9907,2.9891,2.9907,2.9907,2.9956,3.0007,3.0038,3.0064,3.0123,3.0185,3.0128,2.9726,2.923,2.9058,2.9084,2.913,2.9143,2.9519,2.989,3.0113,2.9857,2.9229,2.9025,2.821,2.7094,2.6676,2.6173,2.5648,2.5556,2.5593,2.5609,2.5593,2.555,2.5525,2.5525,2.5531,2.5576,2.5643,2.5675,2.5696,2.5703,2.5687,2.5687,2.5687,2.5705,2.5698,2.5707,2.5687,2.5656,2.5625,2.5587,2.5582,2.5593,2.5568,2.5525,2.5557,2.5564,2.551,2.5503,2.5503,2.5503,2.5507,2.5476,2.5498,2.5551,2.5577,2.5505,2.5367,2.5369,2.5406,2.5425,2.5341,2.5262,2.5283,2.5284,2.5293,2.5283,2.5253,2.5252,2.5273,2.5303,2.5303,2.5293,2.5187,2.5094,2.4961,2.4917,2.4922,2.4894,2.4783,2.4723,2.4689,2.466,2.4647,2.4582,2.4534,2.4424,2.3923,2.3182,2.2402,2.1328,2.0418,2.9645,2.9626,2.9677,2.9731,2.9823,2.9859,2.9857,2.9907,2.9907,2.9907,2.9907,2.9907,2.9907,2.9907,2.9907,2.9907,2.9907,2.9924,2.9991,3.0068,3.0079,3.0142,3.0204,3.0204,3.0103,2.9868,2.9888,2.9934,2.9973,2.9934,3.0081,3.0247,3.0352,3.0309,3.01,2.9476,2.8724,2.7755,2.7148,2.6456,2.5801,2.5609,2.56,2.561,2.5554,2.5525,2.5515,2.5507,2.5503,2.5525,2.559,2.5636,2.5687,2.5701,2.5707,2.5707,2.5687,2.5705,2.5698,2.5704,2.5679,2.5615,2.5579,2.5512,2.5536,2.5517,2.551,2.5507,2.5515,2.5499,2.5448,2.5476,2.5464,2.5456,2.5429,2.5421,2.5432,2.5484,2.548,2.5412,2.5332,2.5253,2.5332,2.5332,2.5261,2.518,2.516,2.5198,2.5198,2.5187,2.5187,2.5176,2.522,2.5252,2.5273,2.5241,2.5118,2.498,2.4842,2.4768,2.4772,2.476,2.4695,2.4631,2.4599,2.4568,2.4551,2.4534,2.4517,2.45,2.4425,2.3572,2.2662,2.1606,2.0752,2.979,2.9806,2.9784,2.9836,2.9891,2.991,2.991,2.9907,2.9907,2.9907,2.9907,2.9907,2.9907,2.9907,2.9907,2.9907,2.9907,2.9907,2.9956,3.0038,3.0083,3.0147,3.0204,3.0199,3.0213,3.0221,3.0209,3.0279,3.0336,3.0352,3.0367,3.0389,3.0441,3.0472,3.0521,3.0046,2.9461,2.866,2.7867,2.7045,2.634,2.5785,2.5615,2.5591,2.5549,2.5511,2.5519,2.5456,2.5464,2.5476,2.5518,2.5586,2.5629,2.569,2.5701,2.5703,2.5705,2.5703,2.5696,2.5678,2.5632,2.56,2.555,2.5524,2.5507,2.5464,2.544,2.544,2.5423,2.5397,2.536,2.5406,2.5415,2.5415,2.5378,2.536,2.5351,2.5406,2.5423,2.536,2.5303,2.5262,2.5252,2.5231,2.5134,2.5044,2.5063,2.5094,2.5063,2.5082,2.5125,2.5137,2.5184,2.5228,2.5231,2.5176,2.5019,2.4856,2.466,2.4629,2.4613,2.4615,2.4582,2.4566,2.4532,2.4534,2.4517,2.45,2.45,2.45,2.4276,2.3665,2.298,2.2126,2.1291,2.9912,2.9912,2.9907,2.9907,2.9907,2.9907,2.9907,2.9907,2.9907,2.9907,2.9907,2.9907,2.9907,2.9907,2.9907,2.9907,2.9907,2.9924,2.9972,3.0038,3.0098,3.0161,3.0199,3.024,3.026,3.0247,3.0292,3.0352,3.0409,3.0471,3.0511,3.051,3.0519,3.0557,3.0602,3.0571,3.0098,2.9272,2.8437,2.7643,2.6807,2.6052,2.5639,2.56,2.5568,2.5518,2.5507,2.5456,2.5429,2.5429,2.5471,2.5517,2.5595,2.5652,2.569,2.5698,2.5705,2.5703,2.5671,2.5652,2.5604,2.5604,2.5538,2.5507,2.5476,2.5423,2.5397,2.536,2.5341,2.5322,2.5313,2.5332,2.5389,2.5389,2.5322,2.5293,2.5313,2.5351,2.5351,2.5322,2.5303,2.5273,2.5217,2.5172,2.5025,2.4947,2.4966,2.4985,2.4953,2.498,2.5038,2.512,2.5149,2.5203,2.5217,2.5187,2.5051,2.4798,2.4582,2.4549,2.453,2.4532,2.4532,2.4532,2.4515,2.45,2.45,2.45,2.45,2.45,2.4332,2.3906,2.3312,2.2646,2.1829,2.9907,2.9907,2.9907,2.9907,2.9907,2.9907,2.9924,2.9907,2.9924,2.9907,2.9924,2.9907,2.9924,2.9907,2.9907,2.9907,2.9905,2.9956,2.9988,3.0068,3.0147,3.0185,3.0221,3.0305,3.0348,3.0364,3.0386,3.043,3.0472,3.0539,3.0593,3.0587,3.0622,3.0656,3.0671,3.0658,3.0341,2.9602,2.8704,2.78,2.7045,2.6178,2.5643,2.5615,2.5593,2.5557,2.551,2.5499,2.5472,2.5488,2.5478,2.5531,2.5586,2.5656,2.5697,2.5696,2.5705,2.5703,2.569,2.5632,2.5619,2.5587,2.5543,2.5464,2.5423,2.536,2.5341,2.5322,2.5322,2.5313,2.5313,2.5313,2.5313,2.5313,2.5313,2.5313,2.5313,2.5313,2.5332,2.5313,2.5293,2.5271,2.5172,2.5076,2.4934,2.4851,2.4856,2.4861,2.4842,2.4898,2.4947,2.5032,2.5113,2.5168,2.5222,2.5191,2.5076,2.4813,2.4613,2.453,2.4513,2.4498,2.4517,2.4498,2.4517,2.45,2.45,2.45,2.45,2.45,2.4369,2.4204,2.3665,2.3054,2.233,2.9907,2.9905,2.994,2.9956,2.9956,2.9988,3.0007,2.9988,3.0007,3.0007,2.9988,2.9988,2.9972,2.9956,2.9956,2.994,2.994,2.9991,3.0038,3.0083,3.0176,3.0226,3.0254,3.0336,3.0436,3.049,3.0511,3.052,3.0554,3.0634,3.0664,3.0665,3.0698,3.0704,3.0736,3.0742,3.0514,2.9907,2.888,2.7989,2.7424,2.6377,2.5721,2.561,2.5609,2.5587,2.557,2.5531,2.5505,2.5511,2.5538,2.5574,2.5591,2.5613,2.5675,2.5696,2.5703,2.5703,2.569,2.5652,2.56,2.5607,2.5556,2.5476,2.5415,2.5351,2.5313,2.5313,2.5313,2.5313,2.5313,2.5313,2.5313,2.5313,2.5313,2.5313,2.5313,2.5313,2.5313,2.5303,2.5293,2.525,2.5076,2.4972,2.4856,2.4798,2.4753,2.4757,2.4742,2.4827,2.4921,2.5032,2.5125,2.5172,2.5214,2.518,2.5101,2.4856,2.4645,2.4564,2.4513,2.4515,2.4517,2.45,2.45,2.45,2.45,2.45,2.45,2.45,2.4425,2.4295,2.3962,2.3461,2.281,2.994,2.994,3.0007,3.0038,3.0053,3.0102,3.0117,3.0117,3.0117,3.0117,3.0117,3.0117,3.0083,3.0053,3.0019,2.9969,2.9937,3.0019,3.0079,3.0142,3.0226,3.0273,3.0316,3.0383,3.0488,3.0559,3.0623,3.0626,3.063,3.0685,3.073,3.0722,3.0728,3.0734,3.0784,3.0511,3.0599,3.002,2.8875,2.7959,2.7374,2.6459,2.5675,2.5628,2.5619,2.5625,2.5585,2.5568,2.5543,2.5554,2.5585,2.5605,2.5632,2.5625,2.5639,2.5698,2.5703,2.5698,2.5687,2.5648,2.5595,2.5582,2.5517,2.5464,2.5415,2.5351,2.5313,2.5313,2.5313,2.5313,2.5313,2.5313,2.5313,2.5313,2.5313,2.5313,2.5313,2.5313,2.5313,2.5303,2.5293,2.5217,2.507,2.4931,2.4813,2.4738,2.4711,2.4711,2.4726,2.4846,2.494,2.5044,2.513,2.5187,2.5198,2.5203,2.5101,2.4931,2.4738,2.4629,2.458,2.4549,2.4532,2.4534,2.4498,2.4498,2.4517,2.45,2.45,2.45,2.45,2.4407,2.4184,2.3925,2.3461,3.0022,3.0068,3.0098,3.0109,3.0171,3.0204,3.019,3.0185,3.0204,3.0185,3.0204,3.0204,3.0185,3.0157,3.0109,3.0094,3.0109,3.0133,3.0188,3.0266,3.0323,3.0352,3.0386,3.046,3.052,3.0616,3.0649,3.0695,3.0704,3.0736,3.0784,3.0769,3.0774,3.0755,3.056,3.0117,2.9649,2.9362,2.7978,2.6809,2.6205,2.5859,2.5718,2.5675,2.5675,2.5656,2.5628,2.56,2.558,2.5589,2.5593,2.5625,2.5662,2.5687,2.5696,2.5701,2.5698,2.5707,2.5697,2.564,2.5591,2.5556,2.5524,2.5461,2.5412,2.536,2.5313,2.5313,2.5313,2.5293,2.5293,2.5313,2.5313,2.5313,2.5313,2.5313,2.5313,2.5313,2.5313,2.5293,2.5283,2.5172,2.505,2.4903,2.4783,2.4707,2.4663,2.4679,2.4726,2.4861,2.4985,2.5101,2.5153,2.519,2.522,2.5217,2.5156,2.4985,2.4842,2.4689,2.466,2.4647,2.4564,2.4547,2.453,2.4515,2.4517,2.45,2.45,2.45,2.45,2.45,2.4481,2.4239,2.3962,3.0166,3.0142,3.018,3.0221,3.026,3.0292,3.0305,3.0305,3.0305,3.0305,3.0324,3.0305,3.0292,3.026,3.0221,3.0226,3.0221,3.0241,3.0299,3.0343,3.0394,3.0419,3.0481,3.052,3.054,3.0632,3.0665,3.0695,3.0717,3.0748,3.0789,3.0794,3.076,3.0468,3.0195,2.9708,2.9225,2.8602,2.7593,2.6584,2.5921,2.5694,2.5694,2.5687,2.5694,2.5678,2.5658,2.5655,2.5655,2.5658,2.5662,2.5668,2.5696,2.5698,2.5703,2.5705,2.5698,2.5707,2.5694,2.5636,2.5586,2.5543,2.5538,2.5476,2.5421,2.5378,2.5388,2.5434,2.5369,2.5341,2.5293,2.5313,2.5313,2.5313,2.5313,2.5313,2.5313,2.5313,2.5303,2.5283,2.5262,2.516,2.5057,2.4917,2.4779,2.4707,2.4679,2.4695,2.4772,2.4903,2.5044,2.5168,2.5187,2.5203,2.5222,2.5239,2.5214,2.5076,2.4934,2.4823,2.4768,2.4723,2.4676,2.4647,2.465,2.4601,2.4534,2.45,2.45,2.45,2.45,2.45,2.45,2.4481,2.4129,2.9633,2.9673,3.0157,3.0348,3.0359,3.0414,3.0414,3.0433,3.0414,3.0433,3.0433,3.0402,3.0371,3.0328,3.0323,3.0311,3.033,3.0348,3.0371,3.0425,3.0458,3.05,3.055,3.054,3.0568,3.0665,3.0645,3.0668,3.0723,3.0755,3.0773,3.0778,3.0789,3.0326,2.9688,2.9162,2.8641,2.7437,2.6895,2.6275,2.5814,2.5704,2.5704,2.5704,2.5687,2.5693,2.5693,2.5693,2.5693,2.5696,2.5698,2.5701,2.5703,2.5705,2.5705,2.5705,2.5698,2.5693,2.5681,2.5644,2.561,2.5593,2.5538,2.5478,2.5453,2.5429,2.5464,2.5515,2.5468,2.5397,2.5322,2.5313,2.5313,2.5313,2.5313,2.5313,2.5313,2.5313,2.5303,2.5293,2.5262,2.5228,2.5101,2.4953,2.4808,2.4719,2.4692,2.4711,2.4832,2.4959,2.507,2.5199,2.5217,2.5222,2.5243,2.5241,2.5236,2.518,2.5025,2.4947,2.4898,2.4842,2.4779,2.4772,2.4745,2.4666,2.4582,2.4551,2.45,2.45,2.45,2.45,2.45,2.45,2.4407,2.8019,2.8203,2.9795,3.0413,3.0402,3.0481,3.0451,3.0364,3.0441,3.0441,3.0479,3.0488,3.0458,3.0417,3.0406,3.0386,3.0386,3.0439,3.0479,3.051,3.0559,3.0588,3.0598,3.0588,3.0588,3.0613,3.0621,3.0645,3.0688,3.0704,3.0724,3.0703,3.0759,3.0238,2.9367,2.8461,2.7496,2.6486,2.6022,2.5951,2.5743,2.5687,2.5707,2.5696,2.5698,2.5701,2.5705,2.5705,2.5705,2.5705,2.5705,2.5705,2.5705,2.5687,2.5687,2.5705,2.5701,2.5698,2.5696,2.5675,2.5658,2.5599,2.555,2.5499,2.5511,2.5511,2.5544,2.557,2.5522,2.5432,2.536,2.5332,2.5351,2.5313,2.5313,2.5313,2.5313,2.5313,2.5303,2.5303,2.5273,2.5239,2.5172,2.5019,2.4851,2.4749,2.4738,2.4757,2.4856,2.498,2.5095,2.518,2.5198,2.5233,2.5274,2.5273,2.5261,2.5217,2.5111,2.505,2.5006,2.4966,2.4926,2.487,2.4846,2.4723,2.4629,2.4599,2.4568,2.4517,2.45,2.45,2.45,2.45,2.45,2.7943,2.8038,2.875,2.9012,2.8946,2.8955,2.9264,2.9719,2.9757,3.0086,3.055,3.055,3.0559,3.053,3.053,3.051,3.052,3.052,3.055,3.0559,3.0569,3.0607,3.0616,3.0616,3.0616,3.0604,3.0613,3.0629,3.07,3.0625,3.069,3.0717,3.0631,2.981,2.8841,2.7546,2.6431,2.6009,2.5704,2.5693,2.5687,2.5703,2.5696,2.5693,2.5703,2.5705,2.5707,2.5687,2.5687,2.5687,2.5687,2.5687,2.5687,2.5687,2.5687,2.5687,2.5703,2.5705,2.5703,2.5687,2.566,2.5624,2.5566,2.5551,2.5554,2.5554,2.5587,2.5576,2.5538,2.5453,2.5387,2.5379,2.537,2.5322,2.5313,2.5313,2.5313,2.5313,2.5303,2.5303,2.5283,2.5252,2.5195,2.5101,2.4953,2.4794,2.4783,2.4802,2.4893,2.5,2.5113,2.518,2.5198,2.5252,2.5293,2.5293,2.5302,2.5252,2.5179,2.5153,2.5106,2.5144,2.5088,2.5006,2.4953,2.487,2.4783,2.4695,2.4615,2.4534,2.45,2.45,2.45,2.45,2.45,2.7235,2.726,2.7303,2.7605,2.7976,2.8014,2.8343,2.8876,2.9205,2.9785,3.0598,3.0617,3.0617,3.0617,3.0598,3.0598,3.0588,3.0598,3.0598,3.0598,3.0598,3.0607,3.0616,3.0616,3.0616,3.0604,3.0613,3.064,3.07,3.0447,3.0268,3.0179,3.0049,2.9113,2.8252,2.663,2.5714,2.5687,2.5701,2.5693,2.5701,2.57,2.5697,2.5691,2.5694,2.5693,2.5693,2.5691,2.5687,2.5687,2.5687,2.5687,2.5687,2.5687,2.5687,2.5687,2.5687,2.5687,2.5703,2.569,2.5671,2.564,2.5636,2.5628,2.5604,2.5619,2.563,2.5629,2.555,2.5464,2.5404,2.5397,2.537,2.5322,2.5313,2.5313,2.5313,2.5313,2.5313,2.5303,2.5283,2.5282,2.5217,2.5137,2.5012,2.4884,2.4842,2.4856,2.494,2.5044,2.5149,2.5195,2.5209,2.5252,2.5293,2.5293,2.5293,2.5283,2.5252,2.5201,2.5187,2.5206,2.5203,2.5125,2.5057,2.5006,2.4959,2.4875,2.4711,2.4534,2.4551,2.4547,2.45,2.4517,2.4517,2.5646,2.555,2.5646,2.6536,2.7782,2.8031,2.8023,2.8122,2.8857,2.9631,3.0269,3.0366,3.0366,3.0346,3.0172,3.0153,3.023,3.0366,3.0443,3.0404,3.054,3.0578,3.0598,3.0607,3.051,3.0576,3.043,3.0388,3.0447,2.9749,2.9465,2.9214,2.8831,2.8304,2.7998,2.6543,2.5756,2.5705,2.5696,2.5702,2.5703,2.5702,2.5702,2.5703,2.5703,2.5703,2.57,2.5694,2.5691,2.5687,2.5687,2.5687,2.5687,2.5687,2.5687,2.5687,2.5687,2.5687,2.5707,2.5707,2.5678,2.5678,2.5675,2.5652,2.5644,2.566,2.5675,2.5663,2.5568,2.5471,2.5429,2.5464,2.5495,2.5524,2.5543,2.5563,2.5601,2.5313,2.5313,2.5313,2.5302,2.529,2.5217,2.5149,2.507,2.4972,2.4931,2.4926,2.4993,2.5069,2.5172,2.5198,2.5212,2.5262,2.5303,2.5303,2.5303,2.5303,2.5293,2.5243,2.5222,2.5231,2.5209,2.5187,2.516,2.5113,2.5088,2.507,2.4875,2.4679,2.4626,2.4591,2.4547,2.4498,2.4515,2.5511,2.5511,2.5511,2.582,2.6323,2.637,2.666,2.7232,2.8006,2.8606,2.8818,2.8857,2.8876,2.8876,2.8954,2.8992,2.9031,2.9611,2.9747,2.9785,3.0192,3.0559,3.0559,3.0346,3.0239,2.9881,2.9715,2.9431,2.89,2.8636,2.8592,2.834,2.7743,2.7395,2.706,2.6229,2.5712,2.5697,2.5703,2.57,2.5687,2.5701,2.5701,2.5694,2.5698,2.5702,2.5703,2.57,2.5694,2.5689,2.5687,2.5687,2.5687,2.5687,2.5687,2.5687,2.5687,2.5687,2.5687,2.5701,2.5698,2.5696,2.5693,2.5671,2.5673,2.5696,2.5704,2.5671,2.5568,2.5483,2.5412,2.6013,2.6217,2.6227,2.6255,2.6255,2.614,2.5582,2.5313,2.5313,2.5293,2.5302,2.5261,2.5217,2.5125,2.5076,2.5019,2.5012,2.507,2.5118,2.5206,2.522,2.5233,2.5283,2.5303,2.5303,2.5313,2.5303,2.5303,2.5293,2.5264,2.5243,2.5252,2.525,2.5217,2.5214,2.5168,2.5107,2.4991,2.4875,2.4808,2.4716,2.4642,2.458,2.4513,2.5511,2.5511,2.5511,2.5511,2.5511,2.5511,2.5967,2.6702,2.731,2.7696,2.7967,2.8006,2.8045,2.8025,2.7987,2.7976,2.8073,2.8545,2.8883,2.8932,2.9358,2.9532,2.961,2.9736,2.9253,2.8952,2.8805,2.8559,2.824,2.7821,2.7466,2.7097,2.6737,2.65,2.6266,2.5917,2.5693,2.5699,2.5702,2.5687,2.5696,2.5687,2.5687,2.5701,2.5689,2.5694,2.5703,2.5702,2.5697,2.5691,2.5687,2.5687,2.5687,2.5687,2.5687,2.5687,2.5687,2.5687,2.5687,2.5687,2.5705,2.5705,2.5703,2.5703,2.5705,2.5701,2.5675,2.5634,2.5589,2.594,2.6225,2.6872,2.6824,2.6842,2.7044,2.7044,2.6563,2.6005,2.5514,2.5476,2.5303,2.5293,2.5302,2.5261,2.5195,2.5172,2.5149,2.5144,2.512,2.5172,2.5209,2.5222,2.5253,2.5293,2.5303,2.5303,2.5313,2.5313,2.5313,2.5313,2.5303,2.5283,2.5302,2.5311,2.5261,2.5248,2.5191,2.512,2.507,2.5031,2.4999,2.4884,2.4749,2.4657,2.4596,2.5511,2.5511,2.5511,2.5511,2.5511,2.5511,2.5928,2.6625,2.6663,2.7097,2.7821,2.7696,2.76,2.7755,2.7802,2.7694,2.7721,2.7865,2.7989,2.8113,2.8368,2.8357,2.8357,2.8341,2.8283,2.8117,2.7931,2.785,2.786,2.7168,2.6424,2.597,2.5926,2.5839,2.5795,2.5753,2.569,2.5698,2.5699,2.5705,2.5693,2.5693,2.5693,2.5698,2.5705,2.5696,2.5702,2.5702,2.5696,2.5689,2.5707,2.5707,2.5707,2.5707,2.5687,2.5687,2.5687,2.5687,2.5687,2.5687,2.5687,2.5687,2.5707,2.5707,2.5705,2.5698,2.5671,2.5784,2.5892,2.6751,2.746,2.7383,2.7305,2.7554,2.789,2.7601,2.7063,2.6524,2.5995,2.5687,2.5409,2.5303,2.5293,2.5282,2.525,2.522,2.5187,2.5195,2.5195,2.5187,2.5241,2.5233,2.5264,2.5284,2.5313,2.5313,2.5313,2.5313,2.5313,2.5313,2.5303,2.5303,2.5293,2.5302,2.5302,2.5261,2.5206,2.5191,2.5187,2.5144,2.5107,2.5025,2.4865,2.4802,2.4726,2.5511,2.5511,2.5511,2.5511,2.5511,2.5511,2.5638,2.582,2.5859,2.6052,2.6207,2.6227,2.6401,2.6227,2.6204,2.6269,2.649,2.6788,2.7094,2.7307,2.7598,2.7927,2.8005,2.7881,2.766,2.7319,2.7094,2.6914,2.6398,2.5965,2.5977,2.5659,2.5615,2.5605,2.5615,2.5671,2.5687,2.5693,2.5702,2.5691,2.5698,2.5696,2.5696,2.5698,2.5707,2.5697,2.5703,2.5699,2.5689,2.5701,2.5701,2.5701,2.5696,2.5703,2.5687,2.5687,2.5687,2.5687,2.5687,2.5687,2.5687,2.5707,2.5705,2.5705,2.5703,2.5693,2.5664,2.5788,2.6726,2.7856,2.8212,2.8153,2.8238,2.8536,2.8736,2.8486,2.7928,2.7294,2.6697,2.5591,2.5313,2.5303,2.5303,2.5293,2.5273,2.5262,2.531,2.5395,2.5337,2.5367,2.5264,2.5274,2.5284,2.5313,2.5322,2.5322,2.5313,2.5313,2.5313,2.5313,2.5303,2.5303,2.5303,2.5303,2.5293,2.5262,2.522,2.5217,2.5225,2.5222,2.5156,2.5088,2.4993,2.4917,2.4832,2.5511,2.5511,2.5519,2.5507,2.5515,2.5515,2.5515,2.5519,2.5511,2.5511,2.5511,2.5569,2.5511,2.5588,2.5596,2.5611,2.5653,2.6047,2.6313,2.6482,2.696,2.6902,2.7077,2.7128,2.6706,2.6423,2.6274,2.6113,2.5609,2.555,2.5607,2.5601,2.5615,2.5605,2.5615,2.5671,2.5691,2.5703,2.5701,2.5701,2.5693,2.5705,2.5703,2.5701,2.5689,2.5699,2.5703,2.5694,2.5701,2.569,2.569,2.5687,2.5681,2.569,2.5701,2.5701,2.5703,2.5705,2.5707,2.5687,2.5687,2.5707,2.5703,2.5701,2.5698,2.569,2.5652,2.5821,2.7608,2.8993,2.9,2.9055,2.9305,2.9583,2.9506,2.9448,2.8832,2.8159,2.7024,2.5697,2.5313,2.5313,2.5313,2.5303,2.5495,2.5793,2.6071,2.6282,2.6022,2.5705,2.5486,2.5331,2.5331,2.536,2.5351,2.536,2.5379,2.5351,2.5293,2.5293,2.5293,2.5313,2.5303,2.5303,2.5303,2.5264,2.5233,2.5241,2.525,2.5236,2.5222,2.5156,2.5107,2.5044,2.4945,2.5519,2.5519,2.5515,2.5517,2.5518,2.5518,2.5505,2.5522,2.5519,2.5511,2.5511,2.5511,2.5511,2.5511,2.5519,2.5515,2.5517,2.5686,2.5777,2.5634,2.5907,2.6004,2.5932,2.559,2.5893,2.5699,2.5609,2.5732,2.5602,2.5576,2.5607,2.5601,2.5615,2.561,2.5615,2.5675,2.5691,2.5697,2.5687,2.5702,2.5703,2.57,2.5693,2.5705,2.5691,2.57,2.5703,2.5712,2.5726,2.5775,2.5827,2.5859,2.5933,2.5901,2.5892,2.581,2.5835,2.5703,2.5707,2.5687,2.5705,2.5705,2.5701,2.5696,2.569,2.5684,2.5648,2.6223,2.7797,2.9368,2.9748,2.9602,2.9737,2.9936,2.9956,2.9829,2.9433,2.8848,2.8121,2.6736,2.5514,2.5476,2.5264,2.5283,2.5599,2.6177,2.6523,2.6773,2.6937,2.6437,2.6034,2.5695,2.5434,2.5443,2.5437,2.5456,2.5468,2.5423,2.5351,2.5322,2.5322,2.5322,2.5313,2.5313,2.5313,2.5313,2.5293,2.5273,2.5271,2.5217,2.5214,2.521,2.5175,2.5126,2.5057,2.5505,2.5518,2.5557,2.5564,2.557,2.5518,2.5512,2.5518,2.5503,2.5519,2.5511,2.5511,2.5511,2.5511,2.5519,2.5515,2.551,2.5505,2.5544,2.5596,2.5596,2.5602,2.5601,2.5589,2.5583,2.5596,2.5596,2.5577,2.5583,2.5595,2.5607,2.5607,2.5615,2.561,2.561,2.5675,2.5703,2.5703,2.5701,2.5705,2.5696,2.5701,2.5703,2.5703,2.5702,2.5699,2.5707,2.5735,2.6096,2.6442,2.6593,2.6719,2.6884,2.671,2.6771,2.6789,2.6256,2.601,2.5822,2.5822,2.582,2.5718,2.5693,2.5687,2.5684,2.5655,2.596,2.6706,2.7875,2.9434,3.0352,3.0167,3.0071,3.0213,3.0316,3.0138,2.9953,2.9536,2.9071,2.7802,2.6264,2.5705,2.5512,2.551,2.577,2.6066,2.6373,2.6768,2.755,2.7495,2.7026,2.6572,2.5699,2.555,2.5549,2.5524,2.5522,2.5476,2.5397,2.5379,2.5361,2.5322,2.5313,2.5313,2.5313,2.5313,2.5303,2.5293,2.5262,2.5217,2.5203,2.5187,2.5199,2.5144,2.512,2.5557,2.555,2.5582,2.5613,2.5579,2.5568,2.5537,2.5544,2.5511,2.5522,2.5519,2.5511,2.5511,2.5511,2.5519,2.5507,2.5515,2.551,2.5531,2.5564,2.5596,2.5602,2.5609,2.5595,2.5564,2.557,2.5557,2.5557,2.5596,2.5602,2.5609,2.5601,2.5609,2.561,2.561,2.5667,2.5699,2.5699,2.5683,2.5697,2.5693,2.5703,2.5705,2.5703,2.5698,2.5687,2.5834,2.5933,2.6432,2.6895,2.7123,2.7408,2.7524,2.7485,2.7546,2.7522,2.7195,2.6643,2.6401,2.6208,2.6069,2.5905,2.5655,2.5648,2.5625,2.5589,2.5568,2.6401,2.8646,3.0294,3.0336,3.0208,3.0164,3.0248,3.0273,3.0184,3.0126,2.9966,2.9723,2.9274,2.7958,2.701,2.6756,2.6345,2.6567,2.663,2.6821,2.7739,2.8382,2.8499,2.8046,2.7412,2.65,2.5774,2.5583,2.557,2.557,2.5495,2.5432,2.5406,2.5379,2.5332,2.5313,2.5303,2.5303,2.5313,2.5303,2.5293,2.5228,2.5156,2.5144,2.5163,2.5156,2.5168,2.5137,2.5613,2.5618,2.5609,2.5625,2.5615,2.5595,2.5599,2.5587,2.5531,2.5517,2.5515,2.5519,2.5511,2.5511,2.5511,2.5519,2.5507,2.5515,2.551,2.5511,2.5551,2.5577,2.5589,2.5595,2.5557,2.5544,2.5524,2.5557,2.557,2.5596,2.5609,2.5601,2.5604,2.5605,2.5634,2.5648,2.5675,2.5675,2.5679,2.5679,2.5683,2.5691,2.5694,2.5707,2.5695,2.5667,2.5887,2.629,2.6734,2.7419,2.7907,2.8401,2.8418,2.8392,2.8217,2.8182,2.8009,2.7601,2.7345,2.6978,2.6526,2.6087,2.5792,2.5615,2.561,2.5549,2.5517,2.7171,2.9429,3.0227,3.0267,3.026,3.0234,3.018,3.0166,3.0152,3.0185,3.0213,3.0182,3.0119,2.9352,2.8286,2.794,2.7499,2.7319,2.738,2.7878,2.8973,2.965,2.9353,2.8994,2.8173,2.7224,2.6556,2.5828,2.5613,2.5613,2.5538,2.5488,2.544,2.5416,2.5351,2.5313,2.5303,2.5303,2.5303,2.5283,2.5262,2.5184,2.5095,2.5044,2.5025,2.5107,2.5101,2.5149,2.5632,2.5699,2.5691,2.5678,2.5678,2.5609,2.561,2.5576,2.5505,2.5517,2.5386,2.548,2.5511,2.5511,2.5511,2.5511,2.5519,2.5519,2.5503,2.5511,2.5518,2.5557,2.5564,2.557,2.5557,2.5518,2.5524,2.5511,2.5544,2.557,2.5602,2.5601,2.5593,2.5615,2.561,2.5619,2.5628,2.5628,2.5628,2.5628,2.5648,2.5656,2.5699,2.5675,2.5643,2.562,2.5826,2.6411,2.7052,2.7913,2.8935,2.9552,2.9583,2.9264,2.9043,2.8897,2.8707,2.8549,2.8236,2.7675,2.7125,2.6528,2.6184,2.5719,2.5667,2.5536,2.6409,2.8617,3.0188,3.0155,3.0171,3.0138,3.0109,3.0,2.9953,2.994,2.9924,3.0038,3.0094,3.0026,2.9737,2.9273,2.9169,2.8711,2.8257,2.8234,2.8056,2.9068,2.9677,2.9741,2.9759,2.8818,2.7817,2.6844,2.5921,2.5707,2.5649,2.5601,2.5614,2.5708,2.5648,2.537,2.5332,2.5322,2.5312,2.5312,2.5262,2.5241,2.5099,2.5006,2.4898,2.4884,2.4985,2.5063,2.5113]},{"header":{"parameterUnit":"m.s-1","parameterCategory":1,"la1":31.0,"la2":29.5877,"lo1":-88.7671,"lo2":-86.6584,"dy":0.0162,"dx":0.0185,"nx":115,"ny":88,"refTime":"2023-07-23T18:00:00:Z","depth":0,"parameterNumber":3,"parameterNumberName":"V-component_of_WINDS"},"data":[0.0,0.0,0.0,0.0,0.0,0.0,0.0,0.0,0.0,0.0,0.0,0.0,0.0,0.0,0.0,0.0,0.0,0.0,0.0,0.0,0.0,0.0,0.0,0.0,0.0,0.0,0.0,0.0,0.0,0.0,0.0,0.0,0.0,0.0,0.0,0.0,0.0,0.0,0.0,0.0,0.0,0.0,0.0,0.0,0.0,0.0,0.0,0.0,0.0,0.0,0.0,0.0,0.0,0.0,0.0,0.0,0.0,0.0,0.0,0.0,0.0,0.0,0.0,0.0,0.0,0.0,0.0,0.0,0.0,0.0,0.0,0.0,0.0,0.0,0.0,0.0,0.0,0.0,0.0,0.0,0.0,0.0,0.0,0.0,0.0,0.0,0.0,0.0,0.0,0.0,0.0,0.0,0.0,0.0,0.0,0.0,0.0,0.0,0.0,0.0,0.0,0.0,0.0,0.0,0.0,0.0,0.0,0.0,0.0,0.0,0.0,0.0,0.0,0.0,0.0,0.0,0.0,0.0,0.0,0.0,0.0,0.0,0.0,0.0,0.0,0.0,0.0,0.0,0.0,0.0,0.0,0.0,0.0,0.0,0.0,0.0,0.0,0.0,0.0,0.0,0.0,0.0,0.0,0.0,0.0,0.0,0.0,0.0,0.0,0.0,0.0,0.0,0.0,0.0,0.0,0.0,0.0,0.0,0.0,0.0,0.0,0.0,0.0,0.0,0.0,0.0,0.0,0.0,0.0,0.0,0.0,0.0,0.0,0.0,0.0,0.0,0.0,0.0,0.0,0.0,0.0,0.0,0.0,0.0,0.0,0.0,0.0,0.0,0.0,0.0,0.0,0.0,0.0,0.0,0.0,0.0,0.0,0.0,0.0,0.0,0.0,0.0,0.0,0.0,0.0,0.0,0.0,0.0,0.0,0.0,0.0,0.0,0.0,0.0,0.0,0.0,0.0,0.0,0.0,0.0,0.0,0.0,0.0,0.0,0.0,0.0,0.0,0.0,0.0,0.0,0.0,0.0,0.0,0.0,0.0,0.0,0.0,0.0,0.0,0.0,0.0,0.0,0.0,0.0,0.0,0.0,0.0,0.0,0.0,0.0,0.0,0.0,0.0,0.0,0.0,0.0,0.0,0.0,0.0,0.0,0.0,0.0,0.0,0.0,0.0,0.0,0.0,0.0,0.0,0.0,0.0,0.0,0.0,0.0,0.0,0.0,0.0,0.0,0.0,0.0,0.0,0.0,0.0,0.0,0.0,0.0,0.0,0.0,0.0,0.0,0.0,0.0,0.0,0.0,0.0,0.0,0.0,0.0,0.0,0.0,0.0,0.0,0.0,0.0,0.0,0.0,0.0,0.0,0.0,0.0,0.0,0.0,0.0,0.0,0.0,0.0,0.0,0.0,0.0,0.0,0.0,0.0,0.0,0.0,0.0,0.0,0.0,0.0,0.0,0.0,0.0,0.0,0.0,0.0,0.0,0.0,0.0,0.0,0.0,0.0,0.0,0.0,0.0,0.0,0.0,0.0,0.0,0.0,0.0,0.0,0.0,0.0,0.0,0.0,0.0,0.0,0.0,0.0,0.0,0.0,0.0,0.0,0.0,0.0,0.0,0.0,0.0,0.0,0.0,0.0,0.0,0.0,0.0,0.0,0.0,0.0,0.0,0.0,0.0,0.0,0.0,0.0,0.0,0.0,0.0,0.0,0.0,0.0,0.0,0.0,0.0,0.0,0.0,0.0,0.0,0.0,0.0,0.0,0.0,0.0,0.0,0.0,0.0,0.0,0.0,0.0,0.0,0.0,0.0,0.0,0.0,0.0,0.0,0.0,0.0,0.0,0.0,0.0,0.0,0.0,0.0,0.0,0.0,0.0,0.0,0.0,0.0,0.0,0.0,0.0,0.0,0.0,0.0,0.0,0.0,0.0,0.0,0.0,0.0,0.0,0.0,0.0,0.0,0.0,0.0,0.0,0.0,0.0,0.0,0.0,0.0,0.0,0.0,0.0,0.0,0.0,0.0,0.0,0.0,0.0,0.0,0.0,0.0,0.0,0.0,0.0,0.0,0.0,0.0,0.0,0.0,0.0,0.0,0.0,0.0,0.0,0.0,0.0,0.0,0.0,0.0,0.0,0.0,0.0,0.0,0.0,0.0,0.0,0.0,0.0,0.0,0.0,0.0,0.0,0.0,0.0,0.0,0.0,0.0,0.0,0.0,0.0,0.0,0.0,0.0,0.0,0.0,0.0,0.0,0.0,0.0,0.0,0.0,0.0,0.0,0.0,0.0,0.0,0.0,0.0,0.0,0.0,0.0,0.0,0.0,0.0,0.0,0.0,0.0,0.0,0.0,0.0,0.0,0.0,0.0,0.0,0.0,0.0,0.0,0.0,0.0,0.0,0.0,0.0,0.0,0.0,0.0,0.0,0.0,0.0,0.0,0.0,0.0,0.0,0.0,0.0,0.0,0.0,0.0,0.0,0.0,0.0,0.0,0.0,0.0,0.0,0.0,0.0,0.0,0.0,0.0,0.0,0.0,0.0,0.0,0.0,0.0,0.0,0.0,0.0,0.0,0.0,0.0,0.0,0.0,0.0,0.0,0.0,0.0,0.0,0.0,0.0,0.0,0.0,0.0,0.0,0.0,0.0,0.0,0.0,0.0,0.0,0.0,0.0,0.0,0.0,0.0,0.0,0.0,0.0,0.0,0.0,0.0,0.0,0.0,0.0,0.0,0.0,0.0,0.0,0.0,0.0,0.0,0.0,0.0,0.0,0.0,0.0,0.0,0.0,0.0,0.0,0.0,0.0,0.0,0.0,0.0,0.0,0.0,0.0,0.0,0.0,0.0,0.0,0.0,0.0,0.0,0.0,0.0,0.0,0.0,0.0,0.0,0.0,0.0,0.0,0.0,0.0,0.0,0.0,0.0,0.0,0.0,0.0,0.0,0.0,0.0,0.0,0.0,0.0,0.0,0.0,0.0,0.0,0.0,0.0,0.0,0.0,0.0,0.0,0.0,0.0,0.0,0.0,0.0,0.0,0.0,0.0,0.0,0.0,0.0,0.0,0.0,0.0,0.0,0.0,0.0,0.0,0.0,0.0,0.0,0.0,0.0,0.0,0.0,0.0,0.0,0.0,0.0,0.0,0.0,0.0,0.0,0.0,0.0,0.0,0.0,0.0,0.0,0.0,0.0,0.0,0.0,0.0,0.0,0.0,0.0,0.0,0.0,0.0,0.0,0.0,0.0,0.0,0.0,0.0,0.0,0.0,0.0,0.0,0.0,0.0,0.0,0.0,0.0,0.0,0.0,0.0,0.0,0.0,0.0,0.0,0.0,0.0,0.0,0.0,0.0,0.0,0.0,0.0,0.0,0.0,0.0,0.0,0.0,0.0,0.0,0.0,0.0,0.0,0.0,0.0,0.0,0.0,0.0,0.0,0.0,0.0,0.0,0.0,0.0,0.0,0.0,0.0,0.0,0.0,0.0,0.0,0.0,0.0,0.0,0.0,0.0,0.0,0.0,0.0,0.0,0.0,0.0,0.0,0.0,0.0,0.0,0.0,0.0,0.0,0.0,0.0,0.0,0.0,0.0,0.0,0.0,0.0,0.0,0.0,0.0,0.0,0.0,0.0,0.0,0.0,0.0,0.0,0.0,0.0,0.0,0.0,0.0,0.0,0.0,0.0,0.0,0.0,0.0,0.0,0.0,0.0,0.0,0.0,0.0,0.0,0.0,0.0,0.0,0.0,0.0,0.0,0.0,0.0,0.0,0.0,0.0,0.0,0.0,0.0,0.0,0.0,0.0,0.0,0.0,0.0,0.0,0.0,0.0,0.0,0.0,0.0,0.0,0.0,0.0,0.0,0.0,0.0,0.0,0.0,0.0,0.0,0.0,0.0,0.0,0.0,0.0,0.0,0.0,0.0,0.0,0.0,0.0,0.0,0.0,0.0,0.0,0.0,0.0,0.0,0.0,0.0,0.0,0.0,0.0,0.0,0.0,0.0,0.0,0.0,0.0,0.0,0.0,0.0,0.0,0.0,0.0,0.0,0.0,0.0,0.0,0.0,0.0,0.0,0.0,0.0,0.0,0.0,0.0,0.0,0.0,0.0,0.0,0.0,0.0,0.0,0.0,0.0,0.0,0.0,0.0,0.0,0.0,0.0,0.0,0.0,0.0,0.0,0.0,0.0,0.0,0.0,0.0,0.0,0.0,0.0,0.0,0.0,0.0,0.0,0.0,0.0,0.0,0.0,0.0,0.0,0.0,0.0,0.0,0.0,-0.2544,0.0,0.0,0.0,0.0,0.0,0.0,0.0,0.0,0.0,0.0,0.0,0.0,0.0,0.0,0.0,0.0,0.0,0.0,0.0,0.0,0.0,0.0,0.0,0.0,0.0,0.0,0.0,0.0,0.0,0.0,0.0,0.0,0.0,0.0,0.0,0.0,0.0,0.0,0.0,0.0,0.0,0.0,0.0,0.0,0.0,0.0,0.0,0.0,0.0,0.0,0.0,0.0,0.0,0.0,0.0,0.0,0.0,0.0,0.0,0.0,0.0,0.0,0.0,0.0,0.0,0.0,0.0,0.0,0.0,0.0,0.0,0.0,0.0,0.0,0.0,0.0,0.0,0.0,0.0,0.0,0.0,0.0,0.0,0.0,0.0,0.0,0.0,0.0,0.0,0.0,0.0,0.0,0.0,0.0,0.0,0.0,0.0,0.0,0.0,0.0,0.0,0.0,0.0,0.0,0.0,0.0,0.0,0.0,0.0,0.0,-0.5559,-0.4671,-0.5419,-0.5184,-0.3858,0.0,0.0,0.0,0.0,0.0,0.0,0.0,0.0,0.0,0.0,0.0,0.0,0.0,0.0,0.0,0.0,0.0,0.0,0.0,0.0,0.0,0.0,0.0,0.0,0.0,0.0,0.0,0.0,0.0,0.0,0.0,0.0,0.0,0.0,0.0,0.0,0.0,0.0,0.0,0.0,0.0,0.0,0.0,0.0,0.0,0.0,0.0,0.0,0.0,0.0,0.0,0.0,0.0,0.0,0.0,0.0,0.0,0.0,0.0,0.0,0.0,0.0,0.0,0.0,0.0,0.0,0.0,0.0,0.0,0.0,0.0,0.0,0.0,0.0,0.0,0.0,0.0,0.0,0.0,0.0,0.0,0.0,0.0,0.0,0.0,0.0,0.0,0.0,0.0,0.0,0.0,0.0,0.0,0.0,0.0,0.0,0.0,0.0,0.0,0.0,0.0,0.0,0.0,0.0,0.0,0.0,0.0,0.0,0.0,0.0,0.0,0.0,-0.5355,-0.5011,-0.4629,0.0,0.0,0.0,0.0,0.0,0.0,0.0,0.0,0.0,0.0,0.0,0.0,0.0,0.0,0.0,0.0,0.0,0.0,0.0,0.0,0.0,0.0,0.0,0.0,0.0,0.0,0.0,0.0,0.0,0.0,0.0,0.0,0.0,0.0,0.0,0.0,0.0,0.0,0.0,0.0,0.0,0.0,0.0,0.0,0.0,0.0,0.0,0.0,0.0,0.0,0.0,0.0,0.0,0.0,0.0,0.0,0.0,0.0,0.0,0.0,0.0,0.0,0.0,0.0,0.0,0.0,0.0,0.0,0.0,0.0,0.0,0.0,0.0,0.0,0.0,0.0,0.0,0.0,0.0,0.0,0.0,0.0,0.0,0.0,0.0,0.0,0.0,0.0,0.0,0.0,0.0,0.0,0.0,0.0,0.0,0.0,0.0,0.0,0.0,0.0,0.0,0.0,0.0,0.0,0.0,0.0,0.0,0.0,0.0,0.0,-0.4913,-0.4981,-0.4677,0.0,-0.3591,0.0,0.0,0.0,0.0,0.0,0.0,0.0,0.0,0.0,0.0,0.0,0.0,0.0,0.0,0.0,0.0,0.0,0.0,0.0,0.0,0.0,0.0,0.0,0.0,0.0,0.0,0.0,0.0,0.0,0.0,0.0,0.0,0.0,0.0,0.0,0.0,0.0,0.0,0.0,0.0,0.0,0.0,0.0,0.0,0.0,0.0,0.0,0.0,0.0,0.0,0.0,0.0,0.0,0.0,0.0,0.0,0.0,0.0,0.0,0.0,0.0,0.0,0.0,0.0,0.0,0.0,0.0,0.0,0.0,0.0,0.0,0.0,0.0,0.0,0.0,0.0,0.0,0.0,0.0,0.0,0.0,0.0,0.0,0.0,0.0,0.0,0.0,0.0,0.0,0.0,0.0,0.0,0.0,0.0,0.0,0.0,0.0,0.0,0.0,0.0,0.0,0.0,0.0,0.0,0.0,0.0,0.0,0.0,0.0,0.0,-0.4208,-0.4187,-0.3832,-0.3418,0.0,0.0,0.0,0.0,0.0,0.0,0.0,0.0,0.0,0.0,0.0,0.0,0.0,0.0,0.0,0.0,0.0,0.0,0.0,0.0,0.0,0.0,0.0,0.0,0.0,0.0,0.0,0.0,0.0,0.0,0.0,0.0,0.0,0.0,0.0,0.0,0.0,0.0,0.0,0.0,0.0,0.0,0.0,0.0,0.0,0.0,0.0,0.0,0.0,0.0,0.0,0.0,0.0,0.0,0.0,0.0,0.0,0.0,0.0,0.0,0.0,0.0,0.0,0.0,0.0,0.0,0.0,0.0,0.0,0.0,0.0,0.0,0.0,0.0,0.0,0.0,0.0,0.0,0.0,0.0,0.0,0.0,0.0,0.0,0.0,0.0,0.0,0.0,0.0,0.0,0.0,0.0,0.0,0.0,0.0,0.0,0.0,0.0,0.0,0.0,0.0,0.0,0.0,0.0,0.0,0.0,0.0,0.0,0.0,0.0,-0.3758,-0.3542,-0.334,-0.3023,-0.2725,-0.2502,0.0,0.0,0.0,0.0,0.0,0.0,0.0,0.0,0.0,0.0,0.0,0.0,0.0,0.0,0.0,0.0,0.0,0.0,0.0,0.0,0.0,0.0,0.0,0.0,0.0,0.0,0.0,0.0,0.0,0.0,0.0,0.0,0.0,0.0,0.0,0.0,0.0,0.0,0.0,0.0,0.0,0.0,0.0,0.0,0.0,0.0,0.0,0.0,0.0,0.0,0.0,0.0,0.0,0.0,0.0,0.0,0.0,0.0,0.0,0.0,0.0,0.0,0.0,0.0,0.0,0.0,0.0,0.0,0.0,0.0,0.0,0.0,0.0,0.0,0.0,0.0,0.0,0.0,0.0,0.0,0.0,0.0,0.0,0.0,0.0,0.0,0.0,0.0,0.0,0.0,0.0,0.0,0.0,0.0,0.0,0.0,0.0,0.0,0.0,0.0,0.0,0.0,0.0,0.0,0.0,0.0,0.0,0.0,-0.371,-0.3323,-0.2912,-0.2485,-0.2307,-0.2128,0.0,0.0,0.0,0.0,0.0,0.0,0.0,0.0,0.0,0.0,0.0,0.0,0.0,0.0,0.0,0.0,0.0,0.0,0.0,0.0,0.0,0.0,0.0,0.0,0.0,0.0,0.0,0.0,0.0,0.0,0.0,0.0,0.0,0.0,0.0,0.0,0.0,0.0,0.0,0.0,0.0,0.0,0.0,0.0,0.0,0.0,0.0,0.0,0.0,0.0,0.0,0.0,0.0,0.0,0.0,0.0,0.0,0.0,0.0,0.0,0.0,0.0,0.0,0.0,0.0,0.0,0.0,0.0,0.0,0.0,0.0,0.0,0.0,0.0,0.0,0.0,0.0,0.0,0.0,0.0,0.0,0.0,0.0,0.0,0.0,0.0,0.0,0.0,0.0,0.0,0.0,0.0,0.0,0.0,0.0,0.0,0.0,0.0,0.0,0.0,0.0,0.0,0.0,0.0,0.0,0.0,0.0,0.0,0.0,-0.3372,-0.2778,-0.2324,-0.2048,-0.1803,-0.1651,0.0,0.0,0.0,0.0,0.0,0.0,0.0,0.0,0.0,0.0,0.0,0.0,0.0,0.0,0.0,0.0,0.0,0.0,0.0,0.0,0.0,0.0,0.0,0.0,0.0,0.0,0.0,0.0,0.0,0.0,0.0,0.0,0.0,0.0,0.0,0.0,0.0,0.0,0.0,0.0,0.0,0.0,0.0,0.0,0.0,0.0,0.0,0.0,0.0,0.0,0.0,0.0,0.0,0.0,0.0,0.0,0.0,0.0,0.0,0.0,0.0,0.0,0.0,0.0,0.0,0.0,0.0,0.0,0.0,0.0,0.0,0.0,0.0,0.0,0.0,0.0,0.0,0.0,0.0,0.0,0.0,0.0,0.0,0.0,0.0,0.0,0.0,0.0,0.0,0.0,0.0,0.0,0.0,0.0,0.0,0.0,0.0,0.0,0.0,0.0,0.0,0.0,0.0,0.0,0.0,0.0,0.0,0.0,0.0,-0.2966,0.0,-0.1891,-0.1718,-0.1455,-0.1319,0.0,0.0,0.0,0.0,0.0,0.0,0.0,0.0,0.0,0.0,0.0,0.0,0.0,0.0,0.0,0.0,0.0,0.0,0.0,0.0,0.0,0.0,0.0,0.0,0.0,0.0,0.0,0.0,0.0,0.0,0.0,0.0,0.0,0.0,0.0,0.0,0.0,0.0,0.0,0.0,0.0,0.0,0.0,0.0,0.0,0.0,0.0,0.0,0.0,0.0,0.0,0.0,0.0,0.0,0.0,0.0,0.0,0.0,0.0,0.0,0.0,0.0,0.0,0.0,0.0,0.0,0.0,0.0,0.0,0.0,0.0,0.0,0.0,0.0,0.0,0.0,0.0,0.0,0.0,0.0,0.0,0.0,0.0,0.0,0.0,0.0,0.0,0.0,0.0,0.0,0.0,0.0,0.0,0.0,0.0,0.0,0.0,0.0,0.0,0.0,0.0,0.0,0.0,0.0,0.0,0.0,0.0,0.0,-0.3239,-0.2538,-0.2048,-0.1696,-0.1502,-0.1296,-0.1161,0.0,0.0,0.0,0.0,0.0,0.0,0.0,0.0,0.0,0.0,0.0,0.0,0.0,0.0,0.0,0.0,0.0,0.0,0.0,0.0,0.0,0.0,0.0,0.0,0.0,0.0,0.0,0.0,0.0,0.0,0.0,0.0,0.0,0.0,0.0,0.0,0.0,0.0,0.0,0.0,0.0,0.0,0.0,0.0,0.0,0.0,0.0,0.0,0.0,0.0,0.0,0.0,0.0,0.0,0.0,0.0,0.0,0.0,0.0,0.0,0.0,0.0,0.0,0.0,0.0,0.0,0.0,0.0,0.0,0.0,0.0,0.0,0.0,0.0,0.0,0.0,0.0,0.0,0.0,0.0,0.0,0.0,0.0,0.0,0.0,0.0,0.0,0.0,0.0,0.0,0.0,0.0,0.0,0.0,0.0,0.0,0.0,0.0,0.0,0.0,0.0,0.0,0.0,0.0,0.0,0.0,0.0,0.0,0.0,-0.2451,-0.1978,-0.1626,-0.1433,-0.1139,-0.1027,0.0,0.0,0.0,0.0,0.0,0.0,0.0,0.0,0.0,0.0,0.0,0.0,0.0,0.0,0.0,0.0,0.0,0.0,0.0,0.0,0.0,0.0,0.0,0.0,0.0,0.0,0.0,0.0,0.0,0.0,0.0,0.0,0.0,0.0,0.0,0.0,0.0,0.0,0.0,0.0,0.0,0.0,0.0,0.0,0.0,0.0,0.0,0.0,0.0,0.0,0.0,0.0,0.0,0.0,0.0,0.0,0.0,0.0,0.0,0.0,0.0,0.0,0.0,0.0,0.0,0.0,0.0,0.0,0.0,0.0,0.0,0.0,0.0,0.0,0.0,0.0,0.0,0.0,0.0,0.0,0.0,0.0,0.0,0.0,0.0,0.0,0.0,0.0,0.0,0.0,0.0,0.0,0.0,0.0,0.0,0.0,0.0,0.0,0.0,0.0,0.0,0.0,0.0,0.0,0.0,0.0,0.0,0.0,0.0,-0.2669,-0.2115,-0.1708,-0.1563,-0.1223,-0.1076,-0.1174,0.0,0.0,0.0,0.0,0.0,0.0,0.0,0.0,0.0,0.0,0.0,0.0,0.0,0.0,0.0,0.0,0.0,0.0,0.0,0.0,0.0,0.0,0.0,0.0,0.0,0.0,0.0,0.0,0.0,0.0,0.0,0.0,0.0,0.0,0.0,0.0,0.0,0.0,0.0,0.0,0.0,0.0,0.0,0.0,0.0,0.0,0.0,0.0,0.0,0.0,0.0,0.0,0.0,0.0,0.0,0.0,0.0,0.0,0.0,0.0,0.0,0.0,0.0,0.0,0.0,0.0,0.0,0.0,0.0,0.0,0.0,0.0,0.0,0.0,0.0,0.0,0.0,0.0,0.0,0.0,0.0,0.0,0.0,0.0,0.0,0.0,0.0,0.0,0.0,0.0,0.0,0.0,0.0,0.0,0.0,0.0,0.0,0.0,0.0,0.0,0.0,0.0,0.0,0.0,0.0,0.0,0.0,0.0,-0.3142,-0.243,-0.1973,-0.1808,-0.1478,-0.1315,0.0,0.0,0.0,0.0,0.0,0.0,0.0,0.0,0.0,0.0,0.0,0.0,0.0,0.0,0.0,0.0,0.0,0.0,0.0,0.0,0.0,0.0,0.0,0.0,0.0,0.0,0.0,0.0,0.0,0.0,0.0,0.0,0.0,0.0,0.0,0.0,0.0,0.0,0.0,0.0,0.0,0.0,0.0,0.0,0.0,0.0,0.0,0.0,0.0,0.0,0.0,0.0,0.0,0.0,0.0,0.0,0.0,0.0,0.0,0.0,0.0,0.0,0.0,0.0,0.0,0.0,0.0,0.0,0.0,0.0,0.0,0.0,0.0,0.0,0.0,0.0,0.0,0.0,0.0,0.0,0.0,0.0,0.0,0.0,0.0,0.0,0.0,0.0,0.0,0.0,0.0,0.0,0.0,0.0,0.0,0.0,0.0,0.0,0.0,0.0,0.0,0.0,0.0,0.0,0.0,0.0,0.0,0.0,0.0,-0.3808,-0.3123,-0.2437,-0.1825,-0.1483,-0.1315,0.0,0.0,0.0,0.0,0.0,0.0,0.0,0.0,0.0,0.0,0.0,0.0,0.0,0.0,0.0,0.0,0.0,0.0,0.0,0.0,0.0,0.0,0.0,0.0,0.0,0.0,0.0,0.0,0.0,0.0,0.0,0.0,0.0,0.0,0.0,0.0,0.0,0.0,0.0,0.0,0.0,0.0,0.0,0.0,0.0,0.0,0.0,0.0,0.0,0.0,0.0,0.0,0.0,0.0,0.0,0.0,0.0,0.0,0.0,0.0,0.0,0.0,0.0,0.0,0.0,0.0,0.0,0.0,0.0,0.0,0.0,0.0,0.0,0.0,0.0,0.0,0.0,0.0,0.0,0.0,0.0,0.0,0.0,0.0,0.0,0.0,0.0,0.0,0.0,0.0,0.0,0.0,0.0,0.0,0.0,0.0,0.0,0.0,0.0,0.0,0.0,0.0,0.0,0.0,0.0,0.0,0.0,0.0,-0.4013,-0.4005,-0.332,-0.2676,-0.2058,-0.1773,-0.1556,0.0,0.0,0.0,0.0,0.0,0.0,0.0,0.0,0.0,0.0,0.0,0.0,0.0,0.0,0.0,0.0,0.0,0.0,0.0,0.0,0.0,0.0,0.0,0.0,0.0,0.0,0.0,0.0,0.0,0.0,0.0,0.0,0.0,0.0,0.0,0.0,0.0,0.0,0.0,0.0,0.0,0.0,0.0,0.0,0.0,0.0,0.0,0.0,0.0,0.0,0.0,0.0,0.0,0.0,0.0,0.0,0.0,0.0,0.0,0.0,0.0,0.0,0.0,0.0,0.0,0.0,0.0,0.0,0.0,0.0,0.0,0.0,0.0,0.0,0.0,0.0,0.0,0.0,0.0,0.0,0.0,0.0,0.0,0.0,0.0,0.0,0.0,0.0,0.0,0.0,0.0,0.0,0.0,0.0,0.0,0.0,0.0,0.0,0.0,0.0,0.0,0.0,0.0,0.0,0.0,0.0,0.0,0.0,-0.4135,-0.3948,-0.329,-0.2796,-0.2432,-0.2224,-0.1941,0.0,0.0,0.0,0.0,0.0,0.0,0.0,0.0,0.0,0.0,0.0,0.0,0.0,0.0,0.0,0.0,0.0,0.0,0.0,0.0,0.0,0.0,0.0,0.0,0.0,0.0,0.0,0.0,0.0,0.0,0.0,0.0,0.0,0.0,0.0,0.0,0.0,0.0,0.0,0.0,0.0,0.0,0.0,0.0,0.0,0.0,0.0,0.0,0.0,0.0,0.0,0.0,0.0,0.0,0.0,0.0,0.0,0.0,0.0,0.0,0.0,0.0,0.0,0.0,0.0,0.0,0.0,0.0,0.0,0.0,0.0,0.0,0.0,0.0,0.0,0.0,0.0,0.0,0.0,0.0,0.0,0.0,0.0,0.0,0.0,0.0,0.0,0.0,0.0,0.0,0.0,0.0,0.0,0.0,0.0,0.0,0.0,0.0,0.0,0.0,0.0,0.0,0.0,0.0,0.0,0.0,0.0,0.0,-0.441,-0.4202,-0.3721,-0.3201,-0.2714,-0.2221,-0.1868,0.0,0.0,0.0,0.0,0.0,0.0,0.0,0.0,0.0,0.0,0.0,0.0,0.0,0.0,0.0,0.0,0.0,0.0,0.0,0.0,0.0,0.0,0.0,0.0,0.0,0.0,0.0,0.0,0.0,0.0,0.0,0.0,0.0,0.0,0.0,0.0,0.0,0.0,0.0,0.0,0.0,0.0,0.0,0.0,0.0,0.0,0.0,0.0,-0.3634,0.0,0.0,0.0,0.0,0.0,0.0,0.0,0.0,0.0,0.0,0.0,0.0,0.0,0.0,0.0,0.0,0.0,0.0,0.0,0.0,0.0,0.0,0.0,0.0,0.0,0.0,0.0,0.0,0.0,0.0,0.0,0.0,0.0,0.0,0.0,0.0,0.0,0.0,0.0,0.0,0.0,0.0,0.0,0.0,0.0,0.0,0.0,0.0,0.0,0.0,0.0,0.0,0.0,0.0,0.0,0.0,0.0,0.0,0.0,-0.4379,-0.4155,-0.3757,-0.3312,-0.2801,-0.2346,-0.2009,0.0,0.0,0.0,0.0,0.0,0.0,0.0,0.0,0.0,0.0,0.0,0.0,0.0,0.0,0.0,0.0,0.0,0.0,0.0,0.0,0.0,0.0,0.0,0.0,0.0,0.0,0.0,0.0,0.0,0.0,0.0,0.0,0.0,0.0,0.0,0.0,0.0,0.0,0.0,0.0,0.0,0.0,0.0,0.0,0.0,0.0,0.0,0.0,0.0,0.0,0.0,0.0,0.0,0.0,0.0,0.0,0.0,0.0,0.0,0.0,0.0,0.0,0.0,0.0,0.0,0.0,0.0,0.0,0.0,0.0,0.0,0.0,0.0,0.0,0.0,0.0,0.0,0.0,0.0,0.0,0.0,0.0,0.0,0.0,0.0,0.0,0.0,0.0,0.0,0.0,0.0,0.0,0.0,0.0,0.0,0.0,0.0,0.0,0.0,0.0,0.0,0.0,0.0,0.0,0.0,0.0,0.0,-0.4712,-0.4231,-0.3928,-0.3649,-0.3274,-0.2815,-0.2577,-0.2242,-0.1776,0.0,0.0,0.0,0.0,0.0,0.0,0.0,0.0,0.0,0.0,0.0,0.0,0.0,0.0,0.0,0.0,0.0,0.0,0.0,0.0,0.0,0.0,0.0,0.0,0.0,0.0,0.0,0.0,0.0,0.0,0.0,0.0,0.0,0.0,0.0,0.0,0.0,0.0,-0.6751,-0.6268,0.0,0.0,0.0,0.0,0.0,0.0,0.0,0.0,-0.3377,0.0,0.0,0.0,0.0,0.0,0.0,0.0,0.0,0.0,0.0,0.0,0.0,0.0,0.0,0.0,0.0,0.0,0.0,0.0,0.0,0.0,0.0,0.0,0.0,0.0,0.0,0.0,0.0,0.0,0.0,0.0,0.0,0.0,0.0,0.0,0.0,0.0,0.0,0.0,0.0,0.0,0.0,0.0,0.0,0.0,0.0,0.0,0.0,0.0,0.0,0.0,0.0,0.0,0.0,0.0,0.0,-0.4969,-0.4594,-0.4146,-0.3665,-0.3611,-0.334,-0.2815,-0.2782,-0.2513,-0.2047,0.0,0.0,0.0,0.0,0.0,0.0,0.0,0.0,0.0,0.0,0.0,0.0,0.0,0.0,0.0,0.0,0.0,0.0,0.0,0.0,0.0,0.0,0.0,0.0,0.0,0.0,0.0,0.0,0.0,0.0,0.0,0.0,0.0,0.0,0.0,0.0,0.0,0.0,0.0,-0.6268,-0.5975,0.0,0.0,0.0,0.0,0.0,0.0,0.0,0.0,-0.2694,0.0,0.0,0.0,0.0,0.0,0.0,0.0,0.0,0.0,0.0,0.0,0.0,0.0,0.0,0.0,0.0,0.0,0.0,0.0,0.0,0.0,0.0,0.0,0.0,0.0,0.0,0.0,0.0,0.0,0.0,0.0,0.0,0.0,0.0,0.0,0.0,0.0,0.0,0.0,0.0,0.0,0.0,0.0,0.0,0.0,0.0,0.0,0.0,0.0,0.0,0.0,0.0,0.0,0.0,0.0,-0.496,-0.4372,-0.3927,-0.365,-0.3541,-0.3334,-0.2977,-0.2849,-0.265,0.0,0.0,0.0,0.0,0.0,0.0,0.0,0.0,0.0,0.0,0.0,0.0,0.0,0.0,0.0,0.0,0.0,0.0,0.0,0.0,0.0,0.0,0.0,0.0,0.0,0.0,0.0,0.0,0.0,0.0,0.0,0.0,0.0,0.0,0.0,0.0,0.0,0.0,0.0,0.0,-0.6237,-0.5952,-0.5734,0.0,0.0,0.0,0.0,0.0,0.0,-0.3142,-0.2632,0.0,0.0,0.0,0.0,0.0,0.0,0.0,0.0,0.0,0.0,0.0,0.0,0.0,0.0,0.0,0.0,0.0,0.0,0.0,0.0,0.0,0.0,0.0,0.0,0.0,0.0,0.0,0.0,0.0,0.0,0.0,0.0,0.0,0.0,0.0,0.0,0.0,0.0,0.0,0.0,0.0,0.0,0.0,0.0,0.0,0.0,0.0,0.0,0.0,0.0,0.0,0.0,0.0,0.0,0.0,-0.4977,-0.4159,-0.3682,-0.356,-0.3419,-0.322,-0.2995,-0.2845,-0.2704,0.0,0.0,0.0,0.0,0.0,0.0,0.0,0.0,0.0,0.0,0.0,0.0,0.0,0.0,0.0,0.0,0.0,0.0,0.0,0.0,0.0,0.0,0.0,0.0,0.0,0.0,0.0,0.0,0.0,0.0,0.0,0.0,0.0,0.0,0.0,0.0,0.0,0.0,0.0,0.0,0.0,-0.5928,-0.5734,-0.5302,0.0,0.0,0.0,0.0,-0.3667,-0.3047,0.0,0.0,0.0,0.0,0.0,0.0,0.0,0.0,0.0,0.0,0.0,0.0,0.0,0.0,0.0,0.0,0.0,0.0,0.0,0.0,0.0,0.0,0.0,0.0,0.0,0.0,0.0,0.0,0.0,0.0,0.0,0.0,0.0,0.0,0.0,0.0,0.0,0.0,0.0,0.0,0.0,0.0,0.0,0.0,0.0,0.0,0.0,0.0,0.0,0.0,0.0,0.0,0.0,0.0,0.0,0.0,-0.4734,-0.4128,-0.3555,-0.3104,-0.3106,-0.2967,-0.2592,-0.2679,-0.2605,0.0,0.0,0.0,0.0,0.0,0.0,0.0,0.0,0.0,0.0,0.0,0.0,0.0,0.0,0.0,0.0,0.0,0.0,0.0,0.0,0.0,0.0,0.0,0.0,0.0,0.0,0.0,0.0,0.0,0.0,0.0,0.0,0.0,0.0,0.0,0.0,0.0,0.0,0.0,0.0,0.0,-0.589,-0.5811,-0.5302,-0.4788,0.0,0.0,-0.3635,-0.3307,-0.2646,0.0,0.0,0.0,0.0,0.0,0.0,0.0,0.0,0.0,0.0,0.0,0.0,0.0,0.0,0.0,0.0,0.0,0.0,0.0,0.0,0.0,0.0,0.0,0.0,0.0,0.0,0.0,0.0,0.0,0.0,0.0,0.0,0.0,0.0,0.0,0.0,0.0,0.0,0.0,0.0,0.0,0.0,0.0,0.0,0.0,0.0,0.0,0.0,0.0,0.0,0.0,0.0,0.0,0.0,0.0,-0.5375,-0.4866,-0.4231,-0.3675,-0.3173,-0.3013,-0.2834,-0.2672,-0.2636,-0.2543,0.0,0.0,0.0,0.0,0.0,0.0,0.0,0.0,0.0,0.0,0.0,0.0,0.0,0.0,0.0,0.0,0.0,0.0,0.0,0.0,0.0,0.0,0.0,0.0,0.0,0.0,0.0,0.0,0.0,0.0,0.0,0.0,0.0,0.0,0.0,0.0,0.0,0.0,0.0,0.0,0.0,0.0,-0.5578,-0.5201,0.0,0.0,0.0,-0.3737,-0.3274,0.0,0.0,0.0,0.0,0.0,0.0,0.0,0.0,0.0,0.0,0.0,0.0,0.0,0.0,0.0,0.0,0.0,0.0,0.0,0.0,0.0,0.0,0.0,0.0,0.0,0.0,0.0,0.0,0.0,0.0,0.0,0.0,0.0,0.0,0.0,0.0,0.0,0.0,0.0,0.0,0.0,0.0,0.0,0.0,0.0,0.0,0.0,0.0,0.0,0.0,0.0,0.0,0.0,0.0,0.0,0.0,0.0,-0.4996,-0.4329,-0.3733,-0.3219,-0.2883,-0.2699,-0.2646,-0.2573,0.0,0.0,0.0,0.0,0.0,0.0,0.0,0.0,0.0,0.0,0.0,0.0,0.0,0.0,0.0,0.0,0.0,0.0,0.0,0.0,0.0,0.0,0.0,0.0,0.0,0.0,0.0,-0.2703,0.0,0.0,0.0,0.0,0.0,0.0,0.0,0.0,0.0,0.0,0.0,0.0,0.0,0.0,-0.5488,-0.5443,-0.5222,-0.5012,0.0,0.0,-0.4059,-0.3479,-0.3,-0.2679,0.0,0.0,0.0,0.0,0.0,0.0,0.0,0.0,0.0,0.0,0.0,0.0,0.0,0.0,0.0,0.0,0.0,0.0,0.0,0.0,0.0,0.0,0.0,0.0,0.0,0.0,0.0,0.0,0.0,0.0,0.0,0.0,0.0,0.0,0.0,0.0,0.0,0.0,0.0,0.0,0.0,0.0,0.0,0.0,0.0,0.0,0.0,0.0,0.0,0.0,0.0,0.0,0.0,0.0,0.0,-0.4914,-0.4322,-0.3654,-0.2967,-0.2657,-0.2426,-0.2257,-0.2416,-0.2436,0.0,0.0,0.0,0.0,0.0,0.0,0.0,0.0,0.0,0.0,0.0,0.0,0.0,0.0,0.0,0.0,0.0,0.0,0.0,0.0,0.0,0.0,0.0,0.0,0.0,0.0,0.0,0.0,0.0,0.0,0.0,0.0,0.0,0.0,0.0,0.0,0.0,0.0,0.0,0.0,0.0,-0.5518,-0.5567,-0.5547,-0.5496,0.0,-0.5061,-0.469,-0.4058,-0.3255,-0.2646,-0.2444,0.0,0.0,0.0,0.0,0.0,0.0,0.0,0.0,0.0,0.0,0.0,0.0,0.0,0.0,0.0,0.0,0.0,0.0,0.0,0.0,0.0,0.0,0.0,0.0,0.0,0.0,0.0,0.0,0.0,0.0,0.0,0.0,0.0,0.0,0.0,0.0,0.0,0.0,0.0,0.0,0.0,0.0,0.0,0.0,0.0,0.0,0.0,0.0,0.0,0.0,0.0,0.0,0.0,-0.6384,-0.5451,-0.4669,-0.3922,-0.3232,-0.2856,-0.2609,-0.2444,-0.2464,-0.2469,0.0,0.0,0.0,0.0,0.0,0.0,0.0,0.0,0.0,0.0,0.0,0.0,0.0,0.0,0.0,0.0,0.0,0.0,0.0,0.0,0.0,0.0,0.0,0.0,0.0,0.0,0.0,0.0,-0.2275,-0.2103,-0.2116,0.0,0.0,0.0,0.0,0.0,0.0,0.0,0.0,0.0,0.0,-0.5644,-0.5682,-0.5627,0.0,0.0,-0.5242,-0.5027,-0.467,-0.37,-0.2977,-0.2848,-0.2911,0.0,0.0,0.0,0.0,0.0,0.0,0.0,0.0,0.0,0.0,0.0,0.0,0.0,0.0,0.0,0.0,0.0,0.0,0.0,0.0,0.0,0.0,0.0,0.0,0.0,0.0,0.0,0.0,0.0,0.0,0.0,0.0,0.0,0.0,0.0,0.0,0.0,0.0,0.0,0.0,0.0,0.0,0.0,0.0,0.0,0.0,0.0,0.0,0.0,0.0,0.0,0.0,-0.6666,-0.5686,-0.4877,-0.4152,-0.3483,-0.3084,-0.2816,-0.2693,-0.266,-0.2546,0.0,0.0,0.0,0.0,0.0,0.0,0.0,0.0,0.0,0.0,0.0,0.0,0.0,0.0,0.0,0.0,0.0,0.0,0.0,0.0,0.0,0.0,0.0,0.0,0.0,0.0,0.0,0.0,-0.2366,-0.2296,-0.2288,0.0,0.0,0.0,0.0,0.0,0.0,0.0,0.0,0.0,0.0,-0.5724,-0.573,-0.5713,-0.5669,-0.5517,-0.5402,-0.5292,-0.5115,-0.4099,-0.3321,-0.3265,0.0,0.0,0.0,0.0,0.0,0.0,0.0,0.0,0.0,0.0,0.0,0.0,0.0,0.0,0.0,0.0,0.0,0.0,0.0,0.0,0.0,0.0,0.0,0.0,0.0,0.0,0.0,0.0,0.0,0.0,-0.4356,0.0,0.0,0.0,0.0,0.0,0.0,0.0,0.0,0.0,0.0,0.0,0.0,0.0,0.0,0.0,0.0,0.0,0.0,0.0,0.0,0.0,0.0,-0.6424,-0.5428,-0.494,-0.4332,-0.3612,-0.3267,-0.3027,-0.2914,-0.2893,-0.2747,-0.2422,0.0,0.0,0.0,0.0,0.0,0.0,0.0,0.0,0.0,0.0,0.0,0.0,0.0,0.0,0.0,0.0,0.0,0.0,0.0,0.0,0.0,0.0,0.0,0.0,0.0,0.0,-0.2698,-0.2627,-0.2617,0.0,0.0,0.0,0.0,0.0,0.0,0.0,0.0,0.0,0.0,-0.5811,-0.5791,-0.5797,-0.5925,-0.5905,-0.5707,-0.5701,-0.5577,-0.5328,-0.4303,-0.3609,0.0,0.0,0.0,0.0,0.0,0.0,0.0,0.0,0.0,0.0,0.0,0.0,0.0,0.0,0.0,0.0,0.0,0.0,0.0,0.0,0.0,0.0,0.0,0.0,0.0,0.0,0.0,-0.4318,-0.4352,0.0,0.0,0.0,0.0,0.0,0.0,0.0,0.0,0.0,0.0,0.0,-0.6143,-0.6234,0.0,0.0,0.0,0.0,0.0,0.0,0.0,0.0,0.0,0.0,0.0,0.0,-0.6521,-0.5867,-0.5022,-0.4321,-0.3808,-0.3457,-0.3225,-0.3089,-0.2955,-0.2694,-0.2217,0.0,0.0,0.0,0.0,0.0,0.0,0.0,0.0,0.0,0.0,0.0,0.0,0.0,0.0,0.0,0.0,0.0,0.0,0.0,0.0,0.0,0.0,0.0,0.0,0.0,-0.2647,0.0,0.0,0.0,0.0,0.0,0.0,0.0,0.0,0.0,0.0,0.0,-0.5848,-0.589,-0.5996,-0.6013,-0.5935,-0.5967,-0.589,0.0,0.0,0.0,0.0,0.0,0.0,0.0,0.0,0.0,0.0,0.0,0.0,0.0,0.0,-0.5063,-0.4802,-0.5093,-0.5454,-0.5528,0.0,0.0,0.0,0.0,0.0,0.0,0.0,0.0,0.0,0.0,0.0,0.0,0.0,0.0,-0.4769,0.0,-0.4934,0.0,0.0,0.0,0.0,0.0,0.0,0.0,0.0,-0.641,-0.6459,-0.655,-0.655,-0.6636,0.0,-0.6668,-0.6712,0.0,0.0,0.0,0.0,0.0,0.0,0.0,0.0,-0.6368,-0.5871,-0.4971,-0.4357,-0.4021,-0.3679,-0.3406,-0.3317,-0.301,-0.2606,-0.2114,-0.1776,-0.149,0.0,0.0,0.0,0.0,0.0,0.0,0.0,0.0,0.0,0.0,0.0,0.0,0.0,0.0,0.0,0.0,0.0,0.0,0.0,0.0,0.0,0.0,0.0,-0.2489,0.0,0.0,0.0,0.0,0.0,0.0,0.0,0.0,0.0,-0.5537,-0.5813,-0.5983,-0.5899,-0.5927,-0.5884,-0.5761,0.0,0.0,0.0,0.0,0.0,0.0,0.0,-0.3796,-0.3626,-0.3751,-0.3972,-0.4148,-0.4635,-0.5072,-0.5371,0.0,0.0,-0.5265,-0.5506,-0.5723,-0.5723,-0.5723,-0.5674,-0.5683,-0.5941,-0.6132,0.0,0.0,0.0,0.0,0.0,0.0,0.0,0.0,-0.5174,-0.513,0.0,-0.5475,0.0,0.0,0.0,0.0,0.0,-0.6046,0.0,0.0,-0.641,-0.653,-0.6811,-0.6817,-0.6951,-0.7176,-0.6933,-0.685,-0.6904,-0.6885,0.0,0.0,0.0,0.0,0.0,0.0,-0.5947,-0.5503,-0.4835,-0.443,-0.4274,-0.3826,-0.3565,-0.3462,-0.2973,-0.2513,-0.2114,-0.178,-0.1449,-0.1127,-0.1172,0.0,0.0,0.0,0.0,0.0,0.0,0.0,0.0,0.0,0.0,0.0,0.0,0.0,0.0,0.0,0.0,0.0,0.0,0.0,0.0,-0.2286,0.0,0.0,0.0,0.0,0.0,0.0,0.0,0.0,0.0,0.0,-0.6862,-0.6275,-0.5763,-0.5679,0.0,0.0,0.0,0.0,-0.4955,-0.4828,-0.5077,-0.5154,-0.4661,-0.4428,-0.4147,-0.3708,0.0,0.0,-0.4424,-0.4771,-0.5159,-0.5593,-0.568,-0.5723,-0.5712,-0.5707,-0.5723,-0.5723,-0.5723,-0.5717,-0.5793,-0.599,-0.6179,-0.5116,0.0,0.0,0.0,0.0,-0.547,-0.5462,-0.5514,-0.5557,-0.5562,-0.5519,-0.5625,0.0,0.0,0.0,0.0,0.0,0.0,-0.6764,-0.6975,-0.6836,-0.6877,-0.7091,-0.7091,-0.7127,-0.72,-0.7127,-0.6987,-0.685,-0.6848,-0.6849,-0.6793,0.0,0.0,0.0,0.0,-0.5855,-0.5535,-0.4717,-0.421,-0.4016,-0.3597,-0.3274,-0.301,-0.2812,-0.255,-0.2253,-0.2021,-0.1755,-0.1455,-0.1324,0.0,0.0,0.0,0.0,0.0,0.0,0.0,0.0,0.0,0.0,0.0,0.0,0.0,0.0,0.0,0.0,0.0,0.0,0.0,-0.2014,-0.2081,-0.2337,0.0,0.0,0.0,0.0,0.0,0.0,0.0,0.0,0.0,-0.6428,-0.6185,-0.5857,0.0,0.0,-0.5198,-0.5088,-0.497,-0.4881,-0.4875,-0.4993,0.0,-0.4661,-0.4505,-0.4417,-0.4261,-0.4237,-0.4317,-0.4579,-0.4857,-0.5072,-0.5328,-0.555,-0.5723,-0.5723,-0.5723,-0.5723,-0.5723,-0.5723,-0.5723,-0.5717,-0.589,-0.6056,-0.5485,-0.5098,-0.5409,-0.5528,-0.5604,-0.5642,-0.5572,-0.5447,-0.5545,-0.5496,-0.5403,-0.5589,-0.5824,-0.6088,-0.6428,0.0,0.0,0.0,-0.7008,-0.72,-0.7104,-0.711,-0.7346,-0.7309,-0.7314,-0.7354,-0.7209,-0.7031,-0.6824,-0.6756,-0.6615,-0.6459,0.0,0.0,-0.6448,-0.6042,-0.5743,-0.5435,-0.4668,-0.4217,-0.4043,-0.3599,-0.3251,-0.3,-0.2891,-0.2753,-0.2472,-0.2215,-0.1968,-0.1698,-0.1426,-0.127,0.0,0.0,0.0,0.0,0.0,0.0,0.0,0.0,0.0,0.0,0.0,-0.2827,-0.2943,0.0,0.0,0.0,-0.2392,-0.2069,-0.2007,-0.2182,0.0,0.0,0.0,0.0,0.0,0.0,0.0,-0.5249,-0.5794,-0.6056,-0.5934,-0.5824,-0.5651,-0.5367,-0.5162,-0.4987,-0.4918,0.0,-0.4634,-0.4693,-0.4724,-0.4717,-0.4533,-0.4507,-0.4519,-0.4629,-0.4691,-0.4697,-0.4675,-0.4906,-0.5084,-0.5222,-0.5501,-0.5766,-0.5938,-0.5895,-0.5809,-0.5852,-0.5809,-0.5809,-0.5809,-0.5933,-0.6062,-0.5677,-0.5263,-0.5651,-0.5785,-0.5667,-0.5716,-0.5484,-0.5155,-0.5255,-0.5201,-0.5014,-0.5444,-0.5729,-0.579,-0.6286,0.0,-0.697,-0.6976,-0.7079,-0.7261,-0.7261,-0.7394,-0.7625,-0.7422,-0.7442,-0.7711,-0.7281,-0.6996,-0.6784,-0.6544,-0.6293,-0.6015,-0.6422,-0.6456,-0.6086,-0.5895,-0.5601,-0.5174,-0.4656,-0.4309,-0.4204,-0.3748,-0.3401,-0.3278,-0.3162,-0.2966,-0.2739,-0.24,-0.2132,-0.1886,-0.1559,-0.1332,-0.1295,0.0,0.0,0.0,0.0,0.0,0.0,0.0,0.0,0.0,0.0,0.0,0.0,0.0,0.0,0.0,-0.2535,0.0,-0.2332,-0.2465,0.0,0.0,0.0,-0.4058,-0.4802,-0.4974,-0.5223,-0.5646,0.0,0.0,-0.5457,-0.5348,-0.5313,-0.5466,-0.5098,-0.4812,-0.4771,-0.4527,-0.4385,-0.4415,-0.4407,-0.4403,-0.4407,-0.4446,-0.4625,-0.4901,-0.5128,-0.5141,-0.4855,-0.4952,-0.5153,-0.5277,-0.5538,-0.5826,-0.6288,-0.6153,-0.6019,-0.6019,-0.6019,-0.6019,-0.6019,-0.6105,-0.6184,-0.5855,-0.549,-0.5708,-0.5724,-0.558,-0.5631,-0.5562,-0.5486,-0.5543,-0.5486,-0.5436,-0.5595,-0.5958,-0.6491,-0.6707,-0.7076,-0.7489,-0.739,-0.7495,-0.7715,-0.7651,-0.7681,-0.7805,-0.7688,-0.7664,-0.7664,-0.741,-0.7095,-0.689,-0.6552,-0.6263,-0.5983,-0.5941,-0.5953,-0.6012,-0.5739,-0.5453,-0.5113,-0.4461,-0.3927,-0.3552,-0.3317,-0.3162,-0.3162,-0.312,-0.3046,-0.294,-0.2875,-0.265,-0.2349,-0.2037,-0.1687,-0.1387,-0.1166,0.0,0.0,0.0,0.0,0.0,0.0,0.0,0.0,0.0,-0.3872,-0.4003,0.0,-0.361,0.0,-0.306,-0.3119,-0.3343,-0.3155,0.0,0.0,-0.3823,-0.4179,-0.4767,-0.5135,-0.5429,-0.5615,-0.5887,-0.5806,-0.5152,-0.5012,-0.5046,-0.5155,-0.4793,-0.4507,-0.447,-0.4344,-0.4285,-0.4435,-0.4452,-0.4466,-0.4459,-0.4464,-0.468,-0.5128,-0.5242,-0.5259,-0.5157,-0.5192,-0.5227,-0.5407,-0.5717,-0.5963,-0.6096,-0.6196,-0.6288,-0.6331,-0.6288,-0.6239,-0.6062,-0.6099,-0.6179,-0.6009,-0.5677,-0.5791,-0.5734,-0.5628,-0.5681,-0.5582,-0.5403,-0.5567,-0.5513,-0.5403,-0.5513,-0.5891,-0.6381,-0.6554,-0.6928,-0.7467,-0.7467,-0.7634,-0.8008,-0.7949,-0.7943,-0.8008,-0.783,-0.7676,-0.7515,-0.7198,-0.686,-0.6535,-0.6293,-0.607,-0.5803,-0.5774,-0.5757,-0.5642,-0.5508,-0.5313,-0.5057,-0.4436,-0.3975,-0.366,-0.3529,-0.3485,-0.3447,-0.3444,-0.3406,-0.3331,-0.3275,-0.3141,-0.2802,-0.2431,-0.2059,-0.1744,-0.1344,-0.1198,0.0,0.0,0.0,0.0,0.0,0.0,0.0,0.0,0.0,0.0,0.0,-0.4036,-0.3164,-0.3322,-0.3622,-0.4,-0.3703,-0.3592,-0.388,-0.4094,-0.4403,-0.4813,-0.5108,-0.5392,-0.569,-0.5877,-0.5677,-0.4846,-0.4736,-0.4791,-0.4908,-0.4641,-0.4456,-0.4481,-0.4398,-0.4375,-0.4505,-0.4463,-0.4463,-0.4463,-0.4688,-0.5018,-0.5407,-0.5517,-0.5562,-0.5484,-0.5562,-0.562,-0.5711,-0.6039,-0.6206,-0.6061,-0.6196,-0.641,-0.641,-0.641,-0.6325,-0.6196,-0.6233,-0.6276,-0.6064,-0.585,-0.5791,-0.5791,-0.5791,-0.585,-0.5572,-0.5234,-0.5513,-0.5458,-0.5179,-0.5458,-0.5732,-0.6,-0.6119,-0.6559,-0.7257,-0.7311,-0.758,-0.8115,-0.8168,-0.8168,-0.8109,-0.7836,-0.7515,-0.7257,-0.6869,-0.6503,-0.6115,-0.5925,-0.5719,-0.5548,-0.5712,-0.5591,-0.519,-0.5242,-0.514,-0.4898,-0.4499,-0.4192,-0.4064,-0.3972,-0.3928,-0.3928,-0.3928,-0.388,-0.3744,-0.37,-0.3568,-0.3306,-0.286,-0.2464,-0.2205,-0.1668,-0.1517,0.0,-0.2325,0.0,0.0,0.0,0.0,0.0,0.0,0.0,0.0,-0.4765,-0.4351,-0.3222,-0.3541,-0.3978,-0.444,-0.4121,-0.3971,-0.4151,-0.4372,-0.4588,-0.4824,-0.4959,-0.5238,-0.5626,-0.5631,-0.5293,-0.4574,-0.4463,-0.4519,-0.4577,-0.4563,-0.4494,-0.457,-0.4567,-0.4453,-0.4463,-0.4463,-0.4463,-0.4519,-0.4963,-0.5407,-0.5736,-0.5837,-0.5878,-0.5877,-0.6048,-0.6176,-0.618,-0.6423,-0.6521,-0.6152,-0.6298,-0.6416,-0.641,-0.641,-0.641,-0.6373,-0.6367,-0.641,-0.6223,-0.595,-0.585,-0.5791,-0.5791,-0.5896,-0.5841,-0.5681,-0.574,-0.5681,-0.5513,-0.5407,-0.5567,-0.6,-0.6059,-0.644,-0.7139,-0.7252,-0.7467,-0.7777,-0.7895,-0.7895,-0.7777,-0.7622,-0.7413,-0.7139,-0.6707,-0.6367,-0.6166,-0.5786,-0.5578,-0.5486,-0.539,-0.5211,-0.4972,0.0,0.0,0.0,-0.4236,-0.406,-0.3972,-0.3928,-0.3928,-0.3928,-0.402,0.0,-0.402,-0.402,-0.3928,-0.3748,-0.3303,0.0,0.0,0.0,0.0,0.0,0.0,0.0,0.0,0.0,0.0,0.0,-0.4028,-0.4258,-0.4645,-0.4615,-0.447,-0.4201,-0.4294,-0.4402,-0.4512,-0.4416,-0.4389,-0.4416,-0.4474,-0.4542,-0.4739,-0.4743,-0.4853,-0.5066,-0.4849,-0.4574,-0.4187,-0.4076,-0.4076,-0.4132,-0.4353,-0.4408,-0.4301,-0.4408,-0.4463,-0.4463,-0.4463,-0.4463,-0.4463,-0.4963,-0.5462,-0.5941,-0.5996,-0.6032,-0.6421,-0.6523,-0.6612,-0.6702,-0.6867,-0.6934,-0.6675,-0.6535,-0.6465,-0.6416,-0.641,-0.641,-0.641,-0.641,-0.641,-0.6701,0.0,-0.6109,-0.6005,0.0,-0.6064,-0.6064,-0.5959,-0.5955,-0.5841,-0.5686,-0.572,-0.5819,-0.6,-0.595,-0.6273,-0.6923,-0.6982,-0.7198,-0.7622,-0.7729,-0.7729,-0.7563,-0.7461,-0.7241,-0.6869,-0.644,-0.6119,-0.6009,-0.5586,-0.5374,-0.5428,-0.5387,-0.5246,-0.5009,-0.4823,-0.4596,-0.4412,-0.4321,-0.4233,-0.4187,-0.4311,-0.4264,-0.4187,-0.4319,0.0,0.0,0.0,0.0,0.0,0.0,0.0,0.0,-0.2802,0.0,-0.2376,-0.2278,-0.2347,-0.2656,-0.2864,-0.3162,-0.3653,-0.3817,-0.4128,-0.4577,-0.4574,-0.4463,-0.4463,-0.4353,-0.4242,-0.4242,-0.4239,-0.4245,-0.4356,-0.4356,-0.4411,-0.4415,-0.4467,-0.4522,-0.4625,-0.4405,-0.4018,-0.3633,-0.3691,-0.3802,-0.3802,-0.4024,-0.4128,-0.4076,-0.4298,-0.4463,-0.4463,-0.4463,-0.4463,-0.4519,-0.4963,-0.5517,-0.5996,-0.6154,-0.6376,-0.6815,-0.7031,-0.7095,-0.7192,-0.7326,-0.7327,-0.7218,-0.7124,-0.6995,-0.6562,-0.641,-0.641,-0.641,-0.641,-0.641,-0.7187,-0.6756,-0.6367,-0.6218,-0.6228,-0.6178,-0.6173,-0.6173,0.0,0.0,0.0,-0.601,-0.6048,-0.6,-0.59,-0.6114,-0.6647,-0.6707,-0.6998,-0.7475,-0.7583,-0.7578,-0.7426,-0.7307,-0.7009,-0.6593,-0.6168,-0.59,-0.574,-0.5462,-0.5301,-0.5297,-0.5458,-0.5416,-0.5124,-0.4755,-0.457,-0.4525,-0.4533,-0.4517,-0.4546,-0.4731,-0.4674,-0.4501,-0.4633,-0.4637,-0.4508,-0.4535,-0.4504,-0.4369,-0.4191,-0.392,-0.3588,-0.3246,-0.2943,-0.2675,-0.2471,-0.2394,-0.2627,-0.2635,-0.2858,-0.3416,-0.3577,-0.3907,-0.4353,-0.4408,-0.4405,-0.4353,-0.4021,-0.3855,-0.3858,-0.391,-0.4021,-0.4135,-0.4135,-0.4135,-0.4135,-0.4135,-0.419,-0.4298,-0.4076,-0.3577,-0.3074,-0.3244,-0.3471,-0.3469,-0.3633,-0.3799,-0.3852,-0.4187,-0.4463,-0.4463,-0.4463,-0.4463,-0.4574,-0.4963,-0.5517,-0.6,-0.6268,-0.6544,-0.7031,-0.7359,-0.7521,-0.7557,-0.767,-0.7658,-0.7616,-0.7676,-0.7524,-0.6585,-0.641,-0.641,-0.641,-0.641,-0.641,-0.7348,-0.7182,-0.6465,-0.6253,-0.6332,-0.6228,-0.6173,-0.6173,-0.6059,-0.6,-0.595,-0.5876,-0.5927,-0.6,-0.6005,-0.6168,-0.6436,-0.6652,-0.6918,-0.7217,-0.7397,-0.7284,-0.7064,-0.7054,-0.6733,-0.6119,-0.59,-0.5736,-0.5622,-0.5407,-0.5301,-0.5301,-0.5297,-0.5263,-0.508,-0.4873,-0.4755,-0.4731,-0.4562,-0.457,-0.4763,-0.4792,-0.4719,-0.4509,-0.4637,-0.4642,-0.4512,-0.4504,-0.4572,-0.4629,-0.4299,-0.4107,-0.4062,-0.3733,-0.3321,-0.2877,-0.2611,-0.2397,-0.2294,-0.2296,-0.2465,-0.2914,-0.3135,-0.3411,-0.4021,-0.4076,-0.3965,-0.3749,-0.3411,-0.3241,-0.3241,-0.3574,-0.3796,-0.3852,-0.3965,-0.3965,-0.3855,-0.3852,-0.391,-0.4021,-0.3744,-0.3188,-0.2575,-0.2633,-0.2856,-0.2963,-0.313,-0.3352,-0.3855,-0.4135,-0.4304,-0.4463,-0.4463,-0.4463,-0.4574,-0.4967,-0.5407,-0.5795,-0.6109,-0.6485,-0.7149,-0.7419,-0.7568,-0.7794,-0.7842,-0.7842,-0.7848,-0.7848,-0.7428,-0.6641,-0.641,-0.641,-0.641,-0.641,-0.641,-0.7883,-0.745,-0.695,-0.6686,-0.6663,-0.6386,-0.6282,-0.6173,-0.6119,-0.6114,-0.6128,-0.6174,-0.6165,-0.6119,-0.6,-0.6119,-0.6337,-0.6449,-0.6615,-0.6803,-0.6998,-0.6939,-0.6744,-0.6649,-0.6431,-0.6052,-0.578,-0.5677,-0.5618,-0.5407,-0.5301,-0.5301,-0.5301,-0.5259,-0.5088,-0.4995,-0.4958,-0.4954,-0.4877,-0.4877,-0.4954,-0.5052,-0.4919,-0.4698,-0.4782,-0.4743,-0.4512,-0.4642,-0.4692,-0.4587,-0.4536,-0.4404,-0.4187,-0.3893,-0.352,-0.3072,-0.2742,-0.2465,-0.224,-0.2354,-0.2579,-0.2749,-0.2858,-0.3077,-0.3463,-0.3519,-0.3411,-0.3137,-0.2968,-0.291,-0.2912,-0.3188,-0.3463,-0.3577,-0.3633,-0.3635,-0.3577,-0.3463,-0.3463,-0.3466,-0.3246,-0.2912,-0.2521,-0.2296,-0.2294,-0.246,-0.2687,-0.3079,-0.3691,-0.3913,-0.4076,-0.4408,-0.4463,-0.4463,-0.4519,-0.4967,-0.5411,-0.5736,-0.6055,-0.6485,-0.7144,-0.7467,-0.7681,-0.7848,-0.7901,-0.7901,-0.7901,-0.7701,-0.72,-0.6639,-0.641,-0.641,-0.641,-0.641,-0.641,-0.848,-0.7877,-0.7551,-0.7241,-0.6928,-0.6657,-0.644,-0.6228,-0.6228,-0.6228,-0.6196,-0.6337,-0.6346,-0.6248,-0.6128,-0.6243,-0.6418,-0.6379,-0.6479,-0.6596,-0.6736,-0.6675,-0.6462,-0.6348,-0.6178,-0.5997,-0.5652,-0.5513,-0.5513,-0.5352,-0.5301,-0.5301,-0.5301,-0.5229,-0.5145,-0.5145,-0.5141,-0.5141,-0.5141,-0.5141,-0.5145,-0.5229,-0.5198,-0.4897,-0.4973,-0.4868,-0.4612,-0.4764,-0.4763,-0.4578,-0.4622,-0.4519,-0.4247,-0.3908,-0.3574,-0.313,-0.28,-0.2521,-0.2184,-0.241,-0.2577,-0.2579,-0.2579,-0.2633,-0.2854,-0.2852,-0.2742,-0.2521,-0.2577,-0.2579,-0.2633,-0.2856,-0.3077,-0.3246,-0.3302,-0.3302,-0.3246,-0.3077,-0.2963,-0.2907,-0.2689,-0.2521,-0.2298,-0.1961,-0.1847,-0.2073,-0.241,-0.2856,-0.3357,-0.3577,-0.3965,-0.4349,-0.4463,-0.4463,-0.4519,-0.4794,-0.5242,-0.5631,-0.595,-0.6376,-0.6977,-0.7408,-0.7676,-0.7788,-0.7848,-0.7901,-0.7859,-0.7532,-0.7066,-0.655,-0.641,-0.641,-0.641,-0.641,-0.641,-0.8692,-0.8521,-0.8328,-0.7794,-0.7085,-0.6928,-0.6657,-0.6436,-0.6381,-0.6332,-0.6237,-0.6251,-0.636,-0.6431,-0.644,-0.6562,-0.6699,-0.6639,-0.6689,-0.6804,-0.6688,-0.6563,-0.6425,-0.6241,-0.5944,-0.567,-0.5441,-0.5356,-0.5356,-0.5301,-0.5301,-0.5301,-0.5301,-0.5289,-0.5269,-0.5273,-0.5273,-0.5273,-0.516,-0.516,-0.5277,-0.5293,-0.5259,-0.5116,-0.5103,-0.5013,-0.4743,-0.4677,-0.4715,-0.4801,-0.4487,-0.4257,-0.4155,-0.3855,-0.3469,-0.3132,-0.2742,-0.2354,-0.2071,-0.2071,-0.2127,-0.2184,-0.2128,-0.2128,-0.2238,-0.2071,-0.1905,-0.1908,-0.2074,-0.2184,-0.2296,-0.2521,-0.2745,-0.2745,-0.2965,-0.3021,-0.2802,-0.2635,-0.2464,-0.2296,-0.2184,-0.1903,-0.1345,-0.1346,-0.1572,-0.1796,-0.2188,-0.2631,-0.3019,-0.3355,-0.3802,-0.4298,-0.4463,-0.4463,-0.4519,-0.4519,-0.4853,-0.5297,-0.5677,-0.6164,-0.6652,-0.709,-0.7419,-0.7628,-0.7788,-0.7848,-0.7799,-0.752,-0.7042,-0.6574,-0.641,-0.641,-0.641,-0.641,-0.641,-0.912,-0.8784,-0.858,-0.8049,-0.7461,-0.7306,-0.7085,-0.6815,-0.6712,-0.6603,-0.651,-0.6633,-0.6624,-0.6482,-0.6604,-0.6777,-0.6846,-0.6784,-0.6769,-0.675,-0.669,-0.6561,-0.6411,-0.6133,-0.5899,-0.5754,-0.5434,-0.5301,-0.5301,-0.5301,-0.5301,-0.5301,-0.5301,-0.5301,-0.5301,-0.5301,-0.5242,-0.5187,-0.5128,-0.5069,-0.4963,-0.5018,-0.4989,-0.4838,-0.4819,-0.4738,-0.4592,-0.4607,-0.4591,-0.4509,-0.4277,-0.4133,-0.3962,-0.3522,-0.319,-0.2963,-0.241,-0.202,-0.1908,-0.1793,-0.1794,-0.185,-0.1794,-0.1793,-0.1959,-0.168,-0.1457,-0.1346,-0.1345,-0.1513,-0.1681,-0.2071,-0.2296,-0.2296,-0.2462,-0.2517,-0.241,-0.2188,-0.2018,-0.1959,-0.1792,-0.1457,-0.1066,-0.1066,-0.129,-0.1628,-0.1965,-0.2298,-0.2796,-0.3132,-0.3522,-0.4021,-0.4353,-0.446,-0.4463,-0.4463,-0.4743,-0.5132,-0.5407,-0.5732,-0.6381,-0.6825,-0.7149,-0.7413,-0.758,-0.7741,-0.7901,-0.7508,-0.7042,-0.6611,-0.641,-0.641,-0.641,-0.641,-0.641,-0.9394,-0.9061,-0.8778,-0.8362,-0.7937,-0.7783,-0.7568,-0.73,-0.7144,-0.7019,-0.6924,-0.7038,-0.7007,-0.6841,-0.6926,-0.6988,-0.7039,-0.699,-0.6934,-0.6732,-0.6741,-0.6609,-0.6384,-0.6059,-0.5888,-0.5835,-0.547,-0.5301,-0.5301,-0.5301,-0.5301,-0.5301,-0.5301,-0.5301,-0.5301,-0.5301,-0.5242,-0.5128,-0.5069,-0.4904,-0.4688,-0.4625,-0.4627,-0.4581,-0.4566,-0.4512,-0.4401,-0.4404,-0.4357,-0.4097,-0.3975,-0.3802,-0.3574,-0.3186,-0.2854,-0.2573,-0.2074,-0.1741,-0.1684,-0.1572,-0.1515,-0.1515,-0.1459,-0.1514,-0.1568,-0.1401,-0.1122,-0.0954,-0.0897,-0.101,-0.1178,-0.1625,-0.1847,-0.1903,-0.2017,-0.2071,-0.2018,-0.1794,-0.1684,-0.1624,-0.1401,-0.1178,-0.101,-0.101,-0.1066,-0.1459,-0.1684,-0.1964,-0.2517,-0.2852,-0.3241,-0.3744,-0.4132,-0.4353,-0.4463,-0.4463,-0.4688,-0.4967,-0.5187,-0.5517,-0.6109,-0.644,-0.6825,-0.7031,-0.7252,-0.7444,-0.7635,-0.7357,-0.6877,-0.6522,-0.6331,-0.6416,-0.641,-0.641,-0.641,-0.951,-0.9382,-0.9113,-0.8804,-0.8521,-0.8421,-0.8103,-0.767,-0.7515,-0.7428,-0.7413,-0.7486,-0.7547,-0.7603,-0.7432,-0.7438,-0.7423,-0.7302,-0.7116,-0.6876,-0.6741,-0.6613,-0.6392,-0.6063,-0.5892,-0.5864,-0.5547,-0.5313,-0.5301,-0.5301,-0.5301,-0.5301,-0.5301,-0.5301,-0.5301,-0.5301,-0.5242,-0.5128,-0.4959,-0.4791,-0.4519,-0.4184,-0.4184,-0.4443,-0.4505,-0.4433,-0.4429,-0.4168,-0.3953,-0.3788,-0.3403,-0.3074,-0.2963,-0.2687,-0.2355,-0.1909,-0.1684,-0.1515,-0.1347,-0.1346,-0.129,-0.129,-0.1178,-0.1178,-0.129,-0.1122,-0.0954,-0.0897,-0.0897,-0.0898,-0.101,-0.1346,-0.1628,-0.1628,-0.1737,-0.1737,-0.1628,-0.1514,-0.1347,-0.129,-0.1121,-0.101,-0.1234,-0.1066,-0.1066,-0.129,-0.1515,-0.1738,-0.2127,-0.2571,-0.3074,-0.3524,-0.3913,-0.4135,-0.4408,-0.4463,-0.4519,-0.4684,-0.5018,-0.5352,-0.5677,-0.6005,-0.6381,-0.6701,-0.6918,-0.7106,-0.7312,-0.7098,-0.662,-0.6307,-0.6324,-0.6373,-0.6367,-0.641,-0.641,-0.9628,-0.9721,-0.9613,-0.9451,-0.9167,-0.8831,-0.8427,-0.8156,-0.7889,-0.7767,-0.7841,-0.7932,-0.8051,-0.8156,-0.8122,-0.7911,-0.7661,-0.7531,-0.74,-0.7073,-0.6942,-0.6745,-0.6584,-0.6227,-0.6051,-0.586,-0.5636,-0.5406,-0.5305,-0.5301,-0.5301,-0.5301,-0.5301,-0.5301,-0.5301,-0.5301,-0.5242,-0.5128,-0.4956,-0.4684,-0.4301,-0.4021,-0.3855,-0.3802,-0.3858,-0.3913,-0.3913,-0.3747,-0.3524,-0.3352,-0.2965,-0.2631,-0.2464,-0.213,-0.1796,-0.1515,-0.1347,-0.1234,-0.1178,-0.1066,-0.101,-0.1066,-0.101,-0.101,-0.101,-0.0954,-0.0897,-0.0897,-0.0897,-0.0897,-0.0954,-0.1122,-0.129,-0.129,-0.1402,-0.1458,-0.1403,-0.129,-0.1178,-0.1234,-0.1066,-0.0954,-0.1066,-0.1122,-0.1122,-0.1178,-0.129,-0.1626,-0.2073,-0.2519,-0.3021,-0.358,-0.391,-0.4132,-0.4463,-0.4463,-0.4519,-0.4519,-0.4739,-0.5018,-0.5348,-0.5622,-0.6,-0.6218,-0.6431,-0.6642,-0.6849,-0.6645,-0.6173,-0.618,-0.6205,-0.6288,-0.6276,-0.6386,-0.6386,-0.9904,-1.007,-1.0043,-0.9875,-0.9556,-0.9133,-0.8831,-0.85,-0.8309,-0.8275,-0.836,-0.8404,-0.8476,-0.8566,-0.85,-0.8322,-0.7927,-0.7797,-0.7531,-0.7204,-0.7007,-0.6815,-0.658,-0.6361,-0.6059,-0.5872,-0.5636,-0.5406,-0.5313,-0.5301,-0.5301,-0.5301,-0.5301,-0.5301,-0.5301,-0.5301,-0.5242,-0.5128,-0.4956,-0.468,-0.4245,-0.3913,-0.358,-0.3357,-0.3302,-0.336,-0.336,-0.3246,-0.3021,-0.2742,-0.2521,-0.2242,-0.1905,-0.1626,-0.1347,-0.1234,-0.1122,-0.1066,-0.101,-0.0954,-0.0897,-0.0897,-0.0897,-0.0897,-0.0897,-0.0897,-0.0897,-0.0897,-0.0897,-0.0897,-0.0898,-0.101,-0.101,-0.1066,-0.1122,-0.1178,-0.1178,-0.1066,-0.1066,-0.1122,-0.101,-0.0954,-0.1066,-0.1178,-0.129,-0.1234,-0.1403,-0.1682,-0.2073,-0.2519,-0.2968,-0.3577,-0.3858,-0.4135,-0.4408,-0.4463,-0.4463,-0.4519,-0.4519,-0.4798,-0.5018,-0.5293,-0.5567,-0.5727,-0.5946,-0.6164,-0.6197,-0.6037,-0.6022,-0.6105,-0.6119,-0.6177,-0.6269,-0.6379,-0.6398,-1.0302,-1.0515,-1.0408,-1.008,-0.9681,-0.9432,-0.9112,-0.8798,-0.8715,-0.8682,-0.8739,-0.8641,-0.868,-0.8901,-0.863,-0.8517,-0.8322,-0.7927,-0.7531,-0.7199,-0.7007,-0.6749,-0.647,-0.6318,-0.6129,-0.5872,-0.547,-0.5313,-0.5301,-0.5301,-0.5301,-0.5301,-0.5301,-0.5301,-0.5301,-0.5301,-0.5242,-0.5128,-0.4959,-0.4684,-0.4193,-0.3805,-0.3469,-0.3132,-0.2912,-0.28,-0.2907,-0.28,-0.2519,-0.2127,-0.2076,-0.1797,-0.1346,-0.1178,-0.1122,-0.1066,-0.0954,-0.0898,-0.0897,-0.0898,-0.0897,-0.0897,-0.0897,-0.0898,-0.0898,-0.0897,-0.0897,-0.0897,-0.0898,-0.0954,-0.0954,-0.0954,-0.0954,-0.0898,-0.0954,-0.0954,-0.0898,-0.0897,-0.0897,-0.0954,-0.101,-0.1066,-0.1234,-0.1402,-0.1458,-0.1572,-0.1684,-0.1852,-0.2071,-0.2573,-0.3077,-0.3524,-0.3858,-0.4135,-0.4298,-0.4463,-0.4463,-0.4519,-0.4519,-0.4629,-0.4849,-0.5124,-0.5293,-0.5513,-0.5791,-0.5955,-0.6005,-0.5935,-0.6452,-0.6542,-0.6376,-0.6267,-0.6343,-0.6449,-0.641,-1.0697,-1.0739,-1.0879,-1.0471,-0.9704,-0.9388,-0.9007,-0.8612,-0.8534,-0.8588,-0.8782,-0.8673,-0.8726,-0.8913,-0.8765,-0.8641,-0.8452,-0.7922,-0.7596,-0.7396,-0.7077,-0.6815,-0.6597,-0.6416,-0.618,-0.5872,-0.547,-0.5301,-0.5305,-0.5305,-0.5301,-0.5301,-0.5309,-0.5301,-0.5309,-0.5301,-0.5301,-0.5242,-0.5014,-0.4736,-0.4411,-0.3858,-0.3416,-0.3132,-0.2856,-0.2689,-0.2631,-0.2464,-0.224,-0.2015,-0.1794,-0.1459,-0.1122,-0.0954,-0.0954,-0.0954,-0.0954,-0.0897,-0.0897,-0.0897,-0.0897,-0.0897,-0.0897,-0.0954,-0.1066,-0.0954,-0.0898,-0.0898,-0.1066,-0.1178,-0.1178,-0.1178,-0.1122,-0.0897,-0.0897,-0.0898,-0.0954,-0.0898,-0.101,-0.1178,-0.1403,-0.1628,-0.185,-0.1905,-0.1849,-0.1793,-0.185,-0.2017,-0.2352,-0.2685,-0.313,-0.3633,-0.3855,-0.4132,-0.4353,-0.4519,-0.4519,-0.457,-0.457,-0.4574,-0.4739,-0.4963,-0.5132,-0.5352,-0.5631,-0.574,-0.5736,-0.5955,-0.6386,-0.686,-0.6805,-0.6701,-0.6601,-0.652,-0.6446,-1.0834,-1.088,-1.097,-1.049,-0.9787,-0.9408,-0.8985,-0.8516,-0.8421,-0.8468,-0.8555,-0.8493,-0.8609,-0.8742,-0.8571,-0.8447,-0.8317,-0.7857,-0.7526,-0.733,-0.7003,-0.6745,-0.6597,-0.6404,-0.6176,-0.5888,-0.5588,-0.5394,-0.5394,-0.5398,-0.543,-0.5543,-0.5494,-0.5515,-0.5406,-0.5398,-0.5322,-0.5199,-0.4904,-0.4622,-0.4294,-0.3802,-0.336,-0.3079,-0.28,-0.2691,-0.2579,-0.241,-0.2184,-0.1905,-0.1572,-0.1178,-0.0898,-0.0897,-0.0897,-0.0897,-0.0897,-0.0897,-0.0897,-0.0954,-0.0954,-0.101,-0.101,-0.1122,-0.129,-0.1178,-0.1066,-0.1066,-0.1401,-0.1625,-0.1625,-0.1513,-0.1401,-0.1289,-0.1122,-0.1122,-0.1122,-0.1122,-0.1177,-0.1514,-0.1852,-0.2186,-0.2354,-0.2354,-0.2352,-0.2184,-0.2184,-0.235,-0.2687,-0.2963,-0.3408,-0.3744,-0.391,-0.4187,-0.4408,-0.4519,-0.4519,-0.4625,-0.468,-0.4684,-0.4794,-0.5018,-0.5242,-0.5513,-0.5791,-0.574,-0.5736,-0.5681,-0.5937,-0.6445,-0.7177,-0.697,-0.6759,-0.6534,-0.6447,-1.08,-1.0989,-1.0681,-1.0243,-0.9749,-0.9413,-0.8902,-0.8408,-0.8448,-0.8382,-0.8289,-0.8255,-0.8296,-0.8376,-0.8187,-0.8117,-0.8042,-0.7722,-0.7396,-0.7138,-0.6876,-0.6613,-0.6465,-0.6318,-0.6091,-0.5921,-0.5722,-0.5632,-0.5628,-0.5628,-0.5713,-0.5827,-0.5827,-0.5795,-0.5587,-0.5451,-0.5239,-0.5072,-0.4695,-0.4353,-0.3965,-0.3577,-0.319,-0.2916,-0.2747,-0.2691,-0.2635,-0.2577,-0.23,-0.1797,-0.1403,-0.1066,-0.0898,-0.0897,-0.0897,-0.0897,-0.0897,-0.0897,-0.0898,-0.101,-0.1066,-0.1122,-0.1234,-0.1403,-0.1572,-0.1458,-0.1402,-0.1458,-0.1906,-0.2184,-0.2128,-0.2015,-0.1846,-0.179,-0.1513,-0.1458,-0.1572,-0.1458,-0.1513,-0.1847,-0.2296,-0.2691,-0.2691,-0.2691,-0.2747,-0.2747,-0.2747,-0.291,-0.3074,-0.3411,-0.3691,-0.3858,-0.4021,-0.4187,-0.4408,-0.4519,-0.4574,-0.4791,-0.4901,-0.5014,-0.4963,-0.5183,-0.5513,-0.5786,-0.5891,-0.5845,-0.5791,-0.5841,-0.6277,-0.7063,-0.7355,-0.7144,-0.6924,-0.6657,-0.6453,-1.0703,-1.0238,-0.9894,-0.9487,-0.8971,-0.8836,-0.8494,-0.7998,-0.7995,-0.807,-0.8068,-0.8086,-0.8047,-0.8122,-0.8052,-0.7922,-0.7792,-0.7591,-0.733,-0.7012,-0.6806,-0.6613,-0.6379,-0.6237,-0.6186,-0.6109,-0.5896,-0.5819,-0.5815,-0.5815,-0.5848,-0.5884,-0.5791,-0.5687,-0.556,-0.5338,-0.5135,-0.4955,-0.4678,-0.4242,-0.3738,-0.3352,-0.3021,-0.2633,-0.2579,-0.2579,-0.2691,-0.2635,-0.2298,-0.1628,-0.129,-0.1066,-0.0898,-0.0897,-0.0897,-0.0897,-0.0897,-0.0897,-0.0898,-0.1066,-0.1122,-0.1234,-0.1458,-0.1626,-0.1849,-0.1736,-0.1849,-0.2073,-0.241,-0.2521,-0.2354,-0.2296,-0.2296,-0.224,-0.1959,-0.1847,-0.1961,-0.1849,-0.1792,-0.2127,-0.2854,-0.3079,-0.2914,-0.3081,-0.3304,-0.3246,-0.3302,-0.3413,-0.3633,-0.3685,-0.3965,-0.4024,-0.4135,-0.4242,-0.4353,-0.4463,-0.4625,-0.4901,-0.512,-0.5403,-0.5403,-0.5462,-0.5891,-0.6327,-0.6322,-0.6218,-0.6273,-0.6327,-0.7031,-0.7628,-0.7487,-0.7248,-0.7049,-0.6805,-0.6532,-1.006,-0.9658,-0.918,-0.8781,-0.8548,-0.8485,-0.817,-0.7858,-0.7731,-0.7728,-0.7772,-0.7787,-0.7787,-0.7787,-0.7792,-0.7727,-0.7596,-0.7461,-0.7269,-0.7073,-0.6806,-0.6613,-0.6392,-0.6298,-0.6221,-0.6199,-0.6051,-0.6006,-0.5936,-0.5879,-0.5914,-0.586,-0.579,-0.5689,-0.5555,-0.5286,-0.4977,-0.4752,-0.4365,-0.391,-0.3352,-0.3074,-0.2854,-0.2577,-0.2521,-0.2577,-0.28,-0.2798,-0.2464,-0.1905,-0.157,-0.129,-0.101,-0.0898,-0.0897,-0.0897,-0.0897,-0.0898,-0.101,-0.1178,-0.1347,-0.1514,-0.1794,-0.2074,-0.2184,-0.2127,-0.2127,-0.2575,-0.2691,-0.2747,-0.2798,-0.28,-0.2854,-0.2854,-0.2685,-0.2573,-0.2575,-0.235,-0.235,-0.2687,-0.3355,-0.3747,-0.3193,-0.3527,-0.3858,-0.3965,-0.3907,-0.4021,-0.4132,-0.4187,-0.4242,-0.4353,-0.4301,-0.4353,-0.4463,-0.4519,-0.4904,-0.5175,-0.5614,-0.5841,-0.59,-0.5896,-0.6273,-0.6647,-0.6696,-0.6696,-0.6756,-0.6923,-0.7359,-0.7694,-0.753,-0.7369,-0.7182,-0.689,-0.6623,-0.9139,-0.9139,-0.8404,-0.828,-0.835,-0.8231,-0.7957,-0.7722,-0.7712,-0.7647,-0.7526,-0.7526,-0.7526,-0.7526,-0.7591,-0.7526,-0.7526,-0.733,-0.7204,-0.7073,-0.6872,-0.6609,-0.6416,-0.6404,-0.6319,-0.6213,-0.6176,-0.605,-0.5927,-0.5863,-0.5872,-0.581,-0.5785,-0.5669,-0.5417,-0.5118,-0.4784,-0.4352,-0.3987,-0.3504,-0.2979,-0.2742,-0.2577,-0.241,-0.2577,-0.2798,-0.3021,-0.3021,-0.2796,-0.235,-0.2018,-0.157,-0.1178,-0.101,-0.0897,-0.0897,-0.0897,-0.0954,-0.1122,-0.1347,-0.1684,-0.185,-0.2242,-0.2633,-0.2689,-0.2577,-0.2631,-0.3021,-0.2912,-0.3026,-0.3302,-0.3357,-0.3357,-0.3357,-0.3471,-0.3411,-0.3244,-0.2968,-0.2914,-0.3188,-0.4018,-0.4132,-0.4024,-0.4027,-0.4411,-0.4739,-0.4629,-0.4515,-0.4574,-0.4629,-0.468,-0.4794,-0.4684,-0.4519,-0.4519,-0.4574,-0.5124,-0.5563,-0.605,-0.6386,-0.6445,-0.6554,-0.6815,-0.7031,-0.7079,-0.7246,-0.7359,-0.7574,-0.7794,-0.7818,-0.7715,-0.7532,-0.7279,-0.6981,-0.6684,-0.8571,-0.8425,-0.8021,-0.7897,-0.7852,-0.7792,-0.7722,-0.7526,-0.7526,-0.7526,-0.7526,-0.7526,-0.7526,-0.7526,-0.7526,-0.7526,-0.7526,-0.7461,-0.7269,-0.6942,-0.6806,-0.6613,-0.642,-0.642,-0.633,-0.6213,-0.6217,-0.609,-0.5894,-0.5683,-0.5643,-0.5606,-0.5352,-0.514,-0.497,-0.4669,-0.4293,-0.3901,-0.3574,-0.3131,-0.2655,-0.241,-0.2296,-0.2184,-0.2573,-0.3021,-0.3416,-0.3471,-0.3357,-0.3021,-0.2408,-0.1849,-0.1346,-0.1066,-0.0898,-0.0898,-0.0897,-0.0954,-0.1122,-0.1403,-0.1796,-0.2128,-0.2519,-0.2963,-0.3249,-0.3246,-0.3302,-0.3471,-0.3416,-0.3527,-0.3747,-0.3694,-0.3635,-0.3691,-0.3744,-0.3799,-0.3858,-0.3638,-0.3524,-0.3855,-0.4353,-0.468,-0.4353,-0.4467,-0.4853,-0.5352,-0.5348,-0.5069,-0.5069,-0.5124,-0.5124,-0.5179,-0.4959,-0.4794,-0.4684,-0.4849,-0.5454,-0.6055,-0.6598,-0.6869,-0.6928,-0.7041,-0.7198,-0.7413,-0.7521,-0.7687,-0.7741,-0.7794,-0.7848,-0.7901,-0.7877,-0.7659,-0.7363,-0.7072,-0.6793,-0.8052,-0.7917,-0.7772,-0.7647,-0.7591,-0.7596,-0.7596,-0.7526,-0.7526,-0.7526,-0.7526,-0.7526,-0.7526,-0.7526,-0.7526,-0.7526,-0.7526,-0.7526,-0.733,-0.7073,-0.6876,-0.6683,-0.642,-0.635,-0.6284,-0.6148,-0.6009,-0.5749,-0.5554,-0.5352,-0.515,-0.5017,-0.4821,-0.4622,-0.4425,-0.4156,-0.3813,-0.3456,-0.3175,-0.2783,-0.2362,-0.2199,-0.2128,-0.2183,-0.2629,-0.3132,-0.353,-0.3691,-0.3635,-0.3411,-0.2907,-0.2238,-0.168,-0.129,-0.1066,-0.101,-0.0954,-0.101,-0.1178,-0.1514,-0.1905,-0.2296,-0.2798,-0.319,-0.3471,-0.3635,-0.3802,-0.3802,-0.3913,-0.4079,-0.4187,-0.4024,-0.3968,-0.3968,-0.4076,-0.4187,-0.4242,-0.4024,-0.3913,-0.4187,-0.4519,-0.4739,-0.4794,-0.4904,-0.5285,-0.5782,-0.5786,-0.5563,-0.5614,-0.5618,-0.5513,-0.5458,-0.5238,-0.5018,-0.4904,-0.5179,-0.5891,-0.6544,-0.7246,-0.7354,-0.7408,-0.7467,-0.7574,-0.7628,-0.7735,-0.7794,-0.7848,-0.7901,-0.7901,-0.7901,-0.7829,-0.7689,-0.7522,-0.7243,-0.6969,-0.7666,-0.7666,-0.7526,-0.7526,-0.7526,-0.7526,-0.7526,-0.7526,-0.7526,-0.7526,-0.7526,-0.7526,-0.7526,-0.7526,-0.7526,-0.7526,-0.7526,-0.7461,-0.7265,-0.7073,-0.6811,-0.6618,-0.635,-0.6152,-0.5951,-0.6017,-0.5683,-0.5352,-0.502,-0.4758,-0.4492,-0.422,-0.4154,-0.4023,-0.3825,-0.3754,-0.3429,-0.3077,-0.2801,-0.2479,-0.2169,-0.205,-0.2074,-0.2296,-0.2631,-0.3077,-0.3471,-0.3691,-0.3744,-0.3744,-0.3297,-0.2738,-0.2127,-0.1625,-0.129,-0.1122,-0.0954,-0.101,-0.1289,-0.1625,-0.2015,-0.2465,-0.3079,-0.3471,-0.3694,-0.3913,-0.4079,-0.4187,-0.4298,-0.4408,-0.4463,-0.4353,-0.4249,-0.4249,-0.4408,-0.446,-0.4463,-0.4242,-0.4242,-0.4408,-0.4519,-0.4684,-0.5073,-0.5293,-0.5778,-0.6105,-0.6109,-0.6114,-0.6164,-0.6055,-0.5896,-0.5626,-0.5403,-0.5242,-0.5073,-0.5124,-0.5841,-0.6761,-0.7574,-0.7681,-0.7676,-0.7735,-0.7735,-0.7735,-0.7788,-0.7901,-0.7901,-0.7901,-0.7901,-0.7901,-0.7847,-0.7768,-0.7575,-0.7413,-0.7145,-0.7526,-0.7526,-0.7526,-0.7526,-0.7526,-0.7526,-0.7461,-0.7526,-0.7461,-0.7526,-0.7461,-0.7526,-0.7461,-0.7526,-0.7526,-0.7526,-0.7456,-0.733,-0.7199,-0.6942,-0.6683,-0.6416,-0.6148,-0.5822,-0.5488,-0.5286,-0.5153,-0.4888,-0.4486,-0.4156,-0.3892,-0.362,-0.3489,-0.3357,-0.3224,-0.3155,-0.2988,-0.272,-0.2448,-0.2249,-0.2129,-0.1945,-0.2018,-0.2354,-0.2577,-0.2912,-0.3302,-0.3527,-0.358,-0.3469,-0.3241,-0.2796,-0.2238,-0.185,-0.1515,-0.1178,-0.0954,-0.101,-0.129,-0.1624,-0.2073,-0.2633,-0.3193,-0.3635,-0.3913,-0.4187,-0.4298,-0.4408,-0.4408,-0.4463,-0.4463,-0.4463,-0.4463,-0.4463,-0.4463,-0.4463,-0.4463,-0.4463,-0.4353,-0.4463,-0.4574,-0.4798,-0.5293,-0.5732,-0.6159,-0.6485,-0.6544,-0.6603,-0.6598,-0.6381,-0.6105,-0.5837,-0.5567,-0.5407,-0.5246,-0.5297,-0.5732,-0.6707,-0.7408,-0.7676,-0.7729,-0.7842,-0.7848,-0.7842,-0.7848,-0.7901,-0.7901,-0.7901,-0.7901,-0.7901,-0.7859,-0.7864,-0.7689,-0.7546,-0.7309,-0.7526,-0.7456,-0.7396,-0.733,-0.733,-0.7199,-0.7204,-0.7199,-0.7204,-0.7204,-0.7199,-0.7199,-0.7265,-0.733,-0.733,-0.7396,-0.7396,-0.7269,-0.7073,-0.6876,-0.6552,-0.6218,-0.5881,-0.5554,-0.5093,-0.4761,-0.4492,-0.4289,-0.3887,-0.3558,-0.3291,-0.3088,-0.2956,-0.2889,-0.2757,-0.269,-0.2603,-0.2354,-0.221,-0.208,-0.2038,-0.1902,-0.2024,-0.2184,-0.241,-0.2633,-0.297,-0.3135,-0.3188,-0.3132,-0.291,-0.2575,-0.2183,-0.1903,-0.157,-0.1178,-0.101,-0.101,-0.129,-0.1625,-0.2071,-0.2635,-0.3251,-0.3694,-0.3968,-0.4242,-0.4463,-0.4463,-0.4463,-0.4463,-0.4463,-0.4463,-0.4463,-0.4463,-0.4463,-0.4463,-0.4463,-0.4463,-0.4463,-0.4519,-0.4574,-0.4908,-0.5732,-0.6168,-0.6544,-0.6761,-0.6923,-0.6982,-0.7036,-0.6652,-0.6213,-0.5837,-0.5513,-0.5293,-0.5187,-0.5352,-0.5622,-0.6544,-0.73,-0.7568,-0.7729,-0.7788,-0.7848,-0.7901,-0.7901,-0.7901,-0.7901,-0.7901,-0.7901,-0.7901,-0.7877,-0.7835,-0.7786,-0.7623,-0.7412,-0.7396,-0.7396,-0.7204,-0.7073,-0.7007,-0.6881,-0.6815,-0.6815,-0.6815,-0.6815,-0.6815,-0.6815,-0.6876,-0.7007,-0.7068,-0.7195,-0.7326,-0.7068,-0.6806,-0.6613,-0.6218,-0.5885,-0.555,-0.5289,-0.4897,-0.4431,-0.3964,-0.3625,-0.3422,-0.309,-0.2824,-0.2688,-0.2621,-0.2554,-0.2423,-0.2401,-0.2274,-0.2165,-0.2019,-0.1955,-0.1914,-0.185,-0.1852,-0.1961,-0.2073,-0.2242,-0.2464,-0.2631,-0.2685,-0.2573,-0.2464,-0.224,-0.1905,-0.1736,-0.1512,-0.1122,-0.101,-0.1122,-0.1346,-0.1681,-0.2127,-0.2689,-0.3246,-0.3635,-0.3968,-0.4242,-0.4463,-0.4463,-0.4463,-0.4463,-0.4463,-0.4463,-0.4463,-0.4463,-0.4463,-0.4463,-0.4463,-0.4463,-0.4463,-0.4519,-0.4574,-0.5073,-0.5845,-0.6332,-0.6707,-0.6977,-0.7144,-0.7144,-0.709,-0.6657,-0.6218,-0.5782,-0.5399,-0.5124,-0.5069,-0.5242,-0.5622,-0.6332,-0.6977,-0.7354,-0.7515,-0.7681,-0.7735,-0.7794,-0.7842,-0.7842,-0.7848,-0.7901,-0.7901,-0.7901,-0.7901,-0.7871,-0.7799,-0.7774,-0.7623,-0.7138,-0.6942,-0.6811,-0.6675,-0.6482,-0.642,-0.6486,-0.6416,-0.642,-0.6416,-0.642,-0.642,-0.6416,-0.6548,-0.6675,-0.6741,-0.6675,-0.6474,-0.621,-0.602,-0.562,-0.5352,-0.5153,-0.4824,-0.4561,-0.4167,-0.3763,-0.3362,-0.3092,-0.2757,-0.2423,-0.2354,-0.2287,-0.2285,-0.2271,-0.2172,-0.2138,-0.2053,-0.1956,-0.1875,-0.1832,-0.1752,-0.1798,-0.1852,-0.1852,-0.185,-0.1961,-0.2071,-0.2069,-0.1958,-0.1902,-0.1736,-0.1457,-0.1346,-0.1178,-0.1066,-0.1122,-0.1347,-0.1515,-0.1793,-0.2183,-0.2742,-0.319,-0.3522,-0.3855,-0.4187,-0.4463,-0.4463,-0.4463,-0.446,-0.446,-0.4463,-0.4463,-0.4463,-0.4463,-0.4463,-0.4463,-0.4463,-0.4463,-0.4574,-0.4629,-0.5293,-0.6014,-0.644,-0.6815,-0.7085,-0.7306,-0.7252,-0.709,-0.6603,-0.6114,-0.5622,-0.5289,-0.5011,-0.4959,-0.5073,-0.5462,-0.6114,-0.6598,-0.7079,-0.7246,-0.7359,-0.7568,-0.7622,-0.7676,-0.7788,-0.7848,-0.7901,-0.7901,-0.7901,-0.7901,-0.7901,-0.7895,-0.7817,-0.7786,-0.6688,-0.6613,-0.6346,-0.6148,-0.5951,-0.5888,-0.5822,-0.5822,-0.5822,-0.5822,-0.5826,-0.5822,-0.5888,-0.5951,-0.6148,-0.6218,-0.6148,-0.5947,-0.5752,-0.5624,-0.5223,-0.4954,-0.4691,-0.4561,-0.4428,-0.3897,-0.3629,-0.3362,-0.2958,-0.2622,-0.2356,-0.2288,-0.2218,-0.2197,-0.2178,-0.2143,-0.2044,-0.2,-0.1869,-0.1742,-0.1699,-0.1572,-0.1572,-0.1684,-0.1572,-0.1514,-0.1513,-0.1569,-0.1569,-0.1513,-0.1457,-0.1345,-0.1178,-0.1122,-0.101,-0.0954,-0.1122,-0.1347,-0.1572,-0.1849,-0.2238,-0.2685,-0.3079,-0.3411,-0.3799,-0.4076,-0.4135,-0.3971,-0.4132,-0.4298,-0.446,-0.4463,-0.4463,-0.4463,-0.4463,-0.4463,-0.4463,-0.4463,-0.4519,-0.4629,-0.4739,-0.5348,-0.59,-0.6386,-0.6756,-0.7085,-0.7252,-0.7198,-0.6928,-0.644,-0.5955,-0.5407,-0.5124,-0.4842,-0.4846,-0.4963,-0.5187,-0.5732,-0.6159,-0.6593,-0.6869,-0.7031,-0.7192,-0.7359,-0.7419,-0.758,-0.7794,-0.7901,-0.7901,-0.7901,-0.7901,-0.7901,-0.7901,-0.7895,-0.784,-0.6096,-0.5902,-0.5657,-0.5488,-0.5422,-0.5226,-0.5226,-0.5229,-0.5226,-0.5229,-0.5229,-0.5292,-0.5355,-0.5484,-0.562,-0.5686,-0.569,-0.5488,-0.5355,-0.516,-0.496,-0.4694,-0.4498,-0.4428,-0.4228,-0.3629,-0.3627,-0.3426,-0.3094,-0.2758,-0.2557,-0.249,-0.2356,-0.2254,-0.2141,-0.2103,-0.2003,-0.1858,-0.1763,-0.1665,-0.1522,-0.1403,-0.1403,-0.1403,-0.1346,-0.1234,-0.1234,-0.1234,-0.1234,-0.1178,-0.1122,-0.1066,-0.101,-0.0954,-0.0954,-0.0954,-0.1122,-0.1234,-0.1458,-0.1737,-0.2184,-0.2577,-0.291,-0.3241,-0.3577,-0.3744,-0.3635,-0.3416,-0.3749,-0.4079,-0.4408,-0.4463,-0.4463,-0.4463,-0.4463,-0.4463,-0.4463,-0.4463,-0.4519,-0.4574,-0.4739,-0.5018,-0.5622,-0.6164,-0.6647,-0.6972,-0.7139,-0.7144,-0.6712,-0.6223,-0.5845,-0.5356,-0.5073,-0.4846,-0.4736,-0.4849,-0.5077,-0.5352,-0.5778,-0.6105,-0.6381,-0.6598,-0.6756,-0.6928,-0.7095,-0.7365,-0.7574,-0.7741,-0.7901,-0.7901,-0.7901,-0.7901,-0.7901,-0.7901,-0.7871,-0.5193,-0.4593,-0.4652,-0.4749,-0.4815,-0.4691,-0.4755,-0.4809,-0.4821,-0.4821,-0.4827,-0.4897,-0.496,-0.509,-0.5156,-0.5153,-0.5153,-0.4957,-0.4827,-0.4628,-0.4431,-0.4367,-0.43,-0.4231,-0.4231,-0.3894,-0.3828,-0.3627,-0.3429,-0.3092,-0.2891,-0.2686,-0.2488,-0.238,-0.2247,-0.2053,-0.1862,-0.1736,-0.1649,-0.153,-0.1405,-0.1346,-0.1347,-0.1178,-0.1122,-0.1066,-0.0954,-0.0954,-0.0954,-0.0954,-0.0954,-0.0954,-0.0954,-0.0897,-0.0897,-0.0954,-0.1066,-0.1122,-0.1178,-0.157,-0.2076,-0.2521,-0.2798,-0.2905,-0.3132,-0.3132,-0.3023,-0.297,-0.336,-0.3858,-0.4187,-0.4353,-0.4356,-0.4463,-0.4463,-0.4463,-0.4463,-0.4463,-0.4519,-0.4519,-0.4684,-0.4963,-0.5293,-0.5891,-0.6485,-0.6864,-0.6977,-0.6982,-0.6544,-0.6055,-0.5736,-0.5352,-0.5069,-0.4791,-0.457,-0.4684,-0.4853,-0.5073,-0.5395,-0.5668,-0.5946,-0.6109,-0.6273,-0.649,-0.6657,-0.7031,-0.7354,-0.7521,-0.7687,-0.7848,-0.7901,-0.7901,-0.7901,-0.7901,-0.7901,-0.4488,-0.4128,-0.3977,-0.4077,-0.4261,-0.4198,-0.4243,-0.4375,-0.4381,-0.4429,-0.4498,-0.4498,-0.4567,-0.4631,-0.4631,-0.4628,-0.4561,-0.4561,-0.4498,-0.4431,-0.4364,-0.4233,-0.4167,-0.4167,-0.4167,-0.3961,-0.3894,-0.3761,-0.3498,-0.3286,-0.3226,-0.2958,-0.2613,-0.2346,-0.2207,-0.1987,-0.1674,-0.1534,-0.1403,-0.1234,-0.0897,-0.101,-0.1178,-0.1234,-0.101,-0.0954,-0.0898,-0.0897,-0.0897,-0.0897,-0.0897,-0.0897,-0.0897,-0.0897,-0.0897,-0.0897,-0.101,-0.0954,-0.101,-0.1346,-0.1794,-0.2017,-0.2237,-0.2404,-0.2573,-0.2573,-0.2633,-0.2745,-0.3079,-0.3577,-0.4021,-0.419,-0.4245,-0.4408,-0.4463,-0.4463,-0.4463,-0.4463,-0.4519,-0.4519,-0.4629,-0.4794,-0.5183,-0.5622,-0.6164,-0.6701,-0.6815,-0.682,-0.6322,-0.5887,-0.5567,-0.5352,-0.5069,-0.4794,-0.4574,-0.4574,-0.4632,-0.4794,-0.5066,-0.5289,-0.5508,-0.5517,-0.5677,-0.5946,-0.6164,-0.649,-0.6815,-0.7198,-0.7467,-0.7794,-0.7901,-0.7901,-0.7901,-0.7901,-0.7901,-0.3949,-0.3771,-0.3595,-0.3696,-0.387,-0.3875,-0.392,-0.4058,-0.4105,-0.4186,-0.43,-0.4303,-0.4303,-0.4303,-0.43,-0.43,-0.4367,-0.43,-0.43,-0.43,-0.43,-0.4233,-0.4167,-0.4167,-0.4167,-0.3961,-0.3894,-0.383,-0.3498,-0.3469,-0.3315,-0.3039,-0.2761,-0.2483,-0.2224,-0.1921,-0.1573,-0.1346,-0.1066,-0.0729,-0.0336,-0.0393,-0.0561,-0.0785,-0.0673,-0.0729,-0.0729,-0.0785,-0.0897,-0.0897,-0.0897,-0.0897,-0.0897,-0.0897,-0.0897,-0.0897,-0.0897,-0.0897,-0.101,-0.129,-0.1626,-0.1793,-0.1849,-0.1961,-0.2015,-0.2073,-0.2186,-0.2411,-0.2798,-0.3352,-0.391,-0.4079,-0.4245,-0.4408,-0.4463,-0.4463,-0.4463,-0.4463,-0.4463,-0.4519,-0.4629,-0.4743,-0.5073,-0.5458,-0.6005,-0.6436,-0.6598,-0.6544,-0.6218,-0.5782,-0.5403,-0.5183,-0.5014,-0.4794,-0.4574,-0.4574,-0.4574,-0.4629,-0.4794,-0.4956,-0.5124,-0.5128,-0.5242,-0.5513,-0.5727,-0.5946,-0.6223,-0.6549,-0.7144,-0.7794,-0.7741,-0.7622,-0.7901,-0.7848,-0.7848,-0.3604,-0.3591,-0.3604,-0.3729,-0.3843,-0.3753,-0.3814,-0.3952,-0.4056,-0.4164,-0.4254,-0.4268,-0.4268,-0.4265,-0.424,-0.4238,-0.4249,-0.4268,-0.4278,-0.4273,-0.4292,-0.4298,-0.43,-0.4233,-0.422,-0.4025,-0.3939,-0.3799,-0.3469,-0.3389,-0.3292,-0.3071,-0.2776,-0.2539,-0.245,-0.2031,-0.1519,-0.0954,-0.0617,-0.0224,0.0168,0.028,0.028,0.0056,-0.0112,-0.0168,-0.0393,-0.0673,-0.0785,-0.0897,-0.0897,-0.0897,-0.0897,-0.0897,-0.0897,-0.0897,-0.0897,-0.0897,-0.0898,-0.1347,-0.1514,-0.1514,-0.157,-0.1625,-0.1737,-0.1794,-0.1852,-0.202,-0.2631,-0.3297,-0.3744,-0.4033,-0.4209,-0.4386,-0.4504,-0.4507,-0.4514,-0.4463,-0.4463,-0.4463,-0.4632,-0.4802,-0.5073,-0.5403,-0.5845,-0.6168,-0.6332,-0.6273,-0.6,-0.5673,-0.5293,-0.5069,-0.4901,-0.4739,-0.4519,-0.4519,-0.4519,-0.4519,-0.4574,-0.4736,-0.4846,-0.4904,-0.5014,-0.5124,-0.5348,-0.5567,-0.5677,-0.5845,-0.6549,-0.7252,-0.7295,-0.7343,-0.7622,-0.7842,-0.7788,-0.3585,-0.3585,-0.3585,-0.3629,-0.3699,-0.3647,-0.3688,-0.3827,-0.3936,-0.402,-0.405,-0.4056,-0.4058,-0.4058,-0.4069,-0.4075,-0.408,-0.4162,-0.4181,-0.4186,-0.4243,-0.4295,-0.4295,-0.4265,-0.4183,-0.4067,-0.3978,-0.3744,-0.3421,-0.3326,-0.3194,-0.2979,-0.2671,-0.2397,-0.2189,-0.1777,-0.1235,-0.0561,-0.0112,0.0393,0.0897,0.1066,0.1066,0.0673,0.0505,0.028,-0.0056,-0.0393,-0.0673,-0.0841,-0.0897,-0.0897,-0.0897,-0.0897,-0.0897,-0.0897,-0.0897,-0.0897,-0.0897,-0.1066,-0.1122,-0.1178,-0.1234,-0.1289,-0.1233,-0.1178,-0.1403,-0.1908,-0.2631,-0.3355,-0.3855,-0.4062,-0.427,-0.4565,-0.4629,-0.4629,-0.4609,-0.4511,-0.4463,-0.4463,-0.4574,-0.4632,-0.4853,-0.5073,-0.5513,-0.5732,-0.5891,-0.6005,-0.5845,-0.5454,-0.5128,-0.4959,-0.4791,-0.4629,-0.4519,-0.4519,-0.4463,-0.4519,-0.4519,-0.4574,-0.4625,-0.4736,-0.4794,-0.4908,-0.5073,-0.5187,-0.5407,-0.5681,-0.6173,-0.6549,-0.6647,-0.6912,-0.7241,-0.7515,-0.7729,-0.3585,-0.3585,-0.3585,-0.3585,-0.3585,-0.3585,-0.3707,-0.3812,-0.3838,-0.3892,-0.3931,-0.3936,-0.3941,-0.3939,-0.3933,-0.387,-0.3883,-0.3885,-0.3867,-0.3938,-0.3995,-0.4019,-0.403,-0.4113,-0.4046,-0.394,-0.3856,-0.3633,-0.3342,-0.3231,-0.3069,-0.2848,-0.2516,-0.2318,-0.2067,-0.1755,-0.1234,-0.0449,0.0224,0.0897,0.1178,0.1346,0.1346,0.1066,0.0841,0.0673,0.0168,-0.0224,-0.0561,-0.0785,-0.0897,-0.0897,-0.0897,-0.0897,-0.0897,-0.0897,-0.0897,-0.0897,-0.0897,-0.0897,-0.0954,-0.0954,-0.101,-0.101,-0.0954,-0.1066,-0.157,-0.213,-0.2802,-0.3473,-0.4095,-0.4256,-0.4429,-0.4673,-0.4769,-0.4769,-0.4684,-0.4585,-0.4556,-0.4549,-0.4519,-0.4574,-0.4632,-0.4853,-0.5183,-0.5293,-0.5403,-0.5517,-0.5626,-0.5293,-0.5014,-0.4846,-0.468,-0.4574,-0.4519,-0.4519,-0.4463,-0.4463,-0.4463,-0.4463,-0.4519,-0.4629,-0.4632,-0.4691,-0.4853,-0.5022,-0.5297,-0.5626,-0.5845,-0.6009,-0.6059,-0.6436,-0.6864,-0.7187,-0.7461,-0.3585,-0.3585,-0.3585,-0.3585,-0.3585,-0.3585,-0.3702,-0.3801,-0.3807,-0.3808,-0.3848,-0.3892,-0.3879,-0.3901,-0.3845,-0.3769,-0.3711,-0.3668,-0.3623,-0.3576,-0.3735,-0.367,-0.367,-0.3794,-0.3786,-0.3702,-0.3615,-0.3481,-0.3236,-0.3095,-0.2894,-0.273,-0.2382,-0.2261,-0.2087,-0.1857,-0.129,-0.0505,0.0449,0.0954,0.1234,0.1234,0.1234,0.1122,0.0954,0.0617,0.0224,-0.0224,-0.0617,-0.0841,-0.0898,-0.0898,-0.0898,-0.0898,-0.0897,-0.0897,-0.0897,-0.0897,-0.0897,-0.0897,-0.0897,-0.0897,-0.0898,-0.0898,-0.0954,-0.1122,-0.1626,-0.2426,-0.3237,-0.3879,-0.4411,-0.4521,-0.4631,-0.4797,-0.4918,-0.4867,-0.4772,-0.4677,-0.4642,-0.4587,-0.448,-0.4519,-0.4574,-0.4743,-0.4908,-0.4959,-0.5124,-0.5183,-0.5183,-0.5124,-0.4849,-0.4791,-0.4625,-0.4515,-0.4463,-0.4463,-0.4463,-0.4463,-0.4463,-0.4463,-0.4519,-0.4519,-0.4574,-0.4632,-0.4632,-0.4853,-0.5128,-0.5297,-0.5411,-0.5517,-0.5681,-0.595,-0.6431,-0.682,-0.709,-0.3585,-0.3585,-0.3585,-0.3585,-0.3585,-0.3585,-0.366,-0.3629,-0.3634,-0.3661,-0.3683,-0.3686,-0.371,-0.3686,-0.3566,-0.3517,-0.3487,-0.3467,-0.3387,-0.3413,-0.345,-0.3491,-0.3501,-0.3547,-0.358,-0.3475,-0.3387,-0.3245,-0.3124,-0.2958,-0.2845,-0.2697,-0.2354,-0.224,-0.2128,-0.1908,-0.1346,-0.0729,0.028,0.0785,0.1122,0.1178,0.1178,0.1122,0.0898,0.0561,0.0112,-0.0449,-0.0841,-0.1066,-0.1066,-0.1066,-0.1178,-0.101,-0.0897,-0.0897,-0.0897,-0.0897,-0.0897,-0.0897,-0.0897,-0.0898,-0.0954,-0.0954,-0.101,-0.1234,-0.1738,-0.2597,-0.3637,-0.4287,-0.4658,-0.4774,-0.4852,-0.4967,-0.5067,-0.5023,-0.4925,-0.4813,-0.4707,-0.457,-0.4463,-0.4519,-0.4519,-0.4574,-0.4684,-0.4739,-0.4805,-0.4879,-0.4868,-0.4816,-0.4625,-0.457,-0.4515,-0.4349,-0.4408,-0.4408,-0.4463,-0.4463,-0.4463,-0.4463,-0.4519,-0.4519,-0.4519,-0.4519,-0.4574,-0.4739,-0.4959,-0.5073,-0.5132,-0.5246,-0.5462,-0.5677,-0.6,-0.6386,-0.6712,-0.3585,-0.3585,-0.353,-0.3471,-0.3416,-0.3416,-0.3416,-0.353,-0.3585,-0.3585,-0.3585,-0.3593,-0.3585,-0.3596,-0.354,-0.3429,-0.3263,-0.3256,-0.3173,-0.3076,-0.3191,-0.3184,-0.3205,-0.3271,-0.3338,-0.3244,-0.3168,-0.3033,-0.2974,-0.2798,-0.2635,-0.2691,-0.2354,-0.224,-0.2128,-0.1908,-0.1628,-0.101,-0.0336,0.0336,0.0729,0.0954,0.101,0.1066,0.0841,0.0449,-0.0056,-0.0673,-0.1066,-0.129,-0.129,-0.1346,-0.1458,-0.129,-0.1066,-0.1066,-0.101,-0.0954,-0.0898,-0.0897,-0.0897,-0.0898,-0.101,-0.1066,-0.1122,-0.129,-0.1906,-0.2657,-0.3819,-0.4722,-0.4918,-0.5058,-0.5101,-0.5216,-0.5203,-0.5192,-0.5084,-0.4965,-0.4765,-0.4531,-0.4463,-0.4463,-0.4463,-0.4519,-0.4553,-0.4664,-0.4773,-0.4812,-0.4823,-0.4706,-0.4494,-0.4239,-0.4239,-0.4187,-0.4242,-0.4187,-0.419,-0.4242,-0.446,-0.446,-0.446,-0.4463,-0.4519,-0.4519,-0.4519,-0.4625,-0.4791,-0.4849,-0.4908,-0.5077,-0.5246,-0.5462,-0.5681,-0.5955,-0.6277,-0.353,-0.353,-0.3416,-0.3246,-0.3077,-0.3077,-0.3188,-0.336,-0.353,-0.3585,-0.3585,-0.3585,-0.3585,-0.3585,-0.353,-0.3416,-0.3246,-0.3154,-0.3051,-0.2751,-0.2952,-0.2963,-0.2897,-0.2972,-0.3065,-0.3042,-0.2974,-0.2932,-0.286,-0.2745,-0.2635,-0.2691,-0.2354,-0.2184,-0.2128,-0.1852,-0.1628,-0.1515,-0.0897,-0.028,0.0112,0.0393,0.0729,0.0954,0.0785,0.0393,-0.0168,-0.0729,-0.1348,-0.152,-0.1636,-0.1752,-0.1813,-0.1698,-0.1527,-0.124,-0.1128,-0.101,-0.0898,-0.0897,-0.0954,-0.0954,-0.1066,-0.1178,-0.129,-0.1402,-0.1962,-0.293,-0.4154,-0.4849,-0.5178,-0.522,-0.5243,-0.5346,-0.5349,-0.5394,-0.5389,-0.5217,-0.4958,-0.4714,-0.4556,-0.4549,-0.4625,-0.4629,-0.4745,-0.4734,-0.4796,-0.4841,-0.481,-0.4721,-0.4415,-0.407,-0.3971,-0.3916,-0.3688,-0.3691,-0.3749,-0.3913,-0.4242,-0.4408,-0.4408,-0.4408,-0.4463,-0.4463,-0.4463,-0.4463,-0.4574,-0.4684,-0.4798,-0.5073,-0.5187,-0.5301,-0.5466,-0.5686,-0.59,-0.3188,-0.3077,-0.2912,-0.2856,-0.28,-0.2907,-0.2963,-0.3077,-0.3357,-0.353,-0.3585,-0.3585,-0.3585,-0.3585,-0.353,-0.3416,-0.3302,-0.3188,-0.3023,-0.2916,-0.2916,-0.286,-0.2691,-0.2802,-0.2858,-0.2916,-0.2916,-0.2914,-0.2858,-0.2747,-0.2635,-0.2635,-0.2354,-0.2184,-0.2184,-0.1852,-0.1741,-0.1741,-0.1459,-0.0954,-0.0617,-0.0336,-0.0056,-0.0,-0.0224,-0.0449,-0.0898,-0.118,-0.171,-0.2081,-0.2151,-0.2279,-0.2411,-0.2161,-0.1872,-0.158,-0.1319,-0.1136,-0.0958,-0.0958,-0.1014,-0.1123,-0.1234,-0.1346,-0.1402,-0.1569,-0.2214,-0.3338,-0.429,-0.4926,-0.5352,-0.5387,-0.537,-0.5463,-0.555,-0.5654,-0.5687,-0.5474,-0.5191,-0.4965,-0.469,-0.4706,-0.4786,-0.4901,-0.4893,-0.5008,-0.5067,-0.5082,-0.5044,-0.491,-0.4523,-0.4149,-0.3784,-0.3591,-0.3307,-0.319,-0.336,-0.3694,-0.4079,-0.419,-0.4301,-0.4408,-0.4463,-0.4463,-0.4463,-0.4463,-0.4519,-0.4574,-0.4739,-0.5073,-0.5242,-0.5411,-0.5356,-0.5517,-0.5626,-0.2912,-0.2798,-0.2689,-0.2579,-0.2519,-0.2631,-0.274,-0.2854,-0.3132,-0.336,-0.353,-0.3585,-0.3585,-0.3585,-0.353,-0.3471,-0.3416,-0.3302,-0.3135,-0.3026,-0.2916,-0.286,-0.2805,-0.2747,-0.2856,-0.297,-0.3081,-0.3081,-0.2916,-0.286,-0.2805,-0.2691,-0.241,-0.2184,-0.2184,-0.1964,-0.1797,-0.1797,-0.174,-0.1515,-0.1234,-0.101,-0.0954,-0.101,-0.1122,-0.1346,-0.1524,-0.1813,-0.2196,-0.2708,-0.297,-0.3062,-0.3075,-0.2889,-0.247,-0.2045,-0.1663,-0.1396,-0.1153,-0.1087,-0.1138,-0.1301,-0.1569,-0.1681,-0.1736,-0.1958,-0.2631,-0.371,-0.4665,-0.5342,-0.5554,-0.5599,-0.5727,-0.5811,-0.5885,-0.5935,-0.5924,-0.5825,-0.5643,-0.5492,-0.5308,-0.5373,-0.5444,-0.56,-0.5587,-0.5478,-0.5518,-0.5707,-0.5581,-0.5282,-0.4819,-0.4219,-0.3842,-0.3393,-0.3028,-0.297,-0.297,-0.3413,-0.3858,-0.4024,-0.419,-0.4353,-0.4463,-0.4519,-0.4519,-0.4463,-0.4519,-0.4574,-0.5018,-0.5462,-0.5517,-0.5521,-0.5462,-0.5407,-0.5458,-0.2579,-0.2523,-0.241,-0.2242,-0.2128,-0.2352,-0.2521,-0.2633,-0.2965,-0.3246,-0.3416,-0.353,-0.3585,-0.3585,-0.3585,-0.353,-0.3471,-0.3416,-0.3302,-0.3132,-0.2968,-0.2914,-0.2802,-0.2747,-0.2912,-0.3023,-0.319,-0.3081,-0.297,-0.2916,-0.2805,-0.2691,-0.2465,-0.224,-0.213,-0.1962,-0.1852,-0.1852,-0.1796,-0.1796,-0.174,-0.1628,-0.1572,-0.1685,-0.1853,-0.1964,-0.2151,-0.2474,-0.2751,-0.3306,-0.3798,-0.3928,-0.3804,-0.3549,-0.3028,-0.259,-0.2081,-0.1749,-0.1433,-0.1355,-0.139,-0.1538,-0.186,-0.2128,-0.2184,-0.2629,-0.3246,-0.4243,-0.5189,-0.5602,-0.5815,-0.5951,-0.6083,-0.6346,-0.6412,-0.6478,-0.6416,-0.6284,-0.6141,-0.6059,-0.6105,-0.6142,-0.6258,-0.6349,-0.6433,-0.6258,-0.618,-0.6291,-0.6302,-0.5905,-0.5505,-0.4651,-0.3887,-0.3437,-0.2772,-0.2579,-0.2579,-0.3079,-0.3469,-0.3802,-0.4082,-0.4356,-0.4463,-0.4519,-0.4519,-0.4519,-0.4629,-0.4739,-0.5238,-0.5736,-0.5955,-0.595,-0.5681,-0.5622,-0.5403,-0.1905,-0.1797,-0.1628,-0.1514,-0.1514,-0.1959,-0.2184,-0.235,-0.285,-0.3246,-0.3342,-0.3524,-0.3585,-0.3585,-0.3585,-0.3585,-0.353,-0.353,-0.3357,-0.3132,-0.3077,-0.2912,-0.2856,-0.28,-0.2912,-0.3077,-0.319,-0.3132,-0.3023,-0.297,-0.286,-0.2691,-0.2577,-0.2354,-0.2184,-0.2073,-0.1961,-0.1961,-0.1961,-0.1961,-0.1962,-0.185,-0.1797,-0.1852,-0.2018,-0.2298,-0.2601,-0.3009,-0.3561,-0.4172,-0.4712,-0.4813,-0.4619,-0.4243,-0.3695,-0.3101,-0.2638,-0.2184,-0.1913,-0.1814,-0.1837,-0.1971,-0.2348,-0.2873,-0.2981,-0.3249,-0.4183,-0.5498,-0.621,-0.6272,-0.6482,-0.6544,-0.6675,-0.7064,-0.726,-0.7396,-0.7461,-0.7073,-0.6741,-0.6863,-0.7071,-0.7163,-0.734,-0.7626,-0.8169,-0.7963,-0.7583,-0.7653,-0.7399,-0.6798,-0.6258,-0.5276,-0.4281,-0.3177,-0.2439,-0.2193,-0.2188,-0.2691,-0.3258,-0.3727,-0.412,-0.4359,-0.4467,-0.4522,-0.4577,-0.4577,-0.4739,-0.4849,-0.5449,-0.5946,-0.6381,-0.6436,-0.6114,-0.5786,-0.5567]}]]